[[{"header":{"parameterUnit":"m.s-1","parameterCategory":1,"la1":30.6,"la2":28.766,"lo1":-90.7593,"lo2":-88.6598,"dy":0.0162,"dx":0.0183,"nx":116,"ny":114,"refTime":"2024-06-13T18:00:00:Z","depth":0,"parameterNumber":2,"parameterNumberName":"U-component_of_WINDS"},"data":[0.0,0.0,0.0,0.0,0.0,0.0,0.0,0.0,0.0,0.0,0.0,0.0,0.0,0.0,0.0,0.0,0.0,0.0,0.0,0.0,0.0,0.0,0.0,0.0,0.0,0.0,0.0,0.0,0.0,0.0,0.0,0.0,0.0,0.0,0.0,0.0,0.0,0.0,0.0,0.0,0.0,0.0,0.0,0.0,0.0,0.0,0.0,0.0,0.0,0.0,0.0,0.0,0.0,0.0,0.0,0.0,0.0,0.0,0.0,0.0,0.0,0.0,0.0,0.0,0.0,0.0,0.0,0.0,0.0,0.0,0.0,0.0,0.0,0.0,0.0,0.0,0.0,0.0,0.0,0.0,0.0,0.0,0.0,0.0,0.0,0.0,0.0,0.0,0.0,0.0,0.0,0.0,0.0,0.0,0.0,0.0,0.0,0.0,0.0,0.0,0.0,0.0,0.0,0.0,0.0,0.0,0.0,0.0,0.0,0.0,0.0,0.0,0.0,0.0,0.0,0.0,0.0,0.0,0.0,0.0,0.0,0.0,0.0,0.0,0.0,0.0,0.0,0.0,0.0,0.0,0.0,0.0,0.0,0.0,0.0,0.0,0.0,0.0,0.0,0.0,0.0,0.0,0.0,0.0,0.0,0.0,0.0,0.0,0.0,0.0,0.0,0.0,0.0,0.0,0.0,0.0,0.0,0.0,0.0,0.0,0.0,0.0,0.0,0.0,0.0,0.0,0.0,0.0,0.0,0.0,0.0,0.0,0.0,0.0,0.0,0.0,0.0,0.0,0.0,0.0,0.0,0.0,0.0,0.0,0.0,0.0,0.0,0.0,0.0,0.0,0.0,0.0,0.0,0.0,0.0,0.0,0.0,0.0,0.0,0.0,0.0,0.0,0.0,0.0,0.0,0.0,0.0,0.0,0.0,0.0,0.0,0.0,0.0,0.0,0.0,0.0,0.0,0.0,0.0,0.0,0.0,0.0,0.0,0.0,0.0,0.0,0.0,0.0,0.0,0.0,0.0,0.0,0.0,0.0,0.0,0.0,0.0,0.0,0.0,0.0,0.0,0.0,0.0,0.0,0.0,0.0,0.0,0.0,0.0,0.0,0.0,0.0,0.0,0.0,0.0,0.0,0.0,0.0,0.0,0.0,0.0,0.0,0.0,0.0,0.0,0.0,0.0,0.0,0.0,0.0,0.0,0.0,0.0,0.0,0.0,0.0,0.0,0.0,0.0,0.0,0.0,0.0,0.0,0.0,0.0,0.0,0.0,0.0,0.0,0.0,0.0,0.0,0.0,0.0,0.0,0.0,0.0,0.0,0.0,0.0,0.0,0.0,0.0,0.0,0.0,0.0,0.0,0.0,0.0,0.0,0.0,0.0,0.0,0.0,0.0,0.0,0.0,0.0,0.0,0.0,0.0,0.0,0.0,0.0,0.0,0.0,0.0,0.0,0.0,0.0,0.0,0.0,0.0,0.0,0.0,0.0,0.0,0.0,0.0,0.0,0.0,0.0,0.0,0.0,0.0,0.0,0.0,0.0,0.0,0.0,0.0,0.0,0.0,0.0,0.0,0.0,0.0,0.0,0.0,0.0,0.0,0.0,0.0,0.0,0.0,0.0,0.0,0.0,0.0,0.0,0.0,0.0,0.0,0.0,0.0,0.0,0.0,0.0,0.0,0.0,0.0,0.0,0.0,0.0,0.0,0.0,0.0,0.0,0.0,0.0,0.0,0.0,0.0,0.0,0.0,0.0,0.0,0.0,0.0,0.0,0.0,0.0,0.0,0.0,0.0,0.0,0.0,0.0,0.0,0.0,0.0,0.0,0.0,0.0,0.0,0.0,0.0,0.0,0.0,0.0,0.0,0.0,0.0,0.0,0.0,0.0,0.0,0.0,0.0,0.0,0.0,0.0,0.0,0.0,0.0,0.0,0.0,0.0,0.0,0.0,0.0,0.0,0.0,0.0,0.0,0.0,0.0,0.0,0.0,0.0,0.0,0.0,0.0,0.0,0.0,0.0,0.0,0.0,0.0,0.0,0.0,0.0,0.0,0.0,0.0,0.0,0.0,0.0,0.0,0.0,0.0,0.0,0.0,0.0,0.0,0.0,0.0,0.0,0.0,0.0,0.0,0.0,0.0,0.0,0.0,0.0,0.0,0.0,0.0,0.0,0.0,0.0,0.0,0.0,0.0,0.0,0.0,0.0,0.0,0.0,0.0,0.0,0.0,0.0,0.0,0.0,0.0,0.0,0.0,0.0,0.0,0.0,0.0,0.0,0.0,0.0,0.0,0.0,0.0,0.0,0.0,0.0,0.0,0.0,0.0,0.0,0.0,0.0,0.0,0.0,0.0,0.0,0.0,0.0,0.0,0.0,0.0,0.0,0.0,0.0,0.0,0.0,0.0,0.0,0.0,0.0,0.0,0.0,0.0,0.0,0.0,0.0,0.0,0.0,0.0,0.0,0.0,0.0,0.0,0.0,0.0,0.0,0.0,0.0,0.0,0.0,0.0,0.0,0.0,0.0,0.0,0.0,0.0,0.0,0.0,0.0,0.0,0.0,0.0,0.0,0.0,0.0,0.0,0.0,0.0,0.0,0.0,0.0,0.0,0.0,0.0,0.0,0.0,0.0,0.0,0.0,0.0,0.0,0.0,0.0,0.0,0.0,0.0,0.0,0.0,0.0,0.0,0.0,0.0,0.0,0.0,0.0,0.0,0.0,0.0,0.0,0.0,0.0,0.0,0.0,0.0,0.0,0.0,0.0,0.0,0.0,0.0,0.0,0.0,0.0,0.0,0.0,0.0,0.0,0.0,0.0,0.0,0.0,0.0,0.0,0.0,0.0,0.0,0.0,0.0,0.0,0.0,0.0,0.0,0.0,0.0,0.0,0.0,0.0,0.0,0.0,0.0,0.0,0.0,0.0,0.0,0.0,0.0,0.0,0.0,0.0,0.0,0.0,0.0,0.0,0.0,0.0,0.0,0.0,0.0,0.0,0.0,0.0,0.0,0.0,0.0,0.0,0.0,0.0,0.0,0.0,0.0,0.0,0.0,0.0,0.0,0.0,0.0,0.0,0.0,0.0,0.0,0.0,0.0,0.0,0.0,0.0,0.0,0.0,0.0,0.0,0.0,0.0,0.0,0.0,0.0,0.0,0.0,0.0,0.0,0.0,0.0,0.0,0.0,0.0,0.0,0.0,0.0,0.0,0.0,0.0,0.0,0.0,0.0,0.0,0.0,0.0,0.0,0.0,0.0,0.0,0.0,0.0,0.0,0.0,0.0,0.0,0.0,0.0,0.0,0.0,0.0,0.0,0.0,0.0,0.0,0.0,0.0,0.0,0.0,0.0,0.0,0.0,0.0,0.0,0.0,0.0,0.0,0.0,0.0,0.0,0.0,0.0,0.0,0.0,0.0,0.0,0.0,0.0,0.0,0.0,0.0,0.0,0.0,0.0,0.0,0.0,0.0,0.0,0.0,0.0,0.0,0.0,0.0,0.0,0.0,0.0,0.0,0.0,0.0,0.0,0.0,0.0,0.0,0.0,0.0,0.0,0.0,0.0,0.0,0.0,0.0,0.0,0.0,0.0,0.0,0.0,0.0,0.0,0.0,0.0,0.0,0.0,0.0,0.0,0.0,0.0,0.0,0.0,0.0,0.0,0.0,0.0,0.0,0.0,0.0,0.0,0.0,0.0,0.0,0.0,0.0,0.0,0.0,0.0,0.0,0.0,0.0,0.0,0.0,0.0,0.0,0.0,0.0,0.0,0.0,0.0,0.0,0.0,0.0,0.0,0.0,0.0,0.0,0.0,0.0,0.0,0.0,0.0,0.0,0.0,0.0,0.0,0.0,0.0,0.0,0.0,0.0,0.0,0.0,0.0,0.0,0.0,0.0,0.0,0.0,0.0,0.0,0.0,0.0,0.0,0.0,0.0,0.0,0.0,0.0,0.0,0.0,0.0,0.0,0.0,0.0,0.0,0.0,0.0,0.0,0.0,0.0,0.0,0.0,0.0,0.0,0.0,0.0,0.0,0.0,0.0,0.0,0.0,0.0,0.0,0.0,0.0,0.0,0.0,0.0,0.0,0.0,0.0,0.0,0.0,0.0,0.0,0.0,0.0,0.0,0.0,0.0,0.0,0.0,0.0,0.0,0.0,0.0,0.0,0.0,0.0,0.0,0.0,0.0,0.0,0.0,0.0,0.0,0.0,0.0,0.0,0.0,0.0,0.0,0.0,0.0,0.0,0.0,0.0,0.0,0.0,0.0,0.0,0.0,0.0,0.0,0.0,0.0,0.0,0.0,0.0,0.0,0.0,0.0,0.0,0.0,0.0,0.0,0.0,0.0,0.0,0.0,0.0,0.0,0.0,0.0,0.0,0.0,0.0,0.0,0.0,0.0,0.0,0.0,0.0,0.0,0.0,0.0,0.0,0.0,0.0,0.0,0.0,0.0,0.0,0.0,0.0,0.0,0.0,0.0,0.0,0.0,0.0,0.0,0.0,0.0,0.0,0.0,0.0,0.0,0.0,0.0,0.0,0.0,0.0,0.0,0.0,0.0,0.0,0.0,0.0,0.0,0.0,0.0,0.0,0.0,0.0,0.0,0.0,0.0,0.0,0.0,0.0,0.0,0.0,0.0,0.0,0.0,0.0,0.0,0.0,0.0,0.0,0.0,0.0,0.0,0.0,0.0,0.0,0.0,0.0,0.0,0.0,0.0,0.0,0.0,0.0,0.0,0.0,0.0,0.0,0.0,0.0,0.0,0.0,0.0,0.0,0.0,0.0,0.0,0.0,0.0,0.0,0.0,0.0,0.0,0.0,0.0,0.0,0.0,0.0,0.0,0.0,0.0,0.0,0.0,0.0,0.0,0.0,0.0,0.0,0.0,0.0,0.0,0.0,0.0,0.0,0.0,0.0,0.0,0.0,0.0,0.0,0.0,0.0,0.0,0.0,0.0,0.0,0.0,0.0,0.0,0.0,0.0,0.0,0.0,0.0,0.0,0.0,0.0,0.0,0.0,0.0,0.0,0.0,0.0,0.0,0.0,0.0,0.0,0.0,0.0,0.0,0.0,0.0,0.0,0.0,0.0,0.0,0.0,0.0,0.0,0.0,0.0,0.0,0.0,0.0,0.0,0.0,0.0,0.0,0.0,0.0,0.0,0.0,0.0,0.0,0.0,0.0,0.0,0.0,0.0,0.0,0.0,0.0,0.0,0.0,0.0,0.0,0.0,0.0,0.0,0.0,0.0,0.0,0.0,0.0,0.0,0.0,0.0,0.0,0.0,0.0,0.0,0.0,0.0,0.0,0.0,0.0,0.0,0.0,0.0,0.0,0.0,0.0,0.0,0.0,0.0,0.0,0.0,0.0,0.0,0.0,0.0,0.0,0.0,0.0,0.0,0.0,0.0,0.0,0.0,0.0,0.0,0.0,0.0,0.0,0.0,0.0,0.0,0.0,0.0,0.0,0.0,0.0,0.0,0.0,0.0,0.0,0.0,0.0,0.0,0.0,0.0,0.0,0.0,0.0,0.0,0.0,0.0,0.0,0.0,0.0,0.0,0.0,0.0,0.0,0.0,0.0,0.0,0.0,0.0,0.0,0.0,0.0,0.0,0.0,0.0,0.0,0.0,0.0,0.0,0.0,0.0,0.0,0.0,0.0,0.0,0.0,0.0,0.0,0.0,0.0,0.0,0.0,0.0,0.0,0.0,0.0,0.0,0.0,0.0,0.0,0.0,0.0,0.0,0.0,0.0,0.0,0.0,0.0,0.0,0.0,0.0,0.0,0.0,0.0,0.0,0.0,0.0,0.0,0.0,0.0,0.0,0.0,0.0,0.0,0.0,0.0,0.0,0.0,0.0,0.0,0.0,0.0,0.0,0.0,0.0,0.0,0.0,0.0,0.0,0.0,0.0,0.0,0.0,0.0,0.0,0.0,0.0,0.0,0.0,0.0,0.0,0.0,0.0,0.0,0.0,0.0,0.0,0.0,0.0,0.0,0.0,0.0,0.0,0.0,0.0,0.0,0.0,0.0,0.0,0.0,0.0,0.0,0.0,0.0,0.0,0.0,0.0,0.0,0.0,0.0,0.0,0.0,0.0,0.0,0.0,0.0,-0.5632,0.0,0.0,0.0,0.0,0.0,0.0,0.0,0.0,0.0,0.0,0.0,0.0,0.0,0.0,0.0,0.0,0.0,0.0,0.0,0.0,0.0,0.0,0.0,0.0,-0.5809,-0.6061,-0.6275,-0.6383,-0.647,-0.6543,0.0,0.0,0.0,0.0,0.0,-0.6035,-0.6035,-0.6103,-0.6234,-0.6159,-0.62,-0.6323,-0.6086,-0.5507,-0.471,0.0,0.0,0.0,0.0,0.0,0.0,0.0,0.0,0.0,0.0,0.0,0.0,0.0,0.0,0.0,0.0,0.0,0.0,0.0,0.0,0.0,0.0,0.0,0.0,0.0,0.0,0.0,0.0,0.0,0.0,0.0,0.0,0.0,0.0,0.0,0.0,0.0,0.0,0.0,0.0,0.0,0.0,0.0,0.0,0.0,0.0,0.0,0.0,0.0,0.0,0.0,0.0,0.0,0.0,0.0,0.0,0.0,0.0,0.0,0.0,0.0,0.0,0.0,0.0,0.0,0.0,0.0,0.0,0.0,0.0,0.0,-0.6416,0.0,0.0,0.0,0.0,0.0,0.0,0.0,0.0,0.0,0.0,0.0,0.0,0.0,0.0,0.0,0.0,0.0,0.0,0.0,0.0,0.0,-0.5585,-0.5895,-0.6337,-0.6668,-0.6803,-0.6817,-0.6817,-0.6817,-0.679,0.0,0.0,-0.6742,-0.6668,-0.6539,-0.6559,-0.6627,-0.6776,-0.6702,-0.6756,-0.6942,-0.7105,-0.638,-0.4947,-0.5347,0.0,0.0,0.0,0.0,0.0,0.0,0.0,0.0,0.0,0.0,0.0,0.0,0.0,0.0,0.0,0.0,0.0,0.0,0.0,0.0,0.0,0.0,0.0,0.0,0.0,0.0,0.0,0.0,0.0,0.0,0.0,0.0,0.0,0.0,0.0,0.0,0.0,0.0,0.0,0.0,0.0,0.0,0.0,0.0,0.0,0.0,0.0,0.0,0.0,0.0,0.0,0.0,0.0,0.0,0.0,0.0,0.0,0.0,0.0,0.0,0.0,0.0,0.0,-0.9144,-0.928,-0.9386,-0.9504,-0.9534,-0.9509,-0.8483,-0.7713,-0.7152,-0.72,0.0,0.0,0.0,0.0,0.0,0.0,0.0,0.0,0.0,0.0,0.0,0.0,0.0,0.0,0.0,0.0,0.0,0.0,0.0,-0.5917,-0.6369,-0.6776,-0.7093,-0.7294,-0.7308,-0.7308,-0.7308,-0.7134,-0.7006,-0.6884,-0.6877,-0.6803,-0.6675,-0.6782,-0.6918,-0.7038,-0.7197,-0.7204,-0.7079,-0.7399,-0.7237,-0.6655,-0.6214,-0.6193,-0.6409,0.0,0.0,0.0,0.0,0.0,0.0,0.0,0.0,0.0,0.0,0.0,0.0,0.0,0.0,0.0,0.0,0.0,0.0,0.0,0.0,0.0,0.0,0.0,0.0,0.0,0.0,0.0,0.0,0.0,0.0,0.0,0.0,0.0,0.0,0.0,0.0,0.0,0.0,0.0,0.0,0.0,-0.662,-0.6803,0.0,0.0,0.0,0.0,0.0,0.0,0.0,0.0,0.0,0.0,0.0,0.0,0.0,-0.9285,-0.9224,-0.972,-0.9868,-0.9684,-0.9912,-1.0048,-1.0067,-1.0085,-1.016,-1.0271,-1.0518,0.0,-0.8517,-0.8186,0.0,0.0,0.0,0.0,0.0,0.0,0.0,0.0,0.0,0.0,0.0,0.0,0.0,0.0,0.0,0.0,0.0,0.0,0.0,0.0,0.0,-0.6999,-0.7249,-0.759,-0.7543,-0.7485,-0.7396,-0.7305,-0.7204,-0.7011,-0.7004,-0.7033,-0.7097,-0.7143,-0.7333,-0.7597,-0.8027,-0.8157,-0.8,-0.8224,-0.8206,-0.7928,-0.7448,-0.7051,-0.6691,-0.5785,0.0,0.0,0.0,0.0,0.0,0.0,0.0,0.0,0.0,0.0,0.0,0.0,0.0,0.0,0.0,0.0,0.0,0.0,0.0,0.0,0.0,0.0,0.0,0.0,0.0,0.0,0.0,0.0,0.0,0.0,0.0,0.0,0.0,0.0,0.0,0.0,0.0,0.0,0.0,-0.7052,-0.7407,-0.7192,-0.7731,-0.7949,0.0,0.0,0.0,0.0,0.0,0.0,0.0,0.0,0.0,-1.0149,-1.0354,-1.0507,-1.0654,-1.1145,-1.1329,-1.1204,-1.1414,-1.1475,-1.1475,-1.1475,-1.1469,-1.1499,-1.1706,-1.1272,-1.0438,-0.9722,-0.917,-0.8702,0.0,0.0,0.0,0.0,-0.899,-0.9081,0.0,0.0,0.0,0.0,0.0,0.0,0.0,0.0,0.0,0.0,0.0,0.0,-0.7031,-0.7154,-0.7344,-0.7773,-0.7712,-0.7638,-0.7627,-0.7478,-0.7353,-0.729,-0.7256,-0.729,-0.745,-0.76,-0.7841,-0.8182,-0.871,-0.8933,-0.8825,-0.8953,-0.896,-0.8879,-0.8534,-0.7936,-0.7142,-0.6498,-0.6152,-0.6036,0.0,0.0,0.0,0.0,0.0,0.0,0.0,0.0,0.0,0.0,0.0,0.0,0.0,0.0,0.0,0.0,0.0,0.0,0.0,0.0,0.0,0.0,0.0,0.0,0.0,0.0,0.0,0.0,0.0,0.0,0.0,0.0,0.0,0.0,0.0,0.0,0.0,-0.8067,-0.827,-0.7814,-0.851,-0.8744,0.0,0.0,0.0,0.0,0.0,0.0,-1.0751,-1.0757,-1.0983,-1.1479,-1.1481,-1.164,-1.1868,-1.2277,-1.2461,-1.2461,-1.2569,-1.2623,-1.2623,-1.2623,-1.2562,-1.2461,-1.2461,-1.2284,-1.1908,-1.1032,-1.0412,-0.9978,-0.9584,-0.9613,-0.9917,-1.0062,-1.0157,-1.0251,0.0,0.0,0.0,0.0,0.0,0.0,0.0,0.0,0.0,0.0,0.0,-0.6505,-0.7031,-0.7272,-0.7505,-0.7787,-0.7801,-0.7923,-0.8233,-0.7716,-0.7519,-0.7767,-0.7651,-0.7584,-0.759,-0.8165,-0.8506,-0.8676,-0.9015,-0.9193,-0.9187,-0.9315,-0.9383,-0.9369,-0.9213,-0.8899,-0.845,-0.7453,-0.7082,-0.7076,-0.6463,0.0,0.0,0.0,0.0,0.0,0.0,0.0,0.0,0.0,0.0,0.0,0.0,0.0,0.0,0.0,0.0,0.0,0.0,0.0,0.0,0.0,0.0,0.0,0.0,0.0,0.0,0.0,0.0,0.0,0.0,0.0,0.0,0.0,0.0,0.0,0.0,0.0,0.0,-0.9325,-0.9842,0.0,0.0,0.0,0.0,-1.0412,-1.1097,-1.1525,-1.1523,-1.1979,-1.2216,-1.2237,-1.2483,-1.2632,-1.2632,-1.284,-1.2969,-1.2969,-1.2975,-1.2975,-1.2975,-1.2975,-1.2975,-1.2969,-1.2969,-1.2752,-1.2413,-1.1667,-1.126,-1.1077,-1.0738,-1.0623,-1.0617,-1.0521,-1.0561,-1.0657,0.0,0.0,0.0,0.0,0.0,-0.5426,-0.5511,-0.5718,-0.5957,-0.6274,-0.6614,-0.6999,-0.7492,-0.7682,-0.7923,-0.8214,-0.8185,-0.8113,-0.8094,-0.774,-0.7733,-0.8221,-0.8131,-0.8233,-0.8621,-0.8927,-0.9137,-0.9286,-0.9585,-0.9781,-0.9914,-0.9968,-0.9903,-0.9771,-0.9652,-0.9471,-0.9184,-0.8118,-0.7697,-0.7662,-0.6924,-0.648,0.0,0.0,0.0,0.0,0.0,0.0,0.0,0.0,0.0,0.0,0.0,0.0,0.0,0.0,0.0,0.0,0.0,0.0,0.0,0.0,0.0,0.0,0.0,0.0,0.0,0.0,0.0,0.0,0.0,0.0,0.0,0.0,0.0,0.0,0.0,0.0,0.0,-1.0387,-1.0914,0.0,-1.0608,-1.09,-1.128,-1.1626,-1.1898,-1.2216,-1.2596,-1.2812,-1.2901,-1.3003,-1.3159,-1.3267,-1.3267,-1.3451,-1.3526,-1.3526,-1.3526,-1.3526,-1.3526,-1.3431,-1.3336,-1.3241,-1.318,-1.3023,-1.2819,-1.2547,-1.2179,-1.1757,-1.1518,-1.1401,-1.1381,-1.1274,-1.1272,-1.1387,0.0,0.0,0.0,0.0,-0.5257,-0.5446,-0.5586,-0.5822,-0.612,-0.645,-0.6817,-0.7256,-0.7804,-0.7905,-0.8094,-0.8526,-0.841,-0.8335,-0.8411,-0.8045,-0.8117,-0.8709,-0.86,-0.8757,-0.9247,-0.9458,-0.9605,-0.9761,-1.0053,-1.0197,-1.0315,-1.0363,-1.027,-1.0089,-1.0019,-0.9924,-0.9788,-0.8942,-0.8455,-0.817,-0.7559,-0.731,-0.727,0.0,0.0,0.0,0.0,0.0,0.0,0.0,0.0,0.0,0.0,0.0,0.0,0.0,0.0,0.0,0.0,0.0,0.0,0.0,0.0,0.0,0.0,0.0,0.0,0.0,0.0,0.0,0.0,0.0,0.0,0.0,0.0,0.0,0.0,-1.0853,-1.1355,-1.1225,-1.178,-1.2033,-1.1621,-1.1904,-1.2264,-1.2562,-1.2684,-1.2915,-1.3308,-1.337,-1.3444,-1.3546,-1.3605,-1.366,-1.366,-1.3747,-1.3795,-1.3795,-1.3795,-1.3822,-1.3912,-1.3824,-1.3722,-1.362,-1.3519,-1.3411,-1.318,-1.3132,-1.2887,-1.2451,-1.2155,-1.2026,-1.1965,-1.1823,-1.183,-1.1904,0.0,0.0,0.0,-0.5076,-0.5257,-0.5446,-0.5586,-0.5829,-0.6126,-0.6457,-0.6756,-0.7202,-0.7901,-0.7891,-0.8065,-0.8662,-0.8471,-0.8553,-0.9166,-0.8621,-0.8566,-0.9207,-0.9049,-0.9095,-0.9451,-0.9707,-0.9924,-1.0111,-1.0403,-1.0472,-1.0342,-1.0446,-1.0439,-1.0335,-1.0297,-1.0322,-1.027,-0.9964,-0.9386,-0.8716,-0.8437,-0.8396,-0.8444,0.0,0.0,0.0,0.0,0.0,0.0,0.0,0.0,0.0,0.0,0.0,0.0,0.0,0.0,0.0,0.0,0.0,0.0,0.0,0.0,0.0,0.0,0.0,0.0,0.0,0.0,0.0,0.0,0.0,0.0,0.0,0.0,0.0,-1.0786,-1.136,-1.1834,-1.1834,-1.2528,-1.2853,-1.2379,-1.2894,-1.3234,-1.3241,-1.3478,-1.3605,-1.3612,-1.3747,-1.3822,-1.3829,-1.3829,-1.3829,-1.3829,-1.3829,-1.3822,-1.3822,-1.3822,-1.3939,-1.4125,-1.4125,-1.4119,-1.4119,-1.4119,-1.3912,-1.3585,-1.3485,-1.3329,-1.3186,-1.2691,-1.2427,-1.2284,-1.2173,-1.2118,-1.2125,0.0,0.0,-0.5056,-0.509,-0.5257,-0.5481,-0.5705,-0.6022,-0.6321,-0.66,-0.7095,-0.7529,-0.7817,-0.8126,-0.8411,-0.8682,-0.8533,-0.8587,-0.8974,-0.854,-0.8709,-0.9598,-0.9815,-1.01,-1.0475,-1.0454,-1.0515,-1.0671,-1.0887,-1.0989,-1.0955,-1.0995,-1.09,-1.0725,-1.0617,-1.0534,-1.0419,-1.0236,-0.991,-0.944,-0.8933,-0.8648,-0.8478,0.0,0.0,0.0,0.0,0.0,0.0,0.0,0.0,0.0,0.0,0.0,0.0,0.0,0.0,0.0,0.0,0.0,0.0,0.0,0.0,0.0,0.0,0.0,0.0,0.0,0.0,0.0,0.0,0.0,0.0,0.0,-1.126,-1.1796,-1.1523,-1.2176,-1.273,-1.2793,-1.3186,-1.3437,-1.3375,-1.3559,-1.3702,-1.386,-1.3905,-1.4041,-1.4258,-1.4306,-1.4336,-1.4444,-1.4451,-1.4451,-1.4451,-1.4451,-1.439,-1.4326,-1.4326,-1.4299,-1.4238,-1.4238,-1.4177,-1.4125,-1.419,-1.4061,-1.3747,-1.3858,-1.3736,-1.3458,-1.301,-1.2739,-1.2603,-1.2562,-1.2413,-1.2237,0.0,-0.4957,-0.5117,-0.5216,-0.5375,-0.5552,-0.5766,-0.613,-0.645,-0.6668,-0.7224,-0.7678,-0.7858,-0.8201,-0.8505,-0.8689,-0.8689,-0.8723,-0.8899,-0.8927,-0.9191,-0.9765,-1.0175,-1.0493,-1.0718,-1.0765,-1.0853,-1.1036,-1.1185,-1.1261,-1.12,-1.1261,-1.1179,-1.1036,-1.0941,-1.086,-1.0791,-1.0555,-1.0358,-1.0123,-0.9656,-0.9354,-0.9103,-0.8798,-0.8675,-0.8574,-0.8208,-0.8024,-0.7943,-0.7753,0.0,0.0,0.0,0.0,0.0,0.0,0.0,0.0,0.0,0.0,0.0,0.0,0.0,0.0,0.0,0.0,0.0,0.0,0.0,0.0,0.0,0.0,0.0,0.0,-1.2162,-1.261,-1.2551,-1.2908,-1.322,-1.3431,-1.3668,-1.3871,-1.4021,-1.3991,-1.4095,-1.4245,-1.4258,-1.436,-1.4545,-1.4559,-1.4606,-1.4687,-1.4694,-1.4694,-1.4694,-1.4694,-1.4654,-1.4559,-1.4559,-1.4597,-1.4577,-1.4516,-1.4434,-1.4353,-1.438,-1.4251,-1.4041,-1.4129,-1.4027,0.0,0.0,0.0,0.0,0.0,-1.2584,-1.2467,0.0,-0.5045,-0.5187,-0.5392,-0.5518,-0.5644,-0.58,-0.6212,-0.6546,-0.6681,-0.7224,-0.7706,-0.7959,-0.8167,-0.841,-0.8662,-0.8811,-0.894,-0.9007,-0.9501,-0.9819,-0.9886,-1.0304,-1.0541,-1.0595,-1.0846,-1.1056,-1.1274,-1.1375,-1.1369,-1.1274,-1.1362,-1.1341,-1.1247,-1.1234,-1.1227,-1.1206,-1.0887,-1.0718,-1.0664,-1.0432,-1.0209,-0.9934,-0.9458,-0.9471,-0.9659,-0.8994,-0.8669,-0.8526,-0.8119,0.0,0.0,0.0,0.0,0.0,0.0,0.0,0.0,0.0,0.0,0.0,0.0,0.0,0.0,0.0,0.0,0.0,0.0,0.0,0.0,0.0,0.0,0.0,0.0,-1.3146,-1.3505,-1.3654,-1.358,-1.3593,-1.3795,-1.4,-1.42,-1.4306,-1.4326,-1.438,-1.4529,-1.4536,-1.4559,-1.4714,-1.4721,0.0,0.0,0.0,-1.4741,-1.4741,-1.4741,-1.4735,-1.4721,-1.4721,-1.4828,-1.4943,-1.4801,-1.4694,-1.4687,-1.4618,-1.4475,-1.4326,-1.434,-1.4251,-1.4048,-1.358,-1.3308,-1.318,-1.2861,-1.2706,-1.2672,0.0,-0.5209,-0.5382,-0.5539,-0.5586,-0.5677,-0.5924,-0.6261,-0.6546,-0.6681,-0.7224,-0.7665,-0.781,-0.8106,-0.8362,-0.8539,-0.875,-0.9115,-0.9589,-0.9724,-1.0008,-1.0495,-1.0596,-1.0846,-1.1212,-1.1396,-1.1523,-1.1665,-1.1692,-1.1692,-1.1665,-1.1613,-1.1558,-1.1525,-1.1402,-1.1348,-1.1335,-1.1186,-1.0941,-1.0717,-1.0623,-1.0324,-0.9819,-0.9734,-0.9523,-0.9294,-0.9145,-0.9077,-0.9056,-0.909,-0.8838,-0.8547,-0.8588,-0.8189,0.0,0.0,0.0,0.0,0.0,0.0,0.0,0.0,0.0,0.0,0.0,0.0,0.0,0.0,0.0,0.0,0.0,0.0,0.0,-1.2854,-1.339,-1.381,-1.3966,-1.4068,-1.4102,-1.4034,-1.4163,-1.4312,-1.4455,-1.4468,-1.4529,-1.464,-1.4654,-1.4714,-1.4916,-1.493,-1.4977,-1.5092,-1.5099,-1.5099,-1.5099,-1.5099,-1.5038,-1.493,-1.493,0.0,-1.4741,-1.4708,-1.4694,-1.4701,-1.4841,-1.4726,-1.4482,-1.4559,-1.4496,-1.4197,-1.3627,-1.3308,-1.3193,-1.3023,-1.2834,-1.2686,-0.5127,-0.5369,-0.5539,-0.5671,-0.5759,-0.5842,-0.5991,-0.6349,-0.6641,-0.6776,-0.7333,-0.7733,-0.7801,-0.8085,-0.8321,-0.8396,-0.8696,-0.9197,-0.989,-1.0005,-1.0249,-1.0671,-1.0934,-1.1158,-1.1389,-1.1538,-1.1617,-1.1692,-1.1692,-1.1692,-1.1685,-1.1617,-1.1653,-1.1685,-1.1647,-1.1653,-1.1714,-1.1484,-1.126,-1.1043,-1.086,-1.0529,-1.0141,-0.9961,-0.9765,-0.9585,-0.9435,-0.941,-0.9396,-0.9322,-0.9145,-0.8933,-0.8912,-0.8601,-0.8275,0.0,0.0,0.0,0.0,0.0,0.0,0.0,0.0,0.0,0.0,0.0,0.0,0.0,0.0,-1.1827,-1.2311,0.0,-1.3193,-1.3608,-1.381,-1.4007,-1.4163,-1.4251,-1.4272,-1.4197,-1.4319,-1.4434,-1.4502,-1.4577,-1.4692,-1.4841,-1.4855,-1.4957,-1.5181,-1.5194,-1.5262,-1.5404,-1.5411,-1.5411,-1.5411,-1.5411,-1.5337,-1.5194,-1.5194,-1.5113,-1.4957,-1.4889,-1.4855,-1.4855,-1.4855,-1.4726,-1.4509,-1.4516,-1.4475,-1.4367,-1.3994,-1.3709,-1.3471,-1.3214,-1.3057,-1.2929,-0.5155,-0.544,-0.5676,-0.5809,-0.5951,-0.6066,-0.6093,-0.6451,-0.679,-0.6891,-0.7371,-0.7726,-0.7726,-0.8002,-0.8226,-0.8369,-0.8662,-0.9205,-1.007,-1.0267,-1.0466,-1.0792,-1.1212,-1.1436,-1.1436,-1.1586,-1.1624,-1.1624,-1.1624,-1.1624,-1.1624,-1.1597,-1.1658,-1.1793,-1.1793,-1.1898,-1.2036,-1.1762,-1.1558,-1.1369,-1.1063,-1.0826,-1.0541,-1.0191,-1.0042,-0.9981,-0.9683,-0.9646,-0.9646,-0.9335,-0.9267,-0.9281,-0.9076,-0.8933,-0.8886,-0.8886,-0.8866,0.0,0.0,0.0,0.0,0.0,0.0,0.0,0.0,-1.0968,-1.1374,-1.1935,-1.2427,-1.2908,-1.3477,-1.366,-1.3885,-1.4278,-1.4265,-1.4231,-1.4326,-1.434,-1.4333,-1.4306,-1.4428,-1.4523,-1.4557,-1.4647,-1.4848,-1.4997,-1.5038,-1.516,-1.5398,-1.5438,-1.5513,-1.5587,-1.5593,-1.5593,-1.5593,-1.5593,-1.5512,-1.5411,-1.5411,-1.533,-1.5181,-1.5112,-1.5057,-1.5051,-1.4848,-1.4654,-1.455,-1.4434,-1.4455,-1.4543,-1.4394,-1.4211,-1.3916,-1.3478,-1.3268,-1.318,0.0,-0.5395,-0.5754,-0.5947,-0.6132,-0.6301,-0.6423,-0.6695,-0.6891,-0.6904,-0.7217,-0.7444,-0.7444,-0.7593,-0.7943,-0.8601,-0.8581,-0.9049,-1.0213,-1.0385,-1.0696,-1.1125,-1.1423,-1.1592,-1.1592,-1.1698,-1.1773,-1.1773,-1.1773,-1.1773,-1.1766,-1.1681,-1.1658,-1.1793,-1.1793,-1.18,-1.182,-1.1786,-1.1647,-1.1375,-1.124,-1.1043,-1.0819,-1.0419,-1.0168,-0.9981,-0.9683,-0.9751,-0.99,-0.9503,-0.953,-0.97,-0.9422,-0.9415,-0.951,-0.951,-0.9415,-0.9451,-0.9968,-1.0222,-1.05,-1.1056,-1.1043,-1.1205,0.0,-1.2569,-1.2461,-1.2929,-1.3281,-1.3484,-1.3572,-1.3953,-1.4285,-1.4462,-1.4539,-1.4579,-1.4502,-1.4489,-1.4441,-1.4312,-1.4428,-1.4563,-1.4654,-1.4855,-1.5051,-1.5147,-1.5282,-1.5377,-1.5411,-1.5492,-1.5573,-1.5593,-1.5593,-1.5593,-1.5593,-1.5593,-1.5512,-1.5411,-1.5411,-1.533,-1.5181,-1.5167,-1.516,-1.5153,-1.5011,-1.4855,-1.4667,-1.4654,-1.4654,-1.4654,-1.455,-1.455,-1.4525,-1.3937,-1.36,-1.337,0.0,-0.5286,-0.5607,-0.5892,-0.6203,-0.6443,-0.6484,-0.6729,-0.6938,-0.6997,-0.7312,-0.7502,-0.7502,-0.7638,-0.7923,-0.8411,-0.8554,-0.9015,-0.9951,-1.031,-1.0723,-1.1179,-1.1457,-1.1584,-1.1584,-1.1644,-1.1671,-1.1671,-1.1671,-1.1671,-1.1671,-1.1647,-1.1658,-1.1793,-1.1793,-1.1877,-1.1959,-1.1834,-1.1678,-1.1504,-1.1295,-1.1023,-1.0732,-1.0285,-0.9967,-0.9758,-0.9717,-0.9731,0.0,-0.9476,-0.9523,-0.9646,-0.9369,-0.9383,-0.951,-0.968,-1.0122,-1.0693,-1.141,-1.1503,-1.1499,-1.1751,-1.2013,-1.2386,-1.2969,-1.3037,-1.3125,-1.3485,-1.3736,-1.3939,-1.4109,-1.4299,-1.4468,-1.4572,-1.4654,-1.464,-1.4529,-1.4509,-1.4462,-1.4319,-1.4428,-1.457,-1.4681,-1.4882,-1.5112,-1.5296,-1.5371,-1.5486,-1.5655,-1.573,-1.5805,-1.5893,-1.5893,-1.5893,-1.5893,-1.5893,-1.5818,-1.5669,-1.5669,-1.5547,-1.5316,-1.5316,-1.5316,-1.5303,-1.5072,-1.4936,-1.4862,-1.4679,-1.4613,-1.4687,-1.4626,-1.474,-1.4787,-1.4052,-1.372,-1.3592,0.0,-0.5168,-0.5454,-0.5743,-0.6118,-0.6411,-0.6532,-0.679,-0.7019,-0.7161,-0.7337,-0.7475,-0.7475,-0.754,-0.7767,-0.8138,-0.8452,-0.8927,-0.9591,-1.0175,-1.0656,-1.1057,-1.1369,-1.1592,-1.1638,-1.1604,-1.1604,-1.1681,-1.1604,-1.1584,-1.1584,-1.1584,-1.1638,-1.1739,-1.178,-1.187,-1.1932,-1.1864,-1.1692,-1.1531,-1.1302,-1.0989,-1.0637,-1.0143,-0.9886,-0.9786,-0.9765,-0.9717,-0.9628,-0.9473,-0.9663,-0.9872,-0.9524,-0.9635,-0.9963,-1.0342,-1.1202,-1.2124,-1.2302,-1.2444,-1.2488,-1.2295,-1.2745,-1.3227,-1.3248,-1.3403,-1.3661,-1.3869,-1.4055,-1.4211,-1.4468,-1.455,-1.4624,-1.478,-1.4926,-1.4931,-1.4604,-1.466,-1.4637,-1.4319,-1.4387,-1.4509,-1.462,-1.4855,-1.5092,-1.5391,-1.5452,-1.5588,-1.5888,-1.5942,-1.6017,-1.6076,-1.6083,-1.6083,-1.6083,-1.6083,-1.6051,-1.5901,-1.5901,-1.5723,-1.5472,-1.5432,-1.5391,-1.5337,-1.512,-1.5011,-1.4996,-1.4685,-1.4593,-1.4694,-1.4694,-1.4835,-1.4896,-1.4261,-1.3964,-1.3822,0.0,0.0,-0.5352,-0.5485,-0.5796,-0.6177,-0.6633,-0.6924,-0.7168,-0.7369,-0.7222,-0.7112,-0.7112,-0.7112,-0.7317,-0.7787,-0.8228,-0.8709,-0.92,-1.0029,-1.0561,-1.0691,-1.1158,-1.1531,-1.178,-1.1651,-1.1651,-1.1786,-1.1651,-1.1584,-1.1584,-1.1584,-1.1584,-1.1597,-1.1732,-1.1719,-1.1604,-1.1739,-1.1667,-1.1382,-1.1261,-1.0989,-1.0623,-1.0021,-1.0004,-1.0206,-0.9759,-0.9688,-0.9774,-0.9558,-1.0058,-1.0666,-1.0133,-1.0495,-1.1256,-1.1869,-1.2826,-1.3475,-1.2316,-1.2787,-1.3406,-1.2824,-1.3057,-1.3464,-1.3707,-1.3939,-1.4139,-1.4251,-1.4292,-1.434,-1.4482,-1.4586,-1.4741,-1.4936,-1.5498,-1.5585,-1.4819,-1.5136,-1.516,-1.4377,-1.4306,-1.436,-1.4502,-1.4794,-1.5092,-1.5391,-1.5499,-1.5696,-1.5894,-1.6044,-1.6076,-1.6083,-1.6083,-1.6083,-1.6083,-1.6083,-1.6051,-1.5901,-1.5901,-1.5778,-1.558,-1.5479,-1.533,-1.5187,-1.5181,-1.5099,-1.4957,-1.4801,-1.4687,-1.4694,-1.4694,-1.4835,-1.495,-1.4728,-1.4434,-1.4021,0.0,0.0,0.0,-0.5577,-0.5808,-0.6038,-0.6321,-0.6673,-0.6963,-0.7166,-0.7265,0.0,0.0,0.0,0.0,0.0,-0.8369,-0.8743,-0.9294,-0.9768,-1.0202,-1.0555,-1.0874,-1.1158,-1.1382,-1.1443,-1.1538,-1.1651,-1.1604,-1.1584,-1.1584,-1.1584,-1.1584,-1.1584,-1.1631,-1.1624,-1.1613,-1.1558,-1.1538,-1.1497,-1.0941,-1.0778,-1.0806,-1.0454,-1.0181,-1.0002,0.0,-1.0189,-0.9886,-0.9588,-0.9835,-1.0235,-0.9988,-1.0316,-1.1048,-1.2278,-1.2978,-1.3401,-1.371,-1.4091,-1.436,-1.4254,-1.451,-1.4836,-1.501,-1.5097,-1.5126,-1.5068,-1.4981,-1.488,-1.4887,-1.5023,-1.5262,-1.5535,-1.575,-1.5914,-1.5884,-1.5936,-1.5825,-1.5481,-1.5241,-1.5059,-1.4965,-1.4785,-1.4875,-1.5371,-1.5459,-1.5635,-1.5988,-1.6105,-1.613,-1.6232,-1.7664,-1.7758,-1.6374,-1.7716,-1.7634,-1.6207,-1.7361,-1.712,-1.5635,-1.6899,-1.6693,-1.533,-1.5228,-1.5153,-1.5099,-1.495,-1.4896,-1.4896,-1.4896,-1.4984,-1.5079,-1.4835,-1.4599,-1.4462,0.0,0.0,0.0,0.0,0.0,0.0,0.0,0.0,0.0,0.0,0.0,0.0,0.0,0.0,0.0,0.0,0.0,-0.8621,-0.9056,-0.949,-0.9897,-1.0236,-1.0595,-1.0846,-1.1084,-1.1131,-1.128,-1.1538,-1.1375,-1.1347,-1.1538,-1.1394,-1.1374,-1.1457,-1.1367,-1.1347,-1.1333,-1.1219,-1.124,-1.1328,-1.0864,-1.0773,-1.0916,-1.0683,-1.0493,0.0,-1.0486,-1.048,-1.036,-0.99,-1.0015,-1.0357,-1.0305,-1.0984,-1.1946,-1.2835,-1.3561,-1.4237,-1.4696,-1.5008,-1.5181,-1.5185,-1.539,-1.557,-1.5682,-1.566,-1.5504,-1.5281,-1.511,-1.492,-1.4759,-1.4905,-1.5164,-1.566,-1.5956,-1.6265,-1.6517,-1.6617,-1.6518,-1.6227,-1.5984,-1.5831,-1.5684,-1.6024,-1.601,-1.5418,-1.5506,-1.5716,-1.6062,-1.6137,-1.6205,-1.6307,-1.7754,-1.7828,-1.6517,-1.7776,-1.7665,-1.6225,-1.74,-1.7138,-1.5635,-1.691,-1.6704,-1.5323,-1.5221,-1.5596,-1.6238,-1.6085,-1.6474,-1.7026,-1.6335,-1.6078,-1.605,-1.522,-1.4869,-1.474,0.0,0.0,0.0,0.0,0.0,0.0,0.0,0.0,0.0,0.0,0.0,0.0,0.0,0.0,0.0,0.0,0.0,0.0,-0.8498,-0.9171,-0.9639,-0.9765,-1.0222,-1.0602,-1.0874,-1.0745,-1.0921,-1.1355,-1.0928,-1.0941,-1.1348,-1.1036,-1.0975,-1.1166,-1.0961,-1.0901,-1.0894,-1.0738,-1.0799,-1.0907,-1.0949,-1.0984,-1.1006,-1.0762,-1.0905,-1.1198,-1.037,-1.0572,-1.111,-1.0479,-1.0634,-1.1106,-1.1106,-1.2377,-1.3839,-1.3565,-1.4667,-1.5876,-1.5324,-1.5529,-1.5914,-1.5645,-1.5673,-1.5793,-1.5741,-1.5614,-1.5354,-1.5019,-1.4859,-1.4635,-1.4211,-1.434,-1.4717,-1.5481,-1.6176,-1.6687,-1.6901,-1.7281,-1.7328,-1.6811,-1.6757,-1.6749,-1.6688,-1.8376,-1.834,-1.5697,-1.5974,-1.6307,-1.6331,-1.6483,-1.6522,-1.6435,-1.6615,-1.6684,-1.6582,-1.6381,-1.6232,-1.6083,-1.6232,-1.6025,-1.5593,-1.5732,-1.5568,-1.5181,-1.5181,-1.6252,-1.7965,-1.7827,-1.89,-2.0418,-1.8626,-1.7892,-1.7732,-1.6101,-1.5419,-1.5197,0.0,0.0,0.0,0.0,0.0,0.0,0.0,0.0,0.0,0.0,0.0,0.0,0.0,0.0,0.0,0.0,0.0,0.0,-0.8505,-0.8879,-0.9197,-0.9483,-0.9815,-1.0134,-1.0446,-1.0514,-1.0663,-1.0894,-1.0778,-1.0745,-1.0887,-1.0779,-1.0765,-1.0833,-1.0759,-1.0745,-1.0732,-1.0616,-1.0767,-1.1096,-1.0643,-1.0849,-1.1382,-1.1355,-1.1294,-1.1208,-1.115,-1.1086,-1.1045,-1.1126,-1.1776,-1.2548,-1.2548,-1.3173,-1.3961,-1.4278,-1.5065,-1.5894,-1.5989,-1.639,-1.6764,-1.6725,-1.6729,-1.6685,-1.6558,-1.6495,-1.632,-1.5836,-1.6382,-1.6463,-1.4846,-1.5926,-1.7274,-1.7982,-1.7598,-1.7877,-1.9917,-1.9048,-1.8753,-2.0122,-2.01,-1.983,-1.9595,-1.9862,-1.9193,-1.7132,-1.977,-2.0957,-1.9792,-2.0041,-1.9447,-1.7917,-1.9127,-1.8988,-1.7357,-1.6639,-1.6232,-1.6133,-1.765,-1.7429,-1.5642,-1.7262,-1.6979,-1.5181,-1.5181,-1.5524,-1.6088,-1.5931,-1.6259,-1.6872,-1.7716,-1.8032,-1.8179,-1.9196,-1.9558,-1.949,0.0,0.0,0.0,0.0,0.0,0.0,0.0,0.0,0.0,0.0,0.0,0.0,0.0,0.0,0.0,0.0,0.0,0.0,0.0,-0.8669,-0.8912,-0.9178,-0.9469,-0.9707,-0.9914,-1.0032,-1.0209,-1.0393,-1.0326,-1.0426,-1.0616,-1.0454,-1.0427,-1.0527,-1.042,-1.0393,-1.038,-1.0422,-1.0547,0.0,0.0,-1.0984,-1.1389,-1.1619,-1.1583,-1.148,-1.1476,-1.1727,-1.2059,-1.2077,-1.2588,-1.3246,-1.3401,-1.3928,-1.4562,-1.4952,-1.5626,-1.6292,-1.6453,-1.682,-1.7112,-1.7112,-1.7011,-1.6882,-1.6631,-1.6453,-1.6344,-1.6225,-1.6219,-1.6084,-1.5605,-1.648,-1.7415,-1.7894,-1.8072,-1.8938,-2.1311,-2.0678,-2.0478,-2.1933,-2.1846,-2.128,-2.0242,-2.1672,-2.2275,-2.1411,-2.1133,-2.0617,-1.979,-2.0038,-1.9521,-1.8093,-1.8955,-1.9083,-1.8375,-1.6989,-1.7171,-1.8821,-1.8137,-1.801,-1.8304,-1.8592,-1.835,-1.7779,-1.7779,-1.8349,-1.9227,-1.9248,-1.9257,-1.9227,-1.9482,-1.8964,-1.8152,-1.8431,-1.8524,-1.8622,0.0,0.0,0.0,0.0,0.0,0.0,0.0,0.0,0.0,0.0,0.0,0.0,0.0,0.0,0.0,0.0,0.0,0.0,0.0,0.0,-0.875,-0.8906,-0.9205,-0.939,-0.941,-0.951,-0.9677,-0.9934,-0.9798,-0.9964,-1.0337,-1.0049,-1.0001,-1.0154,-1.0008,-0.9961,-0.9954,-1.0205,-1.0341,-1.0416,-1.1057,-1.1302,-1.1321,0.0,-1.1806,-1.1782,-1.1589,-1.2264,-1.3223,-1.2921,-1.3222,-1.3736,-1.3961,-1.4643,-1.5351,-1.5593,-1.6201,-1.6849,-1.6874,-1.6987,-1.7145,-1.7145,-1.6922,-1.6647,-1.6349,-1.5934,-1.5785,-1.6332,-1.5359,-1.4858,-1.6333,-1.6674,-1.6817,-1.7122,-1.8529,-2.023,-2.2121,-2.2116,-2.2307,-2.3493,-2.3179,-2.2372,-2.0966,-2.4097,-2.6217,-2.6257,-2.1799,-1.9227,-1.9691,-1.9868,-1.9597,-1.8697,-1.8623,-1.9061,-2.0033,-1.8224,-1.9072,-2.2477,-1.887,-1.8793,-2.1802,-1.9972,-1.9866,-2.1159,-2.113,-2.21,-2.3751,-2.3999,-2.3967,-2.3613,-2.2373,-2.0667,-1.8668,-1.7258,-1.6744,-1.694,0.0,0.0,0.0,0.0,0.0,0.0,0.0,0.0,0.0,0.0,-0.7303,-0.7538,0.0,0.0,0.0,0.0,0.0,0.0,0.0,0.0,0.0,-0.8906,-0.9103,-0.9281,-0.941,-0.9437,-0.9449,-0.9496,-0.9469,-0.9496,-0.9601,-0.9523,-0.951,-0.9573,-0.9639,-0.9656,-0.9693,-1.0114,-1.0458,-1.0753,-1.1149,-1.1467,-1.1705,-1.177,0.0,0.0,-1.1774,-1.206,-1.2548,-1.2921,-1.3985,-1.5106,-1.4901,-1.5301,-1.5926,-1.63,-1.6714,-1.7096,-1.725,-1.7315,-1.7339,-1.7339,-1.686,-1.6349,-1.6096,-1.5472,-1.5135,-1.6004,-1.5861,-1.5803,-1.6467,-1.7857,-1.9037,-1.9579,-2.1243,-2.292,-2.4293,-2.3305,-2.3818,-2.7462,-2.6502,-2.6117,-2.7536,-2.8337,-2.8145,-2.6656,-2.5617,-2.5859,-2.761,-2.8009,-2.6916,-2.4283,-2.4105,-2.3788,-2.3286,-2.2807,-2.2945,-2.3588,-2.2906,-2.2586,-2.2682,-2.2078,-2.1688,-2.1404,-2.1187,0.0,-2.1777,-2.1966,-2.1909,-2.1917,-2.3412,-2.345,-2.2924,-2.441,-2.4821,-2.471,0.0,0.0,0.0,0.0,0.0,0.0,0.0,-0.6035,-0.6653,-0.7058,-0.7621,-0.7926,-0.782,-0.8071,0.0,0.0,0.0,0.0,0.0,0.0,0.0,-0.8791,-0.896,-0.911,-0.9288,-0.9369,-0.9422,-0.9503,0.0,-0.9571,-0.9503,-0.9503,-0.9456,-0.9417,-0.9544,-0.9612,-0.9618,-1.0093,-1.0391,-1.0581,-1.0906,-1.1246,-1.1557,-1.1557,0.0,0.0,-1.1806,-1.2125,-1.2605,-1.2767,-1.3923,-1.5212,-1.513,-1.5536,-1.6128,-1.6812,-1.699,-1.7036,-1.7534,-1.7461,-1.7242,-1.7242,-1.6706,-1.6031,-1.5667,-1.4889,-1.453,-1.5298,-1.4853,-1.4669,-1.595,-1.7646,-1.8943,-1.9303,-2.0572,-2.2576,-2.5719,-2.3613,-2.3642,-2.8745,-2.753,-2.6802,-2.7979,-2.9155,-2.9415,-2.8537,-2.9495,-2.9596,-2.8335,-2.8082,-2.7315,-2.5751,-2.521,-2.5231,-2.5787,-2.4528,-2.4996,-2.7095,-2.4948,-2.4783,-2.6384,-2.5039,-2.4624,-2.4955,-2.4666,-2.4439,-2.4283,-2.4505,-2.3944,-2.3049,-2.4084,-2.3714,-2.2642,-2.3617,-2.3863,-2.3924,0.0,0.0,0.0,0.0,0.0,0.0,0.0,-0.5581,-0.6478,-0.6791,-0.7716,-0.8307,-0.818,-0.8392,-0.8555,0.0,0.0,0.0,0.0,0.0,0.0,0.0,0.0,-0.9035,-0.9207,0.0,0.0,0.0,-0.9673,0.0,0.0,0.0,0.0,0.0,-0.9544,-0.9612,-0.9618,-1.0093,-1.0308,0.0,0.0,-1.0967,0.0,0.0,0.0,0.0,0.0,-1.2134,-1.2564,-1.2564,-1.3435,-1.4546,-1.4735,-1.5408,-1.625,-1.6958,-1.7063,-1.7044,-1.7656,-1.7494,-1.7169,-1.7169,-1.6501,-1.5772,-1.5302,-1.4387,-1.3879,-1.466,-1.3681,-1.3345,-1.5411,-1.7131,-1.8313,-1.8674,-1.9844,-2.2223,-2.6503,-2.3744,-2.3519,-2.9479,-2.8018,-2.6974,-2.8178,-2.9888,-3.0873,-3.0873,-3.2448,-3.1932,-2.8506,-2.7833,-2.7508,-2.7365,-2.661,-2.6914,-2.8399,-2.6521,-2.7191,-3.0414,-2.7143,-2.7136,-2.9891,-2.792,-2.7574,-2.8394,-2.7921,-2.7468,-2.7187,-2.7317,-2.648,-2.5116,-2.5116,-2.4098,-2.2643,-2.2426,-2.2336,-2.2525,0.0,0.0,0.0,0.0,0.0,0.0,0.0,-0.4549,-0.5611,-0.566,-0.7311,-0.8378,-0.8061,-0.847,-0.8741,0.0,0.0,0.0,0.0,0.0,0.0,0.0,0.0,0.0,0.0,0.0,0.0,0.0,0.0,0.0,0.0,0.0,0.0,0.0,0.0,0.0,-0.9618,-1.0093,0.0,0.0,0.0,0.0,0.0,0.0,0.0,0.0,0.0,-1.1847,-1.1953,-1.2223,-1.2645,-1.3058,-1.3433,-1.4958,-1.6511,-1.643,-1.6844,-1.7356,-1.7421,-1.7396,-1.7364,-1.7364,-1.6454,-1.5504,-1.5245,-1.4006,-1.3194,-1.43,-1.3384,-1.3066,-1.5379,-1.6958,-1.8257,-1.9239,-2.1601,-2.4086,-2.6498,-2.4209,-2.4678,-3.1092,-2.8911,-2.8421,-3.2435,-3.3,-3.31,-3.31,-3.3314,-3.3213,-3.2799,-3.2749,-3.2618,-3.233,-3.2041,-3.1802,-3.1658,-3.1225,-3.1175,-3.1569,-3.1175,-3.0938,-3.0756,-3.0057,-2.9554,-2.9145,-2.8145,-2.7694,0.0,-2.7488,-2.7287,-2.7137,-2.7137,-2.6856,-2.6506,-2.6482,-2.6283,-2.6163,0.0,0.0,0.0,0.0,0.0,0.0,-0.2359,-0.3548,-0.4744,-0.584,-0.6791,-0.7611,-0.8233,-0.8502,-0.8609,0.0,0.0,0.0,0.0,0.0,0.0,0.0,0.0,0.0,0.0,0.0,0.0,0.0,0.0,0.0,0.0,0.0,0.0,0.0,0.0,0.0,0.0,-0.9882,0.0,0.0,0.0,0.0,0.0,0.0,0.0,0.0,0.0,0.0,-1.1831,-1.1939,-1.2369,-1.2807,-1.2873,-1.3993,-1.5423,-1.6105,-1.6511,-1.6877,-1.7526,-1.7469,-1.7193,-1.7052,-1.6242,-1.5375,-1.497,-1.3804,-1.2914,-1.3274,-1.2776,-1.2628,-1.3685,-1.5209,-1.6991,-1.8982,-1.9175,-2.0829,-2.5861,-2.2056,-2.178,-3.0108,-2.8222,-2.8326,-3.3737,-3.3734,-3.3414,-3.3414,-3.3414,-3.3414,-3.3414,-3.3414,-3.336,-3.324,-3.2835,-3.2541,-3.242,-3.1952,-3.1711,-3.1711,-3.1711,-3.1569,-3.1365,-3.0955,-3.0398,-2.9739,-2.911,-2.8569,0.0,-2.7772,-2.7692,-2.7793,-2.7517,-2.7307,-2.7222,-2.7222,-2.7054,-2.6849,0.0,0.0,0.0,0.0,0.0,-0.1103,-0.1431,-0.2421,-0.3614,-0.4875,-0.5871,-0.6778,-0.764,-0.8119,-0.8377,-0.8375,0.0,0.0,0.0,0.0,0.0,0.0,0.0,0.0,0.0,0.0,0.0,-0.9958,0.0,0.0,0.0,0.0,0.0,0.0,0.0,0.0,0.0,0.0,0.0,0.0,0.0,0.0,0.0,0.0,0.0,0.0,0.0,0.0,0.0,0.0,0.0,-1.254,-1.2442,-1.3124,-1.4168,-1.5463,-1.6024,-1.6405,-1.7218,-1.7242,-1.6939,-1.6704,-1.6056,-1.5318,-1.4765,-1.3747,-1.2913,-1.2653,-1.2499,-1.2418,-1.2572,-1.4057,-1.6102,-1.8628,-1.7556,-1.8716,-2.5466,-2.0755,-1.9817,-2.839,-2.6639,-2.6988,-3.2699,-3.3327,-3.3414,-3.3414,-3.3414,-3.3414,-3.3414,-3.3414,-3.3414,-3.3414,-3.2902,-3.2594,-3.2594,-3.2005,-3.1711,-3.1711,-3.1711,-3.1711,-3.1711,-3.1356,-3.0876,-3.0261,-2.9821,-2.9261,0.0,-2.8146,-2.8132,-2.841,-2.7818,-2.7694,-2.7828,-2.752,-2.7259,-2.709,0.0,0.0,0.0,0.0,0.0,0.0,-0.0026,-0.1202,-0.2097,-0.2062,-0.4422,-0.6066,-0.5939,-0.7221,-0.8116,-0.811,0.0,0.0,0.0,0.0,0.0,0.0,0.0,0.0,0.0,0.0,-0.9971,-1.0276,-1.0089,-1.0096,0.0,0.0,0.0,0.0,0.0,0.0,0.0,0.0,0.0,0.0,0.0,0.0,0.0,0.0,0.0,0.0,0.0,0.0,0.0,0.0,0.0,0.0,0.0,-1.2378,-1.3066,-1.4359,-1.5318,-1.6047,-1.6267,-1.6542,-1.6728,-1.6397,-1.591,-1.5325,-1.4565,-1.388,-1.3248,-1.271,-1.2596,-1.2596,-1.2596,-1.4024,-1.5986,-1.833,-1.7749,-1.9175,-2.5504,-2.1217,-1.9796,-2.6283,-2.4255,-2.4248,-2.9161,-3.1911,-3.3414,-3.3414,-3.3414,-3.3414,-3.3414,-3.3414,-3.3414,-3.3414,-3.2902,-3.2594,-3.2594,-3.2005,-3.1711,-3.1711,-3.1711,-3.1711,-3.1711,-3.1356,-3.1062,-3.0722,-2.9958,-2.9443,0.0,-2.87,-2.8805,-2.9217,-2.8432,-2.8483,-2.8857,-2.7804,-2.7413,-2.7377,0.0,0.0,0.0,0.0,0.0,0.0,0.0,-0.0383,-0.0992,-0.1934,-0.2828,-0.4043,-0.584,-0.636,-0.7065,-0.8206,0.0,0.0,0.0,0.0,0.0,0.0,0.0,0.0,0.0,0.0,-1.0049,-1.0315,-1.0331,-1.0378,-1.0419,-1.0276,0.0,0.0,0.0,0.0,0.0,0.0,0.0,0.0,0.0,0.0,0.0,0.0,0.0,0.0,0.0,0.0,0.0,0.0,0.0,0.0,0.0,0.0,0.0,-1.3051,-1.414,-1.5171,-1.5342,-1.5658,-1.578,-1.5333,-1.4992,-1.4581,-1.399,-1.3522,-1.31,-1.2808,-1.2653,-1.2637,-1.2726,-1.3202,-1.4968,-1.9257,-1.7519,-1.7758,-2.3778,-2.1694,-2.1284,-2.6021,-2.9091,-3.12,-3.2101,-3.3499,-3.4082,-3.3454,-3.3414,-3.3414,-3.3414,-3.3414,-3.3414,-3.3414,-3.304,-3.2795,-3.2594,-3.2158,-3.1864,-3.1711,-3.1711,-3.1711,-3.1711,-3.157,-3.137,-3.1076,-3.0584,-3.0259,-2.9968,-2.9273,-2.9177,-2.9481,-2.9077,-2.8745,-2.8409,-2.8294,-2.775,-2.709,0.0,0.0,0.0,0.0,0.0,0.0,0.0,0.0,-0.0313,-0.1196,-0.1713,-0.2832,-0.5019,-0.5602,-0.6462,-0.8075,0.0,0.0,0.0,0.0,0.0,0.0,0.0,0.0,0.0,-0.9886,-1.0116,-1.0534,-1.0561,-1.0663,-1.0826,-1.0716,-1.0439,-1.0103,0.0,0.0,0.0,0.0,0.0,0.0,0.0,0.0,0.0,0.0,0.0,0.0,0.0,0.0,0.0,0.0,0.0,0.0,0.0,0.0,0.0,0.0,-1.3092,-1.3993,-1.444,-1.4879,-1.5114,-1.4708,-1.4464,-1.4213,-1.3714,-1.3417,-1.3133,-1.2856,-1.2743,-1.2702,-1.2783,-1.2913,-1.4249,-1.7954,-1.6553,-1.6745,-2.1767,-2.142,-2.2036,-2.5775,-3.0153,-3.2658,-3.2118,-3.3384,-3.4015,-3.3454,-3.3414,-3.3414,-3.3414,-3.3414,-3.3414,-3.3414,-3.3133,-3.2888,-3.2594,-3.2251,-3.1957,-3.1711,-3.1711,-3.1711,-3.1711,-3.1711,-3.1503,-3.1209,-3.0915,-3.0621,0.0,-2.9883,-2.9794,-3.0037,-2.9816,-2.9445,-2.9073,-2.8917,-2.8377,-2.7661,0.0,0.0,0.0,0.0,0.0,0.0,0.0,0.0,0.0,0.0,-0.0979,-0.2244,-0.3711,-0.4885,-0.6207,-0.7732,0.0,0.0,0.0,0.0,0.0,0.0,0.0,0.0,-0.9785,-0.9812,-1.0177,-1.0901,-1.0786,-1.0989,-1.1402,-1.1295,-1.0921,-1.0324,-1.0304,0.0,0.0,0.0,0.0,0.0,0.0,0.0,0.0,0.0,0.0,0.0,0.0,0.0,0.0,0.0,0.0,0.0,0.0,0.0,0.0,0.0,0.0,0.0,0.0,-1.4164,-1.4529,-1.429,-1.418,-1.3985,-1.3593,-1.3449,0.0,-1.2856,-1.2799,-1.2815,-1.2872,-1.3141,-1.384,-1.5344,-1.5293,-1.6281,-1.9854,-2.0808,-2.2429,-2.5886,-2.8418,-2.986,-2.9905,-3.2029,-3.3414,-3.3414,-3.3414,-3.3414,-3.3414,-3.3414,-3.3414,-3.3414,-3.3146,-3.2915,-3.2621,-3.2278,-3.1984,-3.1751,-3.1724,-3.1711,-3.1711,-3.1711,-3.1503,0.0,-3.0915,-3.0621,-3.04,-3.0386,-3.056,-3.0776,-3.0589,-3.052,-3.0413,-2.9636,-2.9169,-2.8798,0.0,0.0,0.0,0.0,0.0,0.0,0.0,0.0,0.0,0.0,-0.0235,-0.1265,-0.3425,-0.4072,-0.5207,0.0,0.0,0.0,0.0,0.0,0.0,0.0,0.0,0.0,-0.9785,-1.0053,-1.0371,-1.0738,-1.1084,-1.1348,-1.1565,-1.1531,-1.1253,-1.0745,-1.0548,-1.0276,0.0,0.0,0.0,0.0,0.0,0.0,0.0,0.0,0.0,0.0,0.0,-1.052,0.0,0.0,0.0,0.0,0.0,0.0,0.0,0.0,-1.1987,-1.2199,-1.2378,0.0,-1.3164,-1.2881,-1.2945,-1.3026,0.0,-1.2897,-1.3059,-1.2735,-1.2743,-1.2969,-1.3547,-1.3271,-1.4146,-1.7845,-1.6867,-1.6792,-2.0206,-2.2833,-2.5612,-2.8852,-3.1152,-3.1866,-3.0258,-3.2095,-3.3414,-3.3414,-3.3414,-3.3414,-3.3414,-3.3414,-3.3414,-3.3414,-3.3347,-3.3173,-3.2929,-3.2634,-3.234,-3.1998,-3.1818,-3.1711,-3.1711,-3.1711,-3.1503,-3.1209,-3.0915,-3.0621,-3.0386,-3.0114,-3.0327,-3.0795,-3.0736,-3.0617,-3.046,-3.0054,-2.9492,-2.8856,0.0,0.0,0.0,0.0,0.0,0.0,0.0,0.0,0.0,0.0,0.0,0.0,0.0,0.0,0.0,0.0,0.0,0.0,0.0,0.0,0.0,0.0,0.0,-0.968,-0.9785,-1.0053,-1.0419,-1.0921,-1.124,-1.1572,-1.1925,-1.1857,-1.1545,-1.1023,-1.0514,-1.017,0.0,0.0,0.0,0.0,0.0,0.0,0.0,0.0,0.0,0.0,-1.0004,-1.0308,0.0,-1.1149,-1.1464,-1.1723,0.0,0.0,0.0,0.0,-1.1841,-1.1914,-1.1914,-1.2483,-1.3059,-1.2913,-1.3034,-1.3139,-1.3059,-1.2938,-1.2857,-1.271,-1.2702,-1.2905,-1.3539,-1.3547,-1.4211,-1.6614,-1.6404,-1.7179,-2.0777,-2.2916,-2.5658,-2.9744,-3.1214,-3.1882,-3.168,-3.2699,-3.3414,-3.3414,-3.3414,-3.3414,-3.3414,-3.3414,-3.3414,-3.3414,-3.3414,-3.3213,-3.2835,-3.2808,-3.2514,-3.1904,-3.1877,-3.1797,-3.1711,-3.1711,-3.1583,-3.141,-3.0982,-3.0782,-3.0728,-3.0301,-3.0461,-3.0996,-3.0996,-3.0903,-3.0788,-3.0676,-3.0162,-2.9534,0.0,0.0,0.0,0.0,0.0,0.0,0.0,0.0,0.0,0.0,0.0,0.0,0.0,0.0,0.0,0.0,0.0,0.0,0.0,0.0,0.0,0.0,0.0,-0.972,-0.989,-0.9988,-1.0393,-1.1166,-1.1348,-1.1728,-1.225,-1.2227,-1.1846,-1.1166,-1.0447,-1.0085,0.0,0.0,0.0,0.0,0.0,0.0,0.0,0.0,0.0,0.0,0.0,0.0,0.0,-1.0965,-1.1292,-1.1588,-1.1995,0.0,0.0,0.0,0.0,0.0,-1.1969,-1.2735,-1.3433,-1.3342,-1.3463,-1.3609,-1.366,-1.3157,-1.2759,-1.2815,-1.2751,-1.2857,-1.3425,-1.3863,-1.4205,-1.4432,-1.5751,-1.8087,-2.1972,-2.3126,-2.5243,-2.9768,-3.0507,-3.1277,-3.2749,-3.3213,-3.3414,-3.3414,-3.3414,-3.3414,-3.3414,-3.3414,-3.3414,-3.3414,-3.3374,-3.3093,-3.2594,-3.2888,-3.2559,-3.1744,-3.1984,-3.1944,-3.1711,-3.1711,-3.1684,-3.157,-3.1036,0.0,-3.1116,-3.0528,-3.0635,-3.1156,-3.1156,-3.1136,-3.1176,-3.1176,-3.0915,-3.0469,0.0,0.0,0.0,0.0,0.0,0.0,0.0,0.0,0.0,0.0,0.0,0.0,0.0,0.0,0.0,0.0,0.0,0.0,0.0,0.0,0.0,-0.9761,-0.9771,-0.9917,-1.0202,-1.0236,-1.0487,-1.0948,-1.1469,-1.1877,-1.2139,-1.2461,-1.2101,-1.1186,-1.088,-1.0569,-1.0256,0.0,0.0,0.0,0.0,0.0,0.0,0.0,0.0,0.0,0.0,0.0,0.0,-1.0426,-1.0911,-1.1479,-1.1455,0.0,0.0,0.0,0.0,0.0,-1.2686,-1.3344,-1.3539,-1.2361,-1.2831,-1.3415,-1.2718,-1.2946,-1.3248,-1.3084,-1.3035,-1.3271,-1.4115,-1.4091,-1.4343,-1.5521,-1.8249,-2.1377,-2.4726,-2.7003,-2.881,-3.0081,-3.1831,-3.2347,-3.0823,-3.2347,-3.3414,-3.3414,-3.3414,-3.3414,-3.3414,-3.3414,-3.3414,-3.3414,-3.3173,-3.2929,-3.2594,-3.2888,-3.2666,-3.2038,-3.2078,-3.1944,-3.1711,-3.1711,-3.153,-3.1276,0.0,-3.0822,-3.0808,-3.0221,-3.0327,-3.0862,-3.0862,-3.1009,-3.1176,-3.1176,-3.1169,-3.0929,0.0,0.0,0.0,0.0,0.0,0.0,0.0,0.0,0.0,0.0,0.0,0.0,0.0,0.0,0.0,0.0,0.0,0.0,0.0,0.0,0.0,-1.0035,-1.0141,-1.0215,-1.0308,-1.0521,-1.0867,-1.1387,-1.1864,-1.2237,-1.2581,-1.2338,-1.178,-1.1036,-1.0806,-1.0541,-1.0322,-1.0432,0.0,0.0,0.0,0.0,0.0,0.0,0.0,0.0,0.0,0.0,0.0,0.0,-1.076,-1.115,-1.1348,0.0,0.0,0.0,0.0,0.0,-1.2303,-1.2986,-1.3368,-1.232,-1.3222,-1.4278,-1.3925,-1.362,-1.3549,-1.4037,-1.3725,-1.3601,-1.4395,-1.4765,-1.535,-1.6647,-1.8137,-2.0271,-2.3481,-2.3914,-2.5468,-2.9551,-2.9956,-3.0445,-3.1781,-3.2799,-3.3414,-3.3414,-3.3414,-3.3414,-3.3414,-3.3414,-3.3414,-3.3414,-3.3133,-3.2969,-3.2835,-3.2808,-3.25,-3.1877,-3.2024,-3.1944,-3.1711,-3.1711,-3.1644,-3.1436,-3.0996,-3.0889,-3.0969,-3.0221,-3.0261,-3.0782,-3.0621,-3.0835,-3.1176,-3.1176,-3.133,-3.1336,0.0,0.0,0.0,0.0,0.0,0.0,0.0,0.0,0.0,0.0,0.0,0.0,0.0,0.0,0.0,0.0,0.0,0.0,0.0,0.0,-0.9412,-1.0191,-1.0103,-1.0215,-1.0541,-1.0846,-1.1293,-1.1884,-1.2223,-1.2589,-1.2989,-1.2291,-1.1617,-1.1009,-1.0772,-1.0567,-1.0376,-1.0521,-1.0643,0.0,0.0,0.0,0.0,0.0,0.0,0.0,0.0,0.0,0.0,0.0,0.0,0.0,0.0,0.0,0.0,-1.1795,-1.1778,-1.1776,-1.21,-1.2686,-1.3134,-1.2767,-1.3709,-1.4765,-1.4952,-1.4245,-1.3891,-1.4917,-1.4489,-1.4087,-1.4667,-1.5455,-1.6405,-1.753,-1.8726,-2.0109,-2.2067,-2.1918,-2.3691,-2.9222,-2.856,-2.9167,-3.305,-3.3414,-3.3414,-3.3414,-3.3414,-3.3414,-3.3414,-3.3414,-3.3414,-3.3414,-3.3066,-3.2929,-3.2929,-3.2567,-3.2193,-3.1818,-3.1998,-3.1944,-3.1711,-3.1711,-3.1684,-3.153,-3.1022,-3.0915,-3.1062,-3.0247,-3.0221,-3.0675,-3.0493,-3.0715,-3.1236,-3.1303,-3.1476,-3.1644,0.0,0.0,0.0,0.0,0.0,0.0,0.0,0.0,0.0,0.0,0.0,0.0,0.0,0.0,0.0,0.0,0.0,0.0,0.0,0.0,-0.8296,-0.9942,-0.9196,-0.9565,-1.1266,-1.1341,-1.1586,-1.2084,-1.2481,-1.2786,-1.2996,-1.261,-1.206,-1.1355,-1.122,-1.0907,-1.0493,-1.0759,-1.0806,-1.0698,0.0,0.0,0.0,0.0,0.0,0.0,0.0,0.0,0.0,0.0,0.0,0.0,0.0,0.0,-1.1799,-1.1799,-1.167,-1.1776,-1.2971,-1.2979,-1.2841,-1.3587,-1.388,-1.4026,-1.4213,-1.4188,-1.4375,-1.5285,-1.5155,-1.4925,-1.4974,-1.5951,-1.7028,-1.7989,-2.1954,-2.4332,-2.2623,-2.5939,-2.8873,-2.9619,-2.9845,-3.0861,-3.3163,-3.3414,-3.3414,-3.3414,-3.3414,-3.3414,-3.3414,-3.3414,-3.3414,-3.3414,-3.2915,-3.2621,-3.2621,-3.2059,-3.1851,-3.2064,-3.2091,-3.1944,-3.1711,-3.1711,-3.1517,-3.1236,-3.0929,-3.0808,-3.0782,-3.0167,-3.01,-3.044,-3.0413,-3.0715,-3.1263,-3.153,-3.1698,-3.1671,0.0,0.0,0.0,0.0,0.0,0.0,0.0,0.0,0.0,0.0,0.0,0.0,0.0,0.0,0.0,0.0,0.0,0.0,0.0,-0.8184,-0.8549,-1.0125,-1.009,-1.0359,-1.1076,-1.1572,-1.2111,-1.2662,-1.2921,-1.299,-1.2989,-1.2499,-1.1968,-1.1382,-1.1138,-1.088,-1.0649,-1.0826,-1.0934,-1.0995,-1.0928,0.0,0.0,0.0,0.0,0.0,0.0,0.0,0.0,0.0,-1.0125,-1.0419,-1.0466,-1.1007,-1.162,-1.1603,-1.171,-1.1931,-1.241,-1.28,-1.3126,-1.3214,-1.3904,-1.4643,-1.4944,-1.4919,-1.5187,-1.6422,-1.6211,-1.5829,-1.5992,-1.6722,-1.7408,-1.7786,-2.1034,-2.3385,-2.2736,-2.4187,-2.6465,-2.9646,-2.8917,-2.9533,-3.305,-3.3414,-3.3414,-3.3414,-3.3414,-3.3414,-3.3414,-3.3414,-3.3334,-3.3146,-3.2808,-3.2594,-3.2594,-3.2005,-3.181,-3.2104,-3.1917,-3.1818,-3.1711,-3.1476,-3.133,-3.1196,-3.0728,-3.0574,-3.0501,-3.0333,-3.0154,-3.0114,-3.0488,-3.0768,-3.1009,-3.149,-3.1711,-3.1698,0.0,0.0,0.0,0.0,0.0,0.0,0.0,0.0,0.0,0.0,0.0,0.0,0.0,0.0,0.0,0.0,0.0,0.0,-0.8069,-0.803,-0.8633,-1.0139,-1.013,-1.0422,-1.1049,-1.1681,-1.2275,-1.2792,-1.3071,-1.3091,-1.2846,-1.2383,-1.1982,-1.1586,-1.124,-1.1022,-1.0968,-1.0982,-1.105,-1.109,-1.1002,-1.0806,0.0,0.0,0.0,0.0,0.0,0.0,0.0,0.0,-0.9998,-1.0183,-1.0332,-1.0871,-1.1451,-1.15,-1.1862,-1.2264,-1.2321,-1.2775,-1.3214,-1.3254,-1.3993,-1.4909,-1.5463,-1.5715,-1.6112,-1.7315,-1.6933,-1.6479,-1.6779,-1.7274,-1.7651,-1.7867,-2.0458,-2.2313,-2.1818,-2.24,-2.4417,-2.856,-2.78,-2.8608,-3.3,-3.3414,-3.3414,-3.3414,-3.3414,-3.3414,-3.3414,-3.332,-3.3187,-3.2986,-3.2648,-3.246,-3.246,-3.1965,-3.177,-3.1957,-3.1805,-3.1711,-3.1711,-3.1463,-3.1316,-3.1162,-3.0808,-3.0574,-3.04,-3.04,-3.0181,-2.998,-3.0568,-3.0795,-3.0849,-3.1343,-3.1583,-3.1698,0.0,0.0,0.0,0.0,0.0,0.0,0.0,0.0,0.0,0.0,0.0,0.0,0.0,0.0,0.0,0.0,0.0,0.0,-0.6891,-0.7397,-0.8382,-0.9915,-0.898,-0.9364,-1.1369,-1.1674,-1.1942,-1.2291,-1.2921,-1.2935,-1.2494,-1.2352,-1.2241,-1.2077,-1.1592,-1.1477,-1.1592,-1.1329,-1.1084,-1.0928,-1.1104,-1.0927,0.0,0.0,0.0,0.0,0.0,0.0,0.0,0.0,-0.9913,-0.9873,-1.0344,-1.0881,-1.1329,-1.1478,-1.2099,-1.284,-1.3035,-1.2962,-1.3018,-1.3953,-1.4225,-1.4518,-1.5584,-1.6479,-1.7274,-1.7819,-1.7218,-1.6763,-1.7299,-1.7534,-1.7781,-1.841,-2.0774,-2.1876,-1.9808,-2.1457,-2.3804,-2.6296,-2.6775,-2.8596,-3.2936,-3.335,-3.3414,-3.34,-3.34,-3.3414,-3.34,-3.3133,-3.2973,-3.2973,-3.2398,-3.2104,-3.2104,-3.181,-3.1711,-3.1711,-3.1711,-3.1711,-3.1711,-3.1711,-3.1503,-3.1223,-3.1176,-3.0889,-3.04,-3.04,-3.0181,-2.998,-3.0568,-3.0795,-3.0822,-3.1116,-3.141,-3.1671,0.0,0.0,0.0,0.0,0.0,0.0,0.0,0.0,0.0,0.0,0.0,0.0,0.0,0.0,0.0,0.0,0.0,0.0,-0.8178,-0.7885,-0.8269,-0.965,-0.9811,-1.0104,-1.0609,-1.1212,-1.1877,-1.2564,-1.2569,-1.2488,-1.2352,-1.2234,-1.1993,-1.1748,-1.1714,-1.1552,-1.1329,-1.1234,-1.1234,-1.1253,-1.122,-1.1023,0.0,0.0,0.0,0.0,0.0,0.0,0.0,0.0,0.0,0.0,-1.0109,-1.0806,-1.1518,-1.1132,-1.1661,-1.2319,-1.2032,-1.2483,-1.3141,-1.3633,-1.4846,-1.6048,-1.6747,-1.721,-1.7732,-1.8826,-1.833,-1.7754,-1.7908,-1.8192,-1.833,-1.8111,-2.0596,-2.1831,-1.9643,-2.1303,-2.3041,-2.4005,-2.5494,-2.7481,-3.033,-3.2118,-3.3026,-3.2862,-3.2986,-3.3013,-3.2862,-3.2768,-3.2634,-3.2372,-3.2198,-3.2011,-3.1797,-3.1764,-3.1711,-3.1711,-3.1711,-3.1711,-3.1711,-3.145,-3.1196,-3.0902,-3.0702,-3.0394,-3.0047,-3.0047,-3.0114,-3.0306,-3.0648,-3.0795,-3.0822,-3.1116,-3.1276,-3.1316,0.0,0.0,0.0,0.0,0.0,0.0,0.0,0.0,0.0,0.0,-0.0767,-0.1271,0.0,0.0,0.0,0.0,0.0,0.0,0.0,-0.8242,-0.866,-0.9721,-1.0096,-1.0412,-1.0662,-1.1192,-1.1748,-1.2253,-1.2169,-1.2081,-1.2026,-1.2115,-1.206,-1.1891,-1.2033,-1.1884,-1.1547,-1.1363,-1.1308,-1.1329,-1.1234,-1.1077,-1.0894,0.0,0.0,0.0,0.0,0.0,0.0,0.0,0.0,0.0,-0.997,-1.0499,-1.1077,-1.1167,-1.1721,-1.2339,-1.2516,-1.3084,-1.3782,-1.4395,-1.5448,-1.6657,-1.777,-1.8103,-1.8412,-1.924,-1.8696,-1.807,-1.807,-1.8257,-1.8347,-1.816,-1.9836,-2.0753,-1.9462,-2.0479,-2.1772,-2.285,-2.4887,-2.702,-2.9197,-3.1501,-3.2781,-3.2607,-3.2755,-3.2781,-3.2607,-3.2487,-3.2291,-3.2104,-3.1984,-3.1851,-3.1711,-3.1711,-3.1711,-3.1711,-3.1711,-3.1711,-3.1711,-3.1356,-3.1129,-3.0942,-3.0587,-3.0306,-3.0087,-2.9967,-3.0087,-3.0426,-3.06,-3.0688,-3.0795,-3.0862,-3.1022,-3.1183,0.0,0.0,0.0,0.0,0.0,0.0,0.0,0.0,0.0,0.0,-0.1762,-0.228,0.0,0.0,0.0,0.0,0.0,0.0,0.0,0.0,-0.9396,-0.9957,-1.0062,-1.042,-1.1179,-1.1436,-1.1536,-1.1558,-1.1665,-1.1671,-1.157,-1.206,-1.2264,-1.2257,-1.2413,-1.2298,-1.1989,-1.1518,-1.1274,-1.1138,-1.1152,-1.1036,-1.086,-1.0732,0.0,0.0,0.0,0.0,0.0,0.0,0.0,0.0,-0.9967,-1.0073,-1.0345,-1.1342,-1.1977,-1.2616,-1.3676,-1.4152,-1.4622,-1.5667,-1.6064,-1.6671,-1.8525,-1.8972,-1.9069,-1.9338,-1.8615,-1.7997,-1.8014,-1.8005,-1.8095,-1.8475,-1.8825,-1.9069,-1.9281,-1.9394,-2.0233,-2.2255,-2.4644,-2.6904,-2.8879,-3.1184,-3.2541,-3.2514,-3.2541,-3.2541,-3.2514,-3.2211,-3.2064,-3.2064,-3.181,-3.1711,-3.1711,-3.1711,-3.1711,-3.1711,-3.1711,-3.1711,-3.1711,-3.1383,-3.1249,-3.1196,-3.0608,-3.04,-3.0386,-3.0034,-3.0074,-3.0373,-3.04,-3.0574,-3.0728,-3.0533,-3.0728,-3.1156,0.0,0.0,0.0,0.0,0.0,0.0,0.0,0.0,0.0,0.0,0.0,0.0,0.0,0.0,0.0,0.0,0.0,0.0,0.0,0.0,-0.9596,-0.9832,-1.0407,-1.0846,-1.1193,-1.1261,-1.1206,-1.1056,-1.1233,-1.1355,-1.145,-1.1934,-1.2047,-1.1908,-1.2216,-1.2009,-1.137,-1.1002,-1.0778,-1.0649,-1.0765,-1.0724,-1.0602,-1.065,-1.0427,0.0,0.0,0.0,0.0,0.0,0.0,0.0,-0.9967,-1.0249,-1.0559,-1.0433,-1.1263,-1.2229,-1.211,-1.3138,-1.4424,-1.5173,-1.6576,-1.7867,-1.8483,-1.8939,-1.9379,-1.9851,-1.9175,-1.859,-1.8728,-1.8639,-1.8574,-1.8655,-1.8964,-1.9265,-1.9306,-1.9338,-1.9511,-1.9998,-2.3346,-2.581,-2.6296,-2.9904,-3.2104,-3.1925,-3.2064,-3.2104,-3.1912,-3.1845,-3.1805,-3.1805,-3.1751,-3.1711,-3.1711,-3.1711,-3.1711,-3.1711,-3.1711,-3.1711,-3.1711,-3.1644,-3.145,-3.1196,-3.0608,-3.04,-3.0386,-3.0034,-2.9953,-3.0034,-3.0319,-3.044,-3.052,-3.0635,-3.0782,-3.0875,0.0,0.0,0.0,0.0,0.0,0.0,0.0,0.0,0.0,0.0,0.0,0.0,0.0,0.0,0.0,0.0,0.0,0.0,0.0,-0.9523,-0.9626,-1.0032,-1.059,-1.0914,-1.0948,-1.0948,-1.0914,-1.0806,-1.0839,-1.1063,-1.1402,-1.1962,-1.2162,-1.2125,-1.2318,-1.2013,-1.1355,-1.0989,-1.0711,-1.0602,-1.0609,-1.0609,-1.0595,-1.0534,-1.0285,-0.9977,-0.9934,0.0,0.0,0.0,0.0,0.0,0.0,0.0,-1.0135,-1.0442,-1.0897,-1.1493,-1.2144,-1.3156,-1.4346,-1.5643,-1.7039,-1.8079,-1.8176,-1.8476,-1.8866,-1.9151,-1.8931,-1.8728,-1.8728,-1.8655,-1.8623,-1.8712,-1.8956,-1.9208,-1.9297,-1.9306,-1.9306,-1.9306,-2.2075,-2.4407,-2.5416,-2.8488,-3.0759,-3.1629,-3.181,-3.1824,-3.1724,-3.1711,-3.1711,-3.1711,-3.1711,-3.1711,-3.1711,-3.1711,-3.1711,-3.1711,-3.1711,-3.1711,-3.1711,-3.1517,-3.1303,-3.0996,-3.0702,-3.0533,-3.04,-3.0194,-3.0127,-3.014,-3.0346,-3.04,-3.044,-3.0688,-3.0795,-3.0808,0.0,0.0,0.0,0.0,0.0,0.0,0.0,0.0,0.0,0.0,0.0,0.0,0.0,0.0,0.0,0.0,0.0,0.0,0.0,-0.9496,-0.9676,-1.027,-1.0623,-1.0786,-1.0691,-1.0697,-1.0697,-1.0684,-1.0595,-1.0894,-1.1592,-1.204,-1.2338,-1.2501,-1.2474,-1.2121,-1.1511,-1.1029,-1.0718,-1.0555,-1.0453,-1.0473,-1.0508,-1.0324,-1.0141,-0.9961,-0.9839,-0.9792,-0.9792,-0.9792,0.0,0.0,0.0,0.0,-0.9667,-1.0605,-1.0702,-1.0847,-1.2429,-1.3426,-1.4506,-1.6303,-1.7319,-1.7924,-1.7957,-1.8095,-1.8271,-1.8271,-1.8436,-1.8582,-1.8483,-1.8475,-1.8556,-1.8696,-1.8874,-1.9045,-1.9281,-1.9306,-1.9306,-1.9306,-2.1103,-2.3238,-2.5319,-2.7395,-2.929,-3.1033,-3.1521,-3.1379,-3.0652,-3.1331,-3.1521,-3.1189,-3.1521,-3.1711,-3.1711,-3.1711,-3.1711,-3.1711,-3.1711,-3.1711,-3.1711,-3.1356,-3.1089,-3.0862,-3.0808,-3.0621,-3.04,-3.0346,-3.0333,-3.0333,-3.0386,-3.04,-3.044,-3.0742,-3.0862,-3.0902,0.0,0.0,0.0,0.0,0.0,0.0,0.0,0.0,0.0,0.0,-0.1716,-0.2626,-0.3255,-0.5015,0.0,0.0,0.0,0.0,-0.9562,0.0,0.0,-1.0308,-1.0453,-1.0609,-1.0684,-1.0588,-1.0588,-1.0684,-1.0664,-1.126,-1.2352,-1.2213,-1.2275,-1.2494,-1.2372,-1.1948,-1.1227,-1.0744,-1.0317,-0.992,-1.0035,-1.0008,-0.992,-1.0015,-0.9954,-0.9819,-0.9798,-0.9792,-0.9792,-0.9792,-0.9792,0.0,0.0,0.0,-0.9781,-0.9944,-1.0461,-1.1045,-1.1294,-1.3003,-1.4979,-1.6281,-1.7274,-1.7957,-1.8103,-1.8328,-1.8467,-1.8467,-1.8369,-1.8241,-1.8217,-1.8394,-1.8556,-1.8696,-1.8874,-1.9045,-1.9281,-1.9306,-1.9306,-1.9306,-2.1103,-2.3238,-2.5319,-2.7395,-2.8716,-2.9003,-3.07,-3.0115,-2.6528,-2.9733,-3.089,-2.9051,-3.0747,-3.1711,-3.1711,-3.1711,-3.1711,-3.1711,-3.1711,-3.1711,-3.1711,-3.1356,-3.1162,-3.1156,-3.0902,-3.0621,-3.0386,-3.0087,-2.998,-3.0007,-3.0306,-3.04,-3.0467,-3.0969,-3.1169,-3.1122,0.0,0.0,0.0,0.0,0.0,0.0,0.0,0.0,0.0,0.0,0.0,-0.3372,-0.4132,-0.5838,0.0,0.0,0.0,0.0,-0.9469,-0.9724,0.0,-1.0019,-1.0249,-1.0365,-1.0312,-1.0245,-1.0285,-1.0473,-1.0353,-1.1049,-1.2501,-1.2372,-1.2739,-1.3485,-1.3003,-1.2451,-1.1742,-1.0955,-1.0412,-1.0066,-0.9934,-1.0204,-1.0643,-1.0089,-1.0195,-1.0507,-0.9998,-0.9792,-0.9792,-0.9792,-0.9792,-0.9792,-0.9792,0.0,0.0,0.0,-0.9964,-1.0559,-1.1908,-1.3212,-1.46,-1.6297,-1.6877,-1.7136,-1.7624,-1.7721,-1.7754,-1.7957,-1.7859,-1.7827,-1.8119,-1.8288,-1.8402,-1.8541,-1.872,-1.8866,-1.8948,-1.9045,-1.9069,-1.8972,-2.0773,-2.2827,-2.4923,-2.6931,-2.8125,-2.8208,-2.9123,-2.8913,-2.7175,-2.8917,-3.0067,-3.0306,-3.1236,-3.1711,-3.1711,-3.1711,-3.1711,-3.1711,-3.1711,-3.1711,-3.1711,-3.1356,-3.1176,-3.1176,-3.1089,-3.0782,-3.0426,-3.0568,-3.0461,-3.0207,-3.0662,-3.0742,-3.0675,-3.1263,-3.1263,-3.1009,0.0,0.0,0.0,0.0,0.0,0.0,0.0,0.0,0.0,0.0,0.0,0.0,-0.5457,0.0,0.0,0.0,0.0,0.0,-0.9342,0.0,0.0,0.0,0.0,-1.0107,-0.9961,-0.9961,-1.0035,-1.0222,-1.015,-1.0968,-1.2623,-1.2698,-1.339,-1.455,-1.3756,-1.303,-1.2237,-1.1369,-1.0812,-1.0519,-1.0297,-1.067,-1.1274,-1.0711,-1.0921,-1.1417,-1.0487,-1.0161,0.0,0.0,0.0,0.0,0.0,-0.9693,0.0,0.0,0.0,-1.0004,-1.2005,-1.2877,-1.3709,-1.5617,-1.61,-1.6344,-1.706,-1.7177,-1.7201,-1.751,-1.7478,-1.7518,-1.7957,-1.8079,-1.8231,-1.8467,-1.8566,-1.8671,-1.872,-1.8834,-1.8866,-1.8736,-1.9998,-2.1925,-2.4565,-2.5647,-2.6455,-2.7051,-2.724,-2.6873,-2.5914,-2.7545,-2.8964,-2.9899,-3.0983,-3.1557,-3.1557,-3.1684,-3.1684,-3.1557,-3.1684,-3.1671,-3.1543,-3.133,-3.1142,-3.1009,-3.1009,-3.0715,-3.0333,-3.0795,-3.0702,-3.0346,-3.0889,-3.0942,-3.0742,-3.1263,-3.1169,-3.0808,0.0,0.0,0.0,0.0,0.0,0.0,0.0,0.0,0.0,0.0,0.0,0.0,-0.7059,-0.8016,-0.8702,-0.8871,0.0,0.0,0.0,0.0,0.0,0.0,0.0,0.0,-0.9805,-0.9805,-0.9879,-1.0028,-1.0331,-1.1314,-1.2982,-1.322,-1.4068,-1.5316,-1.4421,-1.3418,-1.2271,-1.1881,-1.1518,-1.1159,-1.126,-1.1253,-1.1295,-1.206,-1.2393,-1.2318,-1.1451,0.0,0.0,0.0,0.0,0.0,0.0,-0.9612,-0.9585,0.0,0.0,0.0,-1.05,-1.1355,-1.2337,-1.3777,-1.4963,-1.5934,-1.6666,-1.6955,-1.7169,-1.7364,-1.7396,-1.7445,-1.7587,-1.7765,-1.8046,-1.8442,-1.8508,-1.8525,-1.8696,-1.8736,-1.8688,-1.868,-1.8768,-2.0419,-2.4424,-2.3159,-2.2922,-2.4801,-2.5047,-2.3368,-1.94,-2.499,-2.7346,-2.5221,-2.9099,-3.1249,-3.1249,-3.153,-3.153,-3.1249,-3.153,-3.1517,-3.1249,-3.1236,-3.0929,-3.0453,-3.0453,-3.0266,-2.9967,-3.0274,-3.0221,-2.9993,-3.0581,-3.0635,-3.0467,-3.0728,-3.0822,-3.0755,0.0,0.0,0.0,0.0,0.0,0.0,0.0,0.0,0.0,0.0,0.0,0.0,0.0,-0.8429,-0.9091,-0.8905,-0.9022,0.0,0.0,0.0,0.0,0.0,0.0,0.0,-0.9792,-0.9792,-0.9866,-0.9984,-1.0028,-1.0806,-1.2244,-1.2549,-1.3146,-1.3973,-1.3939,-1.3634,-1.3085,-1.207,-1.1599,-1.145,-1.1409,-1.1762,-1.2349,-1.2281,-1.2691,-1.322,0.0,0.0,0.0,0.0,0.0,0.0,-0.9537,-0.9462,-0.9415,-0.9171,-0.9232,-0.9641,-1.0695,-1.1242,-1.1926,-1.3699,-1.4765,-1.5602,-1.6477,-1.699,-1.7339,-1.751,-1.7364,-1.7266,-1.7445,-1.7721,-1.7997,-1.828,-1.8426,-1.8483,-1.8379,-1.8476,-1.8509,-1.8387,-1.9492,-2.0834,-2.2261,-2.2922,-2.3014,-2.2447,-2.2586,-2.2064,-2.0659,-2.423,-2.654,-2.7016,-2.9738,-3.1176,-3.1176,-3.133,-3.1423,-3.1517,-3.1623,-3.1657,-3.1503,-3.1316,-3.1116,-3.0902,-3.0715,-3.0368,-2.9967,-3.0635,-3.0742,-3.0515,-3.0915,-3.1129,-3.1256,-3.1363,-3.1116,-3.0782,0.0,0.0,0.0,0.0,0.0,0.0,0.0,0.0,0.0,-0.5876,0.0,0.0,0.0,0.0,-0.9361,-0.9082,-0.9206,-0.926,-0.926,0.0,0.0,0.0,0.0,0.0,-0.9866,-0.9866,-0.9913,-0.9984,-0.9967,-1.0561,-1.1651,-1.1993,-1.2508,-1.3214,-1.3166,-1.3294,-1.3524,-1.2617,0.0,-1.2081,0.0,0.0,-1.3152,-1.3207,-1.3614,-1.4075,0.0,0.0,0.0,0.0,0.0,0.0,0.0,-0.965,-0.9288,-0.898,-0.911,-0.9538,-1.0495,-1.0883,-1.1491,-1.3382,-1.4194,-1.4863,-1.6177,-1.6625,-1.6893,-1.7319,-1.7182,-1.7096,-1.7339,-1.7583,-1.7819,-1.8054,-1.8288,-1.8361,-1.8239,-1.8328,-1.8361,-1.8239,-1.9323,-2.0381,-2.1028,-2.1665,-2.1803,-2.1167,-2.0666,-2.0456,-2.055,-2.3524,-2.6398,-2.9074,-3.0318,-3.0929,-3.0929,-3.1129,-3.133,-3.1517,-3.1671,-3.1623,-3.1517,-3.1423,-3.1263,-3.1076,-3.1089,-3.0755,-3.0261,-3.0896,-3.1049,-3.0822,-3.1116,-3.1289,-3.1417,-3.1417,-3.1129,-3.0795,0.0,0.0,0.0,0.0,0.0,0.0,0.0,0.0,-0.763,-0.767,0.0,0.0,0.0,0.0,0.0,-0.9415,-0.9437,-0.943,-0.9424,-0.9537,0.0,0.0,0.0,0.0,-1.0028,-1.0028,-1.0028,-1.0028,-1.0202,-1.0649,-1.1369,-1.1624,-1.2271,-1.3132,-1.2223,-1.2449,-1.3531,-1.3403,-1.32,-1.3071,0.0,-1.3605,-1.3573,0.0,0.0,0.0,-1.403,-1.3506,0.0,-1.2519,0.0,0.0,0.0,-1.013,-0.9172,-0.8994,-0.909,-0.9354,0.0,0.0,0.0,-1.2719,-1.313,-1.3657,-1.574,-1.5845,-1.5788,-1.6836,-1.6882,-1.6882,-1.7299,-1.7372,-1.7494,-1.7843,-1.8046,-1.816,-1.8214,-1.8214,-1.8168,-1.8223,-1.8223,-1.896,-2.0844,-1.9323,-1.896,-2.0899,-1.9466,-1.8499,-1.8508,-2.2774,-2.6897,-3.061,-3.0528,-3.0426,-3.0426,-3.0942,-3.1176,-3.1236,-3.153,-3.1517,-3.1249,-3.153,-3.1356,-3.0849,-3.147,-3.139,-3.0835,-3.1116,-3.1062,-3.0835,-3.1116,-3.1062,-3.0822,-3.0822,-3.0808,-3.0808,0.0,0.0,0.0,0.0,0.0,-0.4506,-0.5714,-0.6949,-0.8122,0.0,0.0,0.0,-0.9713,-0.9805,-0.9879,-0.9839,-0.9964,-0.9937,-0.9713,-0.9741,-0.9731,-0.9731,-0.9913,-1.0069,-1.0215,-1.0215,-1.0215,-1.0215,-1.0116,-1.0299,-1.0744,-1.0901,-1.1389,-1.2047,-1.2013,-1.2182,-1.2461,-1.2023,0.0,-1.339,-1.2793,-1.3214,0.0,0.0,0.0,0.0,0.0,-1.5367,-1.4852,0.0,-1.3315,-1.2266,0.0,0.0,-0.9644,-0.9622,-0.9899,-1.0244,-1.0362,0.0,0.0,0.0,0.0,0.0,-1.4066,-1.457,-1.509,-1.5602,-1.5788,-1.6073,-1.669,-1.7015,-1.7266,-1.7494,-1.7681,-1.7835,-1.7973,-1.7989,-1.8038,-1.816,-1.8223,-1.8401,-1.896,-1.8541,-1.8458,-1.9155,-1.875,-1.8556,-1.8647,-2.2805,-2.6235,-2.8486,-3.0113,-3.0889,-3.0675,-3.1036,-3.133,-3.1543,-3.1671,-3.1671,-3.1557,-3.1684,-3.1631,-3.1483,-3.1644,-3.1631,-3.1423,-3.1276,-3.1183,-3.1116,-3.1196,-3.1303,-3.1423,-3.1423,-3.1289,-3.1102,0.0,0.0,0.0,0.0,0.0,-0.5952,-0.7817,-0.8746,-0.9493,0.0,0.0,0.0,-1.0385,-1.0542,-1.0596,-1.0375,-1.0414,-1.0337,-1.0032,-0.992,-0.9859,-0.9792,-1.0055,-1.0276,-1.0365,-1.0493,-1.0527,-1.0466,-1.0278,-1.029,-1.0405,-1.0555,-1.0812,-1.1151,-1.1302,-1.1526,-1.1778,-1.1111,0.0,0.0,-1.3576,0.0,0.0,-1.574,-1.6241,0.0,0.0,0.0,-1.5927,-1.565,-1.4599,0.0,0.0,-1.1416,-1.0752,-1.0587,-1.0875,0.0,0.0,0.0,0.0,-1.2526,0.0,0.0,-1.4075,-1.4318,-1.4578,-1.5309,-1.561,-1.5821,-1.6284,-1.6714,-1.6995,-1.7145,-1.7307,-1.7465,-1.7724,-1.7757,-1.7843,-1.794,-1.8022,-1.807,-1.807,-1.8135,-1.8296,-1.8483,-1.8573,-1.9055,-2.0175,-2.251,-2.5092,-2.7803,-2.9071,-3.0111,-3.0969,-3.1142,-3.137,-3.1711,-3.1711,-3.1711,-3.1711,-3.1711,-3.1711,-3.1711,-3.1711,-3.1711,-3.1698,-3.1476,-3.141,-3.141,-3.141,-3.1517,-3.1711,-3.1711,-3.1557,-3.141,0.0,0.0,-0.3308,-0.5949,-0.6837,-0.8074,-1.0661,-1.1177,-1.1199,0.0,-1.1049,-1.1144,-1.1424,-1.1592,-1.1529,-1.1144,-1.0914,-1.069,-1.0378,-1.015,-0.9974,-0.9819,-1.0263,-1.05,-1.0514,-1.0786,-1.0853,-1.0684,-1.0582,-1.0446,-1.0304,-1.0419,-1.0466,-1.0466,-1.0337,-1.0649,-1.1233,-1.0704,0.0,-1.2615,-1.4841,-1.5605,0.0,0.0,-1.797,-1.7554,-1.7555,-1.7209,-1.6757,-1.6801,-1.5769,0.0,0.0,-1.331,-1.2297,-1.1715,-1.199,0.0,-1.2582,-1.2633,0.0,0.0,-1.3492,0.0,-1.4773,-1.4481,-1.4164,-1.5243,-1.5593,-1.574,-1.5837,-1.6299,-1.6671,-1.6687,-1.6866,-1.7193,-1.757,-1.7627,-1.7635,-1.7651,-1.7797,-1.794,-1.7916,-1.8054,-1.828,-1.8483,-1.8639,-1.9697,-2.1893,-2.1948,-2.3615,-2.7262,-2.7639,-2.8775,-3.0835,-3.1109,-3.141,-3.1711,-3.1711,-3.1711,-3.1711,-3.1711,-3.1711,-3.1711,-3.1711,-3.1711,-3.1711,-3.1711,-3.1711,-3.1711,-3.1711,-3.1711,-3.1711,-3.1711,-3.1711,-3.1711,0.0,-0.3177,-0.4311,-0.5166,-0.7366,-0.9249,-1.0033,-1.1003,-1.1735,-1.183,-1.1952,-1.2264,-1.2895,-1.2583,-1.2345,-1.2341,-1.1773,-1.1232,-1.0813,-1.0453,-1.0168,-0.9981,-1.0317,-1.0548,-1.067,-1.0968,-1.0989,-1.0684,-1.0657,-1.0602,-1.0453,-1.0397,-1.0356,-1.0356,-1.0322,-1.0397,-1.058,-1.1404,0.0,-1.3144,-1.3533,0.0,-1.5804,-1.8663,-1.901,-1.8191,-2.032,-1.9871,-1.82,-1.7742,-1.6847,-1.5714,0.0,0.0,-1.3664,-1.2831,0.0,-1.4239,-1.3938,-1.4164,-1.4358,-1.3852,0.0,0.0,-1.2921,-1.3188,-1.3561,-1.3296,-1.3598,-1.4115,-1.4838,-1.5375,-1.5821,-1.5959,-1.6381,-1.6958,-1.7754,-1.7822,-1.7916,-1.8054,-1.8103,-1.807,-1.7932,-1.7949,-1.8103,-1.8475,-1.8753,-1.9093,-1.9405,-2.1075,-2.2298,-2.2839,-2.6332,-2.8349,-2.8693,-3.0634,-3.1657,-3.1711,-3.1711,-3.1711,-3.1711,-3.1711,-3.1711,-3.1711,-3.1711,-3.1711,-3.1711,-3.1711,-3.1711,-3.1711,-3.1711,-3.1711,-3.1711,-3.1711,-3.1711,-3.1711,0.0,-0.4644,-0.6094,-0.7251,-0.8788,-1.0222,-1.129,-1.1978,-1.2474,-1.2737,-1.3057,-1.3349,-1.3498,-1.3308,-1.3085,-1.2868,-1.2298,-1.1762,-1.1279,-1.0826,-1.0475,-1.0245,-1.0487,-1.0711,-1.0934,-1.12,-1.124,-1.113,-1.1016,-1.0826,-1.0602,-1.0534,-1.0747,-1.1187,-1.0694,-1.0967,-1.1783,-1.1584,-1.2065,-1.3068,-1.4502,0.0,-1.7054,-1.9294,-2.0262,-2.0603,-2.1869,-2.2151,-2.1811,-2.0872,-1.9581,0.0,0.0,-1.6041,-1.5341,0.0,-1.4841,-1.5433,0.0,-1.4976,-1.5049,-1.4773,0.0,0.0,0.0,-1.3601,-1.3633,-1.3777,-1.3728,-1.3855,-1.4578,-1.5,-1.5333,-1.5601,-1.6097,-1.6665,-1.7254,-1.7307,-1.7315,-1.7494,-1.7591,-1.7648,-1.7656,-1.7729,-1.7932,-1.8337,-1.8613,-1.872,-1.868,-1.989,-2.0948,-2.1848,-2.4146,-2.581,-2.6779,-2.9025,-3.0163,-3.0163,-3.1175,-3.1711,-3.1711,-3.1711,-3.1711,-3.1711,-3.1711,-3.1711,-3.1711,-3.1711,-3.1711,-3.1711,-3.1711,-3.1711,-3.1711,-3.1711,-3.1711,-3.1711,0.0,-0.6304,-0.7974,-0.9563,-1.0326,-1.1221,-1.2755,-1.305,-1.3227,-1.3566,-1.4143,-1.4373,-1.3971,-1.4031,-1.3916,-1.3561,-1.2935,-1.2433,-1.2037,-1.1482,-1.1036,-1.0765,-1.0812,-1.0962,-1.1234,-1.1355,-1.145,-1.1455,-1.1302,-1.1029,-1.0732,-1.0732,-1.1172,-1.1888,-1.133,-1.181,-1.2984,-1.1972,0.0,-1.3515,0.0,-1.7624,-1.7796,-2.0088,-2.1663,-2.2671,-2.3059,-2.4038,-2.5044,-2.3503,-2.2176,-2.0783,-1.8915,-1.8194,0.0,0.0,0.0,0.0,0.0,0.0,0.0,0.0,0.0,-1.4986,0.0,0.0,0.0,-1.4599,-1.4253,-1.4034,-1.4473,-1.47,-1.4919,-1.5252,-1.5756,-1.6186,-1.6412,-1.6422,-1.6495,-1.6768,-1.702,-1.7234,-1.7283,-1.7271,-1.7497,-1.803,-1.8133,-1.8233,-1.855,-1.8736,-1.9655,-2.1357,-2.1987,-2.3082,-2.4819,-2.7324,-2.8608,-2.8608,-3.07,-3.1711,-3.1711,-3.1711,-3.1711,-3.1724,-3.173,-3.1805,-3.1805,-3.1858,-3.1858,-3.1744,-3.1738,-3.1711,-3.1711,-3.1711,-3.1711,-3.1711,-0.6464,-0.7943,-0.9331,-0.9675,-1.1209,-1.2562,-1.2935,-1.318,-1.36,-1.4292,-1.4909,-1.5262,-1.5215,0.0,0.0,0.0,0.0,0.0,-1.3551,0.0,-1.1999,-1.1658,-1.1443,-1.1328,-1.1362,-1.1518,-1.1367,-1.0988,-1.1118,-1.1084,-1.0887,-1.0887,-1.1016,-1.1344,-1.2052,-1.234,-1.2278,0.0,-1.4482,0.0,-1.873,-1.8104,0.0,-2.1896,-2.309,-2.2048,-2.4328,-2.5319,-2.5105,0.0,-2.2532,-2.2554,0.0,-1.9702,-2.1758,0.0,0.0,0.0,0.0,0.0,0.0,0.0,-1.6527,0.0,0.0,0.0,-1.4735,-1.3793,0.0,0.0,0.0,0.0,0.0,-1.4484,0.0,0.0,-1.5234,-1.5447,-1.5943,-1.6712,-1.7238,-1.736,-1.6914,-1.6453,-1.6598,-1.7578,-1.7136,-1.7153,-1.7965,-1.8168,-1.848,-1.888,-2.0812,-2.2087,-2.2461,-2.656,-2.8608,-2.8608,-3.07,-3.1711,-3.1711,-3.1711,-3.1711,-3.1724,-3.1944,-3.2051,-3.2078,-3.238,-3.234,-3.2024,-3.177,-3.1711,-3.1711,-3.1711,-3.1711,-3.1711,-0.8209,-0.9425,0.0,-1.1052,-1.1866,-1.2583,-1.2955,-1.3878,-1.4679,-1.4991,-1.5661,-1.6123,0.0,0.0,0.0,0.0,0.0,-1.436,0.0,0.0,0.0,-1.182,-1.1884,-1.183,-1.1647,-1.1671,-1.1611,-1.1421,-1.126,-1.1166,-1.107,-1.0955,-1.1447,-1.2425,-1.2631,-1.3349,-1.4407,0.0,-1.4764,0.0,0.0,0.0,0.0,-2.4151,-2.6502,-2.7051,-2.874,-2.9333,-2.9004,0.0,-2.5957,0.0,0.0,0.0,0.0,0.0,0.0,0.0,0.0,0.0,0.0,0.0,0.0,0.0,-1.5388,0.0,-1.4562,0.0,0.0,0.0,0.0,0.0,0.0,0.0,-1.467,0.0,0.0,-1.4968,-1.5455,-1.6146,0.0,-1.6363,-1.6347,-1.6323,-1.6584,-1.7101,-1.6812,-1.6925,-1.7668,-1.8022,-1.8255,-1.8337,-1.9422,-2.0093,-2.0324,-2.3282,-2.5469,-2.6817,-2.8907,-3.0557,-3.1711,-3.1711,-3.1757,-3.1931,-3.2051,-3.2198,-3.242,-3.2541,-3.2527,-3.2393,-3.2273,-3.2126,-3.1944,-3.2166,-3.2219,-3.2206,-0.9859,0.0,0.0,-1.1975,-1.223,-1.2603,-1.322,-1.438,-1.5303,-1.5506,-1.6246,0.0,-1.6456,-1.6612,0.0,0.0,-1.5886,-1.5357,0.0,0.0,-1.3356,-1.2503,-1.2488,0.0,0.0,-1.1979,-1.1898,-1.1898,-1.1484,-1.1363,-1.1438,-1.1179,-1.1744,-1.3024,-1.3329,-1.4279,-1.5653,0.0,-1.5631,-1.6538,-1.8049,-2.0777,-2.4258,-2.6845,-2.9342,-3.1552,-3.2074,-3.2278,-3.203,-2.9893,-2.8584,0.0,-2.5873,0.0,0.0,0.0,0.0,0.0,-1.9181,0.0,0.0,0.0,0.0,0.0,0.0,0.0,0.0,0.0,0.0,0.0,0.0,0.0,0.0,0.0,0.0,-1.4627,0.0,-1.4586,0.0,0.0,0.0,0.0,-1.5975,-1.6016,-1.6211,-1.6696,-1.643,-1.6609,-1.7518,-1.7859,-1.8054,-1.8103,-1.846,-1.8736,-1.8907,-2.1015,-2.2974,-2.4688,-2.7359,-2.9386,-3.0843,-3.1506,-3.1904,-3.2104,-3.2278,-3.2465,-3.2728,-3.2795,-3.2781,-3.2728,-3.2795,-3.2648,-3.2358,-3.2541,-3.2594,-3.2567,-1.1214,-1.1649,0.0,0.0,-1.2287,-1.3017,-1.3899,-1.4448,-1.5018,-1.5792,0.0,0.0,0.0,0.0,0.0,0.0,0.0,-1.6931,-1.6463,0.0,-1.4848,-1.4245,0.0,-1.2975,0.0,0.0,-1.2091,-1.2091,-1.1755,-1.1755,-1.2064,-1.1586,-1.1708,-1.2408,-1.4294,-1.4957,-1.4772,-1.6902,-1.7968,-1.8656,-2.3438,-2.8989,-3.3922,0.0,-3.074,-3.366,-3.2853,0.0,0.0,-2.9319,-2.9151,0.0,0.0,0.0,0.0,0.0,0.0,0.0,0.0,0.0,0.0,-1.8892,0.0,0.0,0.0,0.0,-1.5707,0.0,0.0,0.0,0.0,0.0,0.0,0.0,0.0,0.0,0.0,0.0,0.0,0.0,0.0,0.0,0.0,-1.5067,-1.5043,-1.6487,-1.578,-1.5861,-1.7323,-1.7559,-1.7692,-1.7916,-1.832,-1.855,-1.8728,-2.0952,-2.2248,-2.2564,-2.6624,-2.8608,-2.8764,-3.1033,-3.2091,-3.2131,-3.2706,-3.2959,-3.2986,-3.3267,-3.3213,-3.2986,-3.328,-3.32,-3.2919,-3.2701,-3.2594,-3.2594,0.0,0.0,0.0,0.0,0.0,-1.2983,-1.4183,-1.5086,-1.5893,0.0,0.0,0.0,0.0,-1.8496,-1.8685,0.0,0.0,-1.8341,-1.7193,-1.6461,0.0,0.0,0.0,-1.4064,0.0,0.0,-1.2956,-1.2696,-1.2352,-1.221,-1.2247,-1.1989,-1.2084,-1.2499,-1.4216,-1.5223,0.0,0.0,0.0,0.0,0.0,-2.8751,-3.2892,0.0,-3.2965,-3.4055,-3.321,-3.2942,0.0,-3.1544,-3.0933,-3.0504,-2.9513,-2.9565,-2.944,-2.7205,-2.7141,0.0,0.0,0.0,-2.5593,-2.1936,0.0,0.0,0.0,0.0,0.0,0.0,0.0,0.0,0.0,0.0,0.0,0.0,0.0,0.0,0.0,0.0,0.0,0.0,0.0,0.0,0.0,0.0,-1.5398,-1.5999,-1.5983,-1.6308,-1.7161,-1.7705,-1.7916,-1.7692,-1.8079,-1.842,-1.872,-2.0816,-2.2067,-2.2466,-2.6624,-2.8608,-2.8668,-3.1033,-3.2211,-3.246,-3.2812,-3.3093,-3.328,-3.3374,-3.336,-3.328,-3.3374,-3.3347,-3.3253,-3.316,-3.312,-3.312,-1.2467,0.0,0.0,0.0,0.0,-1.3471,-1.4397,-1.5719,0.0,0.0,-1.7908,0.0,-1.8848,0.0,-1.9376,0.0,-1.9492,-1.9341,-1.7686,-1.7488,0.0,-1.6728,-1.5968,0.0,0.0,0.0,-1.4026,-1.3562,-1.305,-1.2745,-1.2596,-1.2377,-1.2449,-1.2966,-1.4455,-1.5635,-1.652,-1.792,-1.9499,0.0,0.0,-3.0496,0.0,0.0,-3.4469,-3.4496,0.0,-3.3213,-3.324,-3.2888,-3.2179,-3.151,-3.1744,-3.1236,-3.0339,-2.9225,-2.8938,-2.8523,-2.6697,-2.74,0.0,-2.4555,-2.4549,0.0,-1.9839,0.0,0.0,0.0,0.0,0.0,0.0,0.0,0.0,0.0,0.0,0.0,0.0,-1.3441,0.0,0.0,0.0,0.0,0.0,0.0,-1.5268,-1.5829,-1.5967,-1.6316,0.0,-1.7575,-1.7819,-1.7603,-1.7932,-1.829,-1.872,-2.0045,-2.1289,-2.2417,-2.5851,-2.7888,-2.8668,-3.1137,-3.242,-3.2621,-3.2959,-3.324,-3.3414,-3.3414,-3.3414,-3.3414,-3.3414,-3.3414,-3.3414,-3.3414,-3.3414,-3.3414,0.0,0.0,0.0,0.0,-1.3661,0.0,0.0,0.0,-1.7738,0.0,-1.8832,-1.9376,-2.0006,-2.0064,-1.9876,-1.9612,-2.0246,0.0,-1.8193,-1.8846,0.0,0.0,-1.7296,-1.7406,-1.7215,0.0,0.0,0.0,-1.3846,-1.3397,-1.3234,-1.2785,-1.2959,-1.3712,-1.5043,0.0,-1.7221,-1.8826,-2.1654,-2.5512,-3.0938,-3.4107,-3.5591,-3.5271,-3.5164,-3.5044,-3.3841,-3.3601,-3.3774,-3.32,-3.2848,-3.2567,-3.2238,-3.1931,-3.1631,-3.1022,-3.0849,-3.0648,-2.982,-3.0194,-3.0022,-2.6692,-2.6519,0.0,0.0,0.0,-2.0247,0.0,0.0,0.0,0.0,0.0,0.0,0.0,0.0,0.0,0.0,0.0,0.0,0.0,0.0,0.0,0.0,-1.4518,-1.47,-1.5861,-1.5675,-1.5885,0.0,-1.7201,-1.7469,-1.7603,-1.7851,-1.8217,-1.8696,-1.8857,-2.0087,-2.2446,-2.4504,-2.6539,-2.8548,-3.1102,-3.235,-3.2501,-3.3011,-3.3314,-3.3414,-3.3414,-3.3414,-3.3414,-3.3414,-3.3414,-3.3414,-3.3414,-3.3414,-3.3414,-1.3348,-1.3966,-1.4509,0.0,-1.4489,-1.455,0.0,0.0,0.0,0.0,-1.9824,-2.0693,-2.1234,-2.1436,-2.1298,-2.0731,-2.1584,0.0,0.0,0.0,0.0,-2.0385,-1.907,-1.8483,-1.8931,-1.7565,0.0,-1.5628,0.0,-1.433,-1.4168,-1.3704,-1.377,-1.4323,-1.5398,-1.6315,-1.7122,-1.8697,-2.24,-2.7483,-3.0562,-3.3318,-3.5498,0.0,-3.4817,-3.5044,-3.3841,-3.3467,-3.3507,-3.336,-3.3106,-3.2902,-3.2772,-3.2398,-3.1957,-3.181,-3.161,-3.1443,-3.1216,-3.1323,-3.1162,-2.9826,-2.9191,-2.8163,0.0,0.0,0.0,0.0,0.0,0.0,0.0,0.0,0.0,0.0,0.0,0.0,0.0,0.0,0.0,-1.4131,0.0,0.0,0.0,-1.4343,-1.4757,-1.5212,-1.5658,-1.6201,-1.6963,-1.7258,-1.7526,-1.7789,-1.8282,-1.8712,-1.9118,-2.0799,-2.1974,-2.2772,-2.4611,-2.5853,-2.6478,-2.743,-2.8772,-3.0479,-3.0876,-3.1932,-3.3414,-3.3414,-3.3414,-3.3414,-3.3414,-3.3414,-3.3414,-3.3414,-3.3414,-3.3414,-1.4007,0.0,0.0,-1.5859,0.0,0.0,-1.6474,-1.724,0.0,-1.9174,-2.012,0.0,-2.1234,-2.1844,-2.203,-2.1681,-2.2362,0.0,-2.1404,0.0,0.0,-2.1231,-2.0308,-1.9956,-2.0253,-1.8776,0.0,-1.6904,0.0,0.0,-1.4712,-1.4305,-1.4275,-1.4683,-1.5674,-1.6522,-1.7464,-2.0368,-2.4163,-2.8498,-3.1076,-3.3611,0.0,-3.5124,-3.4937,-3.4897,-3.4095,-3.3801,-3.3788,-3.3668,-3.3507,-3.3334,-3.3066,-3.2746,-3.2438,-3.2185,-3.1984,-3.1837,-3.1751,-3.1711,-3.1631,-3.1263,-3.0808,-3.0,-2.8127,-2.7171,-2.6347,0.0,-2.4312,-2.3479,0.0,0.0,0.0,0.0,0.0,0.0,0.0,0.0,0.0,0.0,-1.412,0.0,0.0,-1.3974,-1.4338,-1.4708,-1.5252,0.0,0.0,-1.695,-1.751,-1.7741,-1.8241,-1.885,-1.9656,-2.0483,-2.2017,-2.4267,-2.4224,-2.5201,-2.7067,-2.6523,-2.7003,-2.8353,-2.9629,-3.0356,-3.0697,-3.2598,-3.2849,-3.2083,-3.305,-3.3414,-3.3414,-3.3414,-3.3414,-3.3414,0.0,0.0,0.0,0.0,0.0,0.0,0.0,-1.8226,0.0,-1.984,0.0,-2.0903,-2.1183,-2.197,-2.2502,-2.2486,0.0,-2.2646,-2.1571,-2.2161,-2.2114,-2.0961,-2.1325,-2.1425,-2.1183,-1.9851,0.0,0.0,0.0,0.0,-1.5085,-1.4762,-1.4683,-1.4977,-1.5816,0.0,0.0,-2.2862,-2.6309,-2.8801,-3.2084,-3.4417,-3.5925,-3.5672,-3.5257,-3.479,-3.4523,-3.4389,-3.4282,-3.4028,-3.3921,-3.3801,-3.3267,-3.304,-3.2879,-3.2358,-3.2185,-3.2104,-3.1898,-3.1805,-3.173,-3.173,-3.1751,-3.1376,-3.006,-2.8731,-2.7883,-2.8429,-2.605,-2.4918,0.0,0.0,0.0,0.0,0.0,0.0,0.0,0.0,0.0,0.0,0.0,0.0,0.0,0.0,0.0,0.0,0.0,0.0,0.0,0.0,-1.7388,-1.7724,-1.8087,-1.8818,-2.0071,-1.9232,-2.1085,-2.5566,-2.3253,-2.4254,-2.7945,-2.6315,-2.5722,-2.6168,-2.8364,-2.8416,-2.717,-3.1012,-3.163,-3.0406,-3.2548,-3.3414,-3.3414,-3.3454,-3.3467,-3.3467,0.0,0.0,0.0,0.0,0.0,-1.9892,-2.0486,-2.1086,-2.1584,-2.1974,-2.3064,-2.3843,-2.3908,-2.3847,-2.3739,-2.3532,-2.3614,0.0,0.0,0.0,0.0,-2.2624,-2.239,-2.2131,-2.175,-2.0652,-1.9445,0.0,0.0,0.0,-1.5512,-1.5131,-1.5238,-1.5626,-1.607,0.0,-1.8845,-2.4148,0.0,-2.8316,-3.2759,-3.4861,-3.5351,-3.5284,-3.5204,-3.511,-3.5057,-3.4736,-3.4309,-3.4269,-3.4082,-3.3868,-3.3761,-3.3387,-3.2959,-3.2853,-3.2701,-3.25,-3.246,-3.226,-3.2024,-3.2024,-3.1851,-3.1644,-3.139,-3.0903,-3.0472,-3.0362,-2.9681,-2.8512,-2.6574,0.0,0.0,0.0,0.0,0.0,0.0,0.0,0.0,0.0,0.0,0.0,0.0,0.0,0.0,0.0,0.0,0.0,0.0,0.0,-1.693,0.0,-1.8598,-1.9021,0.0,0.0,-2.0749,-2.3425,-2.1136,-2.1418,-2.3877,-2.2031,-2.228,-2.4116,-2.4566,-2.5553,-2.6977,-2.7742,-2.8862,-3.0406,-3.2548,-3.3414,-3.344,-3.3708,-3.3801,-3.3761,0.0,0.0,0.0,0.0,0.0,0.0,0.0,-2.3102,-2.3297,-2.2362,-2.2818,-2.3254,-2.3254,-2.3763,-2.4085,-2.3959,-2.3934,-2.3829,-2.3552,-2.3447,-2.3317,-2.3146,-2.27,0.0,-2.2212,-2.1148,-2.0192,-1.9274,0.0,0.0,-1.6201,-1.5757,-1.5521,-1.5528,0.0,-1.8054,0.0,0.0,0.0,-2.9648,-3.209,-3.3967,-3.5191,-3.5191,-3.5191,-3.5191,-3.5191,-3.5017,-3.475,-3.4603,-3.4456,-3.4282,-3.3988,-3.3681,-3.3387,-3.3066,-3.2929,-3.2781,-3.2634,-3.2487,-3.234,-3.2144,-3.1998,-3.1851,-3.1751,-3.1557,-3.133,-3.0889,-3.0675,-2.9907,-2.756,-2.5599,0.0,0.0,0.0,0.0,0.0,0.0,0.0,0.0,0.0,0.0,0.0,0.0,0.0,0.0,0.0,0.0,-1.5569,-1.6064,-1.6852,0.0,0.0,0.0,-2.0052,0.0,-2.0455,-2.3151,-2.079,-2.0796,-2.2841,-2.1037,-2.081,-2.1968,-2.3099,-2.3555,-2.3648,-2.5953,-2.7565,-2.8917,-3.2314,-3.3026,-3.229,-3.3582,-3.4108,-3.4068,0.0,-1.871,0.0,0.0,-2.1583,0.0,-2.3301,-2.4261,-2.4377,-2.2754,-2.2528,-2.2528,-2.2528,-2.3512,-2.417,-2.4129,-2.4129,-2.404,-2.3869,-2.3723,-2.3552,-2.3382,-2.2935,-2.2659,-2.2636,-2.161,-2.0791,0.0,0.0,0.0,0.0,-1.6355,-1.5894,0.0,0.0,0.0,0.0,0.0,-2.7039,-3.1118,-3.1868,-3.3428,-3.5191,-3.5191,-3.5191,-3.5191,-3.5191,-3.5191,-3.5164,-3.4989,-3.4869,-3.4735,-3.4215,-3.4028,-3.3868,-3.3334,-3.3173,-3.3106,-3.2862,-3.2741,-3.2634,-3.2345,-3.2198,-3.2038,-3.181,-3.1764,-3.155,-3.0915,-3.0595,-3.0007,-2.8657,-2.7615,0.0,0.0,0.0,0.0,0.0,0.0,0.0,0.0,0.0,0.0,0.0,0.0,0.0,0.0,0.0,0.0,-1.4862,-1.5853,-1.6953,-1.8052,0.0,-1.9044,-2.0576,0.0,-2.008,-2.2524,-2.0689,-2.0638,-2.2195,-2.0873,-2.032,-2.0424,-2.2123,-2.1942,-2.0691,-2.4635,-2.6316,-2.6942,-3.147,-3.2288,-3.117,-3.355,-3.4416,-3.4402,0.0,0.0,0.0,0.0,0.0,-2.3418,-2.32,-2.4238,-2.4885,-2.4424,-2.4359,-2.4359,-2.4359,-2.4486,-2.4486,-2.4316,-2.4253,-2.4235,-2.4101,-2.4023,-2.3934,-2.3764,-2.3552,-2.3276,-2.296,-2.2098,-2.1173,0.0,0.0,-1.8265,-1.708,-1.6706,0.0,0.0,0.0,0.0,0.0,-2.7414,-3.0127,-3.1402,-3.3577,-3.478,-3.5191,-3.5191,-3.5191,-3.5191,-3.5191,-3.5191,-3.5191,-3.5164,-3.4977,-3.4802,-3.4748,-3.4496,-3.4215,-3.3895,-3.3801,-3.3734,-3.3414,-3.3133,-3.2982,-3.2906,-3.2492,-3.2091,-3.2064,-3.1851,-3.155,-3.0915,-2.994,-2.8868,-2.7963,-2.8337,-2.8444,0.0,0.0,0.0,0.0,0.0,0.0,0.0,0.0,0.0,0.0,-1.7291,0.0,0.0,-1.4952,0.0,-1.5382,-1.5699,-1.7264,-2.0297,-1.9274,-1.9573,-2.1557,-2.0155,-1.951,-1.9651,-1.9747,-1.9886,-2.0105,-2.0261,-2.032,-2.032,-2.0529,-2.0566,-2.0775,-2.3157,-2.4266,-2.4827,-2.9394,-3.1094,-3.1194,-3.3772,-3.4775,-3.4802,0.0,0.0,0.0,0.0,0.0,0.0,0.0,-2.4588,-2.4763,-2.4616,-2.4592,-2.4592,-2.4592,-2.4592,-2.4568,-2.4486,-2.4486,-2.4421,-2.4235,-2.4235,-2.4145,-2.3975,-2.3788,-2.3569,-2.3317,-2.2765,-2.2026,0.0,0.0,-1.9248,-1.7908,-1.7702,-1.7656,0.0,0.0,-2.3136,-2.5398,-2.9065,-3.1638,-3.3447,-3.4583,-3.5097,-3.5191,-3.5191,-3.5191,-3.5191,-3.5191,-3.5191,-3.5191,-3.5191,-3.5124,-3.499,-3.4869,-3.4735,-3.4523,-3.4229,-3.4148,-3.4082,-3.3774,-3.3614,-3.344,-3.3066,-3.2799,-3.2532,-3.2185,-3.2011,-3.1717,-3.0955,-2.9993,-2.9138,-2.8561,-2.8217,-2.8056,-2.8283,0.0,0.0,0.0,0.0,0.0,0.0,0.0,0.0,0.0,0.0,0.0,0.0,0.0,0.0,-1.6823,-1.5939,-1.6676,-1.9389,0.0,-1.9269,-2.1028,-2.0002,-1.9589,-1.9794,-1.9776,-1.9849,-1.9963,-2.0206,-2.032,-2.032,-2.032,-2.0426,-2.0755,-2.2984,-2.3272,-2.2768,-2.7335,-2.9221,-2.9633,-3.203,-3.3834,-3.5044,-2.2364,0.0,-2.2505,0.0,-2.3684,-2.3737,-2.4757,-2.4763,-2.4592,-2.4592,-2.4592,-2.4592,-2.4592,-2.4592,-2.4592,-2.4592,-2.4592,-2.4551,-2.4421,-2.4421,-2.434,-2.4145,-2.4015,0.0,-2.3699,-2.3276,-2.274,-2.2066,-2.1278,0.0,-1.9126,-1.8727,-1.8631,0.0,-2.1542,-2.3928,-2.6335,-2.9646,-3.2151,-3.3941,-3.4847,-3.5191,-3.5191,-3.5191,-3.5191,-3.5191,-3.5191,-3.5191,-3.5191,-3.5191,-3.5191,-3.5164,-3.495,-3.4949,-3.4882,-3.4536,-3.4456,-3.4389,-3.4095,-3.3948,-3.3788,-3.3347,-3.3106,-3.2853,-3.2345,-3.2171,-3.1851,-3.0969,-3.01,-2.9419,-2.9205,-2.8337,-2.7909,-2.8657,0.0,0.0,0.0,0.0,0.0,0.0,0.0,-2.1583,-1.9944,0.0,0.0,0.0,0.0,0.0,0.0,-1.6641,0.0,0.0,0.0,0.0,-2.2006,-2.0509,-1.9776,-1.9876,-1.98,-1.9857,-2.0047,-2.0214,-2.032,-2.032,-2.0377,-2.0867,-2.1773,-2.2716,-2.3143,-2.3566,-2.6776,-2.8531,-2.9585,-3.1906,-3.379,-3.5191,-2.2726,-2.2872,-2.3228,-2.4377,-2.4592,-2.4592,-2.4592,-2.4592,-2.4592,-2.4592,-2.4592,-2.4592,-2.4592,-2.4592,-2.4592,-2.4592,-2.4592,-2.4592,-2.4592,-2.4592,-2.4511,0.0,0.0,-2.4251,-2.4126,-2.3588,-2.3171,-2.2976,0.0,0.0,-2.0556,-1.9713,-1.9297,-1.9421,-2.2104,-2.3563,-2.4356,-2.921,-3.1493,-3.1948,-3.428,-3.5191,-3.5191,-3.5191,-3.5191,-3.5191,-3.5191,-3.5191,-3.5191,-3.5191,-3.5191,-3.5191,-3.5191,-3.5191,-3.5137,-3.4895,-3.4815,-3.4748,-3.4389,-3.4108,-3.3881,-3.3881,-3.3427,-3.2955,-3.2661,-3.2367,-3.1851,-3.0969,-3.01,-2.9486,-2.9486,-2.8991,-2.8497,-2.8245,0.0,0.0,0.0,0.0,0.0,0.0,-2.4893,-2.2834,-2.1679,-2.2872,0.0,0.0,0.0,0.0,0.0,0.0,0.0,-2.4206,-2.1392,0.0,-2.5405,-2.2022,-1.9963,-1.9322,-1.9622,-1.9792,-1.98,-2.0158,-2.032,-2.0328,-2.0515,-2.1993,-2.4071,-2.1997,-2.3909,-2.8242,-2.8296,-2.9692,-3.196,-3.428,-3.5191,-3.5191,-2.4052,-2.4036,-2.4139,-2.4568,-2.4698,-2.4787,-2.4787,-2.4787,-2.4787,-2.4787,-2.4681,-2.4592,-2.4592,-2.4592,-2.4592,0.0,-2.4592,-2.4592,0.0,-2.4592,-2.4568,-2.4511,-2.4511,-2.4421,-2.4251,-2.3959,-2.3654,-2.323,0.0,0.0,0.0,-2.0649,-2.0527,-2.0824,-2.3403,-2.562,-2.7624,-3.0527,-3.2796,-3.438,-3.4953,-3.5191,-3.5191,-3.5191,-3.5191,-3.5191,-3.5191,-3.5191,-3.5191,-3.5191,-3.5191,-3.5191,-3.5191,-3.5191,-3.5177,-3.5084,-3.5057,-3.499,-3.471,-3.4549,-3.4389,-3.3988,-3.3748,-3.3467,-3.3009,-3.2353,-3.161,-3.0929,-3.0408,-2.9998,-2.9597,-2.9165,-2.8938,-2.9045,-2.8537,0.0,0.0,0.0,0.0,0.0,0.0,-2.4849,0.0,-2.3667,0.0,0.0,0.0,0.0,0.0,0.0,0.0,0.0,-2.0234,0.0,-2.2119,-2.0706,-1.9841,-1.9622,-1.9735,-1.9914,-2.0158,-2.0401,-2.0442,-2.0336,-2.0637,-2.2114,-2.4283,-2.3707,-2.541,-2.8307,-2.8307,-2.9704,-3.1788,-3.2545,-3.3843,-3.5191,-2.4633,-2.4592,-2.4592,-2.4592,-2.4698,-2.4763,-2.4763,-2.4763,-2.4763,-2.4763,-2.4657,-2.4592,-2.4592,-2.4592,0.0,-2.4592,-2.4592,-2.4592,-2.4592,-2.4592,-2.4592,-2.4592,-2.4592,-2.4551,-2.4446,-2.4251,0.0,-2.3613,-2.3065,-2.2464,-2.179,-2.1545,-2.1449,-2.1651,-2.3184,-2.5299,-2.7825,-2.9973,-3.2278,-3.4517,-3.5271,-3.5458,-3.5364,-3.5364,-3.5284,-3.5191,-3.5191,-3.5191,-3.5191,-3.5191,-3.5191,-3.5191,-3.5191,-3.5191,-3.5191,-3.5191,-3.5191,-3.5151,-3.4977,-3.4895,-3.4721,-3.4309,-3.4055,-3.3721,-3.312,-3.2353,-3.1617,-3.1196,-3.0761,-3.0293,-2.9931,-2.9392,-2.9055,-2.9285,-2.8404,-2.7829,-2.8217,0.0,0.0,0.0,0.0,0.0,0.0,-2.4907,-2.4122,0.0,0.0,0.0,0.0,0.0,-2.0706,-2.2886,-2.0469,-1.9921,-2.1572,-2.0381,-1.9752,-1.9687,-2.0672,-2.0883,-2.0478,-2.2301,-2.2642,-2.1882,-2.3035,-2.4866,-2.6933,-2.6276,-2.7952,-3.0774,-2.9918,-3.0988,-3.3035,-3.3035,-3.3949,-3.5191,-2.4633,-2.4633,-2.4633,-2.4633,-2.4633,-2.4633,-2.4633,-2.4633,-2.4633,-2.4616,-2.4592,-2.4592,-2.4592,-2.4592,-2.4592,-2.4592,0.0,0.0,-2.4592,-2.4592,-2.4592,-2.4592,-2.4592,-2.4592,-2.4592,-2.4421,-2.4251,-2.4126,-2.3382,-2.287,-2.2529,-2.2342,-2.2172,-2.2001,-2.2179,-2.3545,-2.5952,-2.833,-3.0692,-3.3071,-3.5247,-3.5912,-3.5605,-3.5605,-3.5485,-3.5231,-3.5231,-3.5217,-3.5191,-3.5191,-3.5191,-3.5191,-3.5191,-3.5191,-3.5191,-3.5191,-3.5191,-3.5191,-3.5191,-3.5004,-3.4842,-3.4815,-3.4374,-3.3734,-3.3146,-3.2393,-3.1764,-3.1724,-3.1029,-3.0426,-3.0386,-2.9619,-2.8988,-2.8975,-2.8257,-2.7682,-2.7696,0.0,0.0,0.0,0.0,0.0,-2.5329,-2.6506,-2.7054,0.0,0.0,0.0,0.0,0.0,-2.0934,-2.4779,-2.1565,-2.0789,-2.2885,-2.0815,-1.9695,-1.9557,-2.1959,-2.2199,-2.0755,-2.512,-2.6066,-2.4442,-2.6953,-2.9331,-3.136,-2.9377,-3.1148,-3.498,-3.2823,-3.3301,-3.5191,-3.5191,-3.5191,-3.5191,-2.495,-2.495,-2.495,-2.495,-2.512,-2.5169,-2.5039,-2.495,-2.4957,-2.4828,-2.4681,-2.4592,-2.4592,-2.4592,-2.4592,-2.4592,-2.4592,-2.4592,-2.4592,-2.4592,-2.4592,-2.4592,-2.4592,-2.4592,-2.4592,-2.4421,-2.4251,-2.4126,-2.3617,-2.3358,-2.3276,-2.296,-2.2789,-2.2807,-2.4752,-2.6855,-2.9055,-3.1306,-3.3537,-3.5602,-3.5936,-3.6032,-3.5965,-3.5965,-3.5778,-3.5525,-3.5525,-3.5378,-3.5191,-3.5191,-3.5191,-3.5191,-3.5191,-3.5191,-3.5191,-3.5191,-3.5191,-3.5191,-3.5191,-3.5151,-3.5044,-3.4869,-3.4374,-3.3788,-3.3414,-3.2812,-3.226,-3.1805,-3.1142,-3.0555,-3.01,-2.9442,-2.8921,-2.8751,-2.7949,-2.7483,-2.7669,-2.7268,0.0,0.0,-2.7228,-2.7148,-2.6827,-2.7108,-2.6844,0.0,0.0,-2.3344,-2.4339,-2.0327,-1.9174,-2.1776,-2.0132,-1.9536,-2.0214,-1.9808,-1.9695,-1.999,-2.0658,-2.0891,-2.0702,-2.3657,-2.4745,-2.4451,-2.7066,-2.9447,-3.1466,-3.1041,-3.261,-3.5138,-3.4597,-3.4716,-3.5191,-3.5191,-3.5191,-3.5191,-2.508,-2.508,-2.508,-2.508,-2.5161,-2.525,-2.5104,-2.508,-2.5104,-2.5014,-2.4828,-2.4722,-2.4722,-2.4633,-2.4592,-2.4592,-2.4592,-2.4592,-2.4592,-2.4592,-2.4592,-2.4592,-2.4592,-2.4592,-2.4592,-2.4511,-2.4356,-2.4186,-2.3829,-2.3617,-2.3468,-2.3252,-2.3724,-2.48,-2.6189,-2.8613,-3.183,-3.3005,-3.473,-3.6687,-3.654,-3.6393,-3.6273,-3.6273,-3.6086,-3.5819,-3.5672,-3.5618,-3.5551,-3.5284,-3.5284,-3.5364,-3.5244,-3.5191,-3.5191,-3.5191,-3.5191,-3.5191,-3.5191,-3.5191,-3.5124,-3.4882,-3.4574,-3.4175,-3.3748,-3.3293,-3.2786,-3.2246,-3.1644,-3.1022,-3.0421,-2.9726,-2.9098,-2.8671,-2.8203,-2.7843,-2.7722,-2.7724,-2.771,-2.771,-2.7936,-2.8056,-2.7896,-2.8406,-2.8287,-2.7298,-2.577,0.0,-2.5514,-2.2053,-2.0425,-2.1308,-1.991,-1.924,-1.937,-2.0619,-2.0909,-2.0234,-2.3489,-2.4108,-2.2583,-2.706,-2.8593,-2.7813,-3.0379,-3.2087,-3.3191,-3.329,-3.4055,-3.5191,-3.5191,-3.5191,-3.5191,-3.5191,-3.5191,-3.5191,-2.5161,-2.5161,-2.5161,-2.5161,-2.5161,-2.5209,-2.512,-2.512,-2.5104,-2.5104,-2.4974,-2.4916,-2.4891,-2.4681,-2.4592,-2.4592,-2.4592,-2.4592,-2.4592,-2.4592,-2.4592,-2.4592,-2.4592,-2.4592,-2.4592,-2.4592,-2.4527,-2.4381,-2.404,-2.3804,-2.3597,-2.3447,-2.4435,-2.6378,-2.6702,-2.9074,-3.2823,-3.3515,-3.4838,-3.6426,-3.6788,-3.6739,-3.658,-3.658,-3.6393,-3.6099,-3.5859,-3.5899,-3.5992,-3.5498,-3.5498,-3.5658,-3.5404,-3.5324,-3.5324,-3.5324,-3.5324,-3.5311,-3.5217,-3.5191,-3.5137,-3.4949,-3.4842,-3.4681,-3.4135,-3.3721,-3.3293,-3.2786,-3.2193,-3.1537,-3.0902,-3.0074,-2.9299,-2.8764,-2.8631,-2.8444,-2.7963,0.0,-2.8339,-2.8379,-2.862,-2.8778,-2.8858,-2.974,-3.0186,-2.978,-2.9002,-2.826,-2.7703,-2.4869,-2.3114,-2.2658,-2.0838,-2.0082,-2.0585,-2.2738,-2.283,-2.0927,-2.7165,-2.8189,-2.4801,-3.1348,-3.3363,-3.1853,-3.4174,-3.5191,-3.5191,-3.5191,-3.5191,-3.5191,-3.5191,-3.5191,-3.5191,-3.5191,-3.5191,-3.5191,-2.5591,-2.5591,-2.5591,-2.5591,-2.5591,-2.555,-2.538,-2.5355,-2.525,-2.4957,-2.4892,-2.4867,-2.4657,-2.4616,-2.4592,-2.4592,-2.4592,-2.4592,-2.4592,-2.4592,-2.4592,-2.4592,-2.4592,-2.4592,-2.4592,-2.4592,-2.4576,-2.4551,-2.4356,-2.4227,-2.4148,-2.3869,-2.3889,-2.4334,-2.6363,-2.7518,-2.8207,-3.2286,-3.4021,-3.425,-3.6119,-3.6901,-3.6861,-3.6861,-3.6687,-3.6433,-3.638,-3.6246,-3.6113,-3.5965,-3.5965,-3.5992,-3.5952,-3.5939,-3.5939,-3.5939,-3.5939,-3.5832,-3.5338,-3.5191,-3.5191,-3.5137,-3.495,-3.4788,-3.4695,-3.4002,-3.34,-3.327,-3.2438,-3.1537,-3.0902,-3.0074,-2.9379,-2.8988,-2.8764,-2.8657,-2.8775,0.0,-2.8991,-2.9245,-2.9325,-2.9539,-3.0079,-3.002,-3.0261,-3.0902,-2.8854,-2.7982,-2.8788,-2.6509,-2.5367,-2.5735,-2.3451,-2.3301,-2.5456,-2.6133,-2.5398,-2.3401,-2.6682,-2.6986,-2.4747,-2.9743,-3.1916,-3.1853,-3.4174,-3.5191,-3.5191,-3.5191,-3.5191,-3.5191,-3.5191,-3.5191,-3.5191,-3.5191,-3.5191,-3.5191,-2.568,-2.568,-2.568,-2.568,-2.568,-2.5656,-2.5575,-2.555,-2.5461,-2.5185,-2.5079,-2.4957,-2.4763,-2.4657,-2.4592,-2.4592,-2.4592,-2.4592,-2.4592,-2.4592,-2.4592,-2.4592,-2.4592,-2.4592,-2.4592,-2.4592,-2.4592,-2.4592,-2.4421,-2.427,-2.427,-2.3975,-2.4528,-2.5911,-2.6875,-2.8682,-3.1149,-3.3326,-3.4774,-3.5745,-3.6762,-3.7088,-3.6885,-3.6885,-3.6805,-3.6727,-3.658,-3.6513,-3.65,-3.6179,-3.6179,-3.6273,-3.6126,-3.6072,-3.6072,-3.6072,-3.5952,-3.5778,-3.5498,-3.5311,-3.5191,-3.5191,-3.5097,-3.495,-3.4855,-3.4442,-3.4002,-3.347,-3.2986,-3.2332,-3.1436,-3.0675,-3.0194,-3.0162,-2.9579,0.0,-3.0069,-2.9762,-2.9673,-3.014,-3.0194,-3.0354,-3.0782,-3.0849,-3.1036,-3.1436,-3.0483,-3.0181,-3.0687,-2.8738,-2.8365,-2.993,-2.6785,-2.564,-2.6815,-2.8364,-2.8161,-2.6133,-2.8568,-2.8587,-2.6686,-3.0055,-3.1626,-3.1853,-3.4174,-3.5191,-3.5191,-3.5191,-3.5191,-3.5191,-3.5191,-3.5191,-3.5191,-3.5191,-3.5191,-3.5217,-2.568,-2.568,-2.568,-2.568,-2.568,-2.568,-2.568,-2.5632,-2.5567,-2.542,-2.525,-2.5079,-2.4957,-2.4763,-2.4657,-2.4657,-2.4616,-2.4592,-2.4592,-2.4592,-2.4592,-2.4592,-2.4592,-2.4592,-2.4592,-2.4592,-2.4592,-2.4592,-2.4462,-2.4397,-2.4381,-2.404,-2.4892,-2.6807,-2.6542,-2.8771,-3.2837,-3.342,-3.4844,-3.6779,-3.7277,-3.7342,-3.7099,-3.7099,-3.7088,-3.7008,-3.6794,-3.6794,-3.6861,-3.6433,-3.6433,-3.658,-3.634,-3.6273,-3.6273,-3.6273,-3.6059,-3.5805,-3.5672,-3.5418,-3.5191,-3.5191,-3.5191,-3.5137,-3.491,-3.4869,-3.4614,-3.3868,-3.3614,-3.32,-3.2206,-3.149,-3.1129,-3.1209,0.0,-3.0154,-3.0915,-3.0621,-3.0461,-3.0849,-3.1009,-3.1209,-3.1503,-3.1744,-3.1925,-3.1925,-3.2078,-3.2238,-3.2305,-3.1029,-3.1248,-3.323,-3.0267,-2.8632,-2.8689,-3.0276,-3.0032,-2.7994,-2.9758,-2.9512,-2.7595,-3.04,-3.1415,-3.1041,-3.4027,-3.498,-3.4543,-3.5152,-3.5404,-3.5404,-3.5404,-3.5404,-3.5404,-3.5404,-3.5404,-3.5431,-2.568,-2.568,-2.568,-2.568,-2.568,-2.568,-2.568,-2.5526,-2.542,-2.5404,-2.525,-2.508,-2.5055,-2.4957,-2.4852,-2.4852,-2.4698,-2.4592,-2.4592,-2.4592,-2.4592,-2.4592,-2.4592,-2.4592,-2.4592,-2.4592,-2.4592,-2.4592,-2.4576,-2.4576,-2.4568,-2.421,-2.4171,-2.434,-2.3978,-2.5292,-2.7948,-3.0084,-3.2432,-3.4888,-3.6966,-3.7782,-3.7742,-3.7742,-3.7595,-3.7342,-3.7371,-3.7155,-3.6885,-3.6845,-3.6845,-3.6845,-3.6874,-3.6861,-3.6861,-3.6861,-3.6632,-3.6326,-3.5778,-3.5418,-3.5191,-3.5191,-3.5191,-3.5191,-3.5177,-3.4963,-3.4802,-3.4735,-3.4229,-3.3654,-3.3,-3.2398,-3.1837,-3.1316,0.0,0.0,-3.0533,-3.1109,-3.145,-3.1223,-3.1677,-3.2118,-3.2474,-3.2514,-3.2527,-3.2527,-3.2554,-3.2674,-3.2893,-3.3037,-3.3463,-3.4202,-3.3669,-3.3516,-3.378,-3.2132,-3.0165,-2.7898,-2.8327,-2.7315,-2.5234,-2.9692,-3.056,-2.8802,-3.3526,-3.439,-3.2618,-3.5011,-3.6006,-3.6006,-3.6006,-3.6006,-3.6006,-3.6006,-3.6006,-3.606,-2.568,-2.568,-2.568,-2.568,-2.568,-2.568,-2.568,-2.5615,-2.5526,-2.542,-2.5339,-2.5209,-2.4998,-2.4909,-2.4828,-2.4698,-2.4633,-2.4592,-2.4592,-2.4592,-2.4592,-2.4592,-2.4592,-2.4592,-2.4592,-2.4592,-2.4592,-2.4592,-2.4592,-2.4592,-2.4592,-2.4235,-2.4126,-2.4101,-2.3682,-2.5772,-2.9694,-3.0607,-3.3257,-3.6903,-3.7787,-3.7969,-3.7809,-3.7809,-3.7742,-3.7635,-3.7635,-3.7569,-3.7489,-3.7489,-3.7489,-3.7489,-3.7489,-3.7489,-3.7448,-3.7275,-3.6874,-3.6473,-3.6233,-3.5832,-3.5458,-3.5458,-3.5324,-3.5191,-3.5191,-3.511,-3.4977,-3.4855,-3.4641,-3.4255,-3.3654,-3.32,-3.2959,-3.312,0.0,-3.1677,-3.2198,-3.1931,-3.169,-3.1757,-3.2131,-3.2474,-3.2581,-3.2594,-3.2674,-3.2848,-3.2986,-3.3227,-3.3521,-3.3814,-3.4162,-3.4589,-3.4482,-3.3797,-3.247,-3.1839,-3.0409,-2.8124,-2.6888,-2.5854,-2.5033,-2.6933,-2.7313,-2.6774,-3.1565,-3.3134,-3.2549,-3.5087,-3.6072,-3.6072,-3.6072,-3.6072,-3.6072,-3.6072,-3.6072,-3.614,-2.568,-2.568,-2.568,-2.568,-2.568,-2.568,-2.568,-2.5632,-2.555,-2.542,-2.5355,-2.5234,-2.4974,-2.4909,-2.4828,-2.4698,-2.4633,-2.4592,-2.4592,-2.4592,-2.4592,-2.4592,-2.4592,-2.4592,-2.4592,-2.4592,-2.4592,-2.4592,-2.4592,-2.4568,-2.4511,-2.421,-2.404,-2.3975,-2.3658,-2.6321,-3.1106,-3.1106,-3.3958,-3.8397,-3.8397,-3.829,-3.8103,-3.8103,-3.8036,-3.7956,-3.7956,-3.7889,-3.7809,-3.7809,-3.7809,-3.7809,-3.7809,-3.7809,-3.7782,-3.7569,-3.7235,-3.6901,-3.6901,-3.6445,-3.5992,-3.5819,-3.5551,-3.5338,-3.5338,-3.5257,-3.5137,-3.4937,-3.4949,-3.475,-3.4255,-3.3975,-3.3908,-3.4148,-3.316,-3.2612,-3.3284,-3.2812,-3.2438,-3.2639,-3.2919,-3.3156,-3.3156,-3.3156,-3.3187,-3.3387,-3.3601,-3.3841,-3.4148,-3.4442,-3.4696,-3.4949,-3.499,-3.3584,-3.0474,-3.0637,-2.959,-2.7277,-2.5101,-2.4098,-2.4098,-2.5013,-2.4975,-2.4547,-2.9347,-3.1421,-3.1664,-3.42,-3.5685,-3.634,-3.634,-3.634,-3.634,-3.634,-3.634,-3.6366,-2.568,-2.568,-2.568,-2.568,-2.568,-2.568,-2.568,-2.5526,-2.5404,-2.5404,-2.525,-2.508,-2.508,-2.4974,-2.4868,-2.4868,-2.4698,-2.4592,-2.4592,-2.4592,-2.4592,-2.4592,-2.4592,-2.4592,-2.4592,-2.4592,-2.4592,-2.4592,-2.4592,-2.4511,-2.427,-2.4145,-2.3975,-2.3804,-2.3617,-2.6321,-3.1106,-3.1117,-3.4088,-3.8718,-3.8718,-3.8718,-3.8718,-3.8718,-3.8544,-3.8321,-3.8321,-3.8076,-3.7809,-3.7809,-3.7809,-3.7809,-3.7809,-3.7809,-3.7809,-3.7809,-3.7809,-3.7809,-3.7809,-3.7382,-3.6794,-3.6219,-3.5859,-3.5578,-3.5578,-3.5404,-3.5204,-3.5191,-3.5191,-3.511,-3.4869,-3.4815,-3.4628,-3.3988,-3.3895,-3.3788,-3.3467,-3.3694,-3.3895,-3.3895,-3.4148,-3.4322,-3.4322,-3.4322,-3.4322,-3.4322,-3.4322,-3.4456,-3.4802,-3.5044,-3.5204,-3.5204,-3.5431,-3.333,-2.864,-2.8586,-2.743,-2.5037,-2.2902,-2.188,-2.1993,-2.4314,-2.41,-2.217,-2.7134,-2.9306,-2.9574,-3.2202,-3.4693,-3.6885,-3.6885,-3.6885,-3.6885,-3.6885,-3.6885,-3.6885,-2.568,-2.568,-2.568,-2.568,-2.568,-2.568,-2.568,-2.5632,-2.5591,-2.5591,-2.5445,-2.5274,-2.5104,-2.4974,-2.4828,-2.4681,-2.4633,-2.4592,-2.4592,-2.4592,-2.4592,-2.4592,-2.4592,-2.4592,-2.4592,-2.4592,-2.4592,-2.4592,-2.4592,-2.4568,-2.4511,-2.421,-2.404,-2.4044,-2.5519,-2.7977,-3.1235,-3.2995,-3.567,-3.8718,-3.8718,-3.8718,-3.8718,-3.8718,-3.8651,-3.8584,-3.8584,-3.8544,-3.8406,-3.8406,-3.8406,-3.8406,-3.8406,-3.829,-3.8174,-3.8174,-3.7969,-3.7809,-3.7809,-3.7676,-3.7408,-3.6834,-3.6299,-3.5885,-3.5672,-3.5565,-3.5444,-3.5244,-3.5191,-3.5177,-3.5084,-3.507,-3.4937,-3.4614,-3.4548,-3.4402,-3.4095,-3.4135,-3.4189,-3.4189,-3.4269,-3.4322,-3.4322,-3.4322,-3.4402,-3.4616,-3.4817,-3.4977,-3.5057,-3.5338,-3.4686,-3.299,-3.3197,-3.1079,-2.6427,-2.8008,-2.6849,-2.2838,-2.2373,-2.2042,-2.1936,-2.2919,-2.2904,-2.2285,-2.5629,-2.7057,-2.7386,-3.1555,-3.3731,-3.4569,-3.6263,-3.6885,-3.6885,-3.6885,-3.6885,-3.6885,-2.568,-2.568,-2.568,-2.568,-2.5615,-2.5575,-2.5575,-2.5575,-2.551,-2.538,-2.5315,-2.5209,-2.4949,-2.4828,-2.4722,-2.4592,-2.4592,-2.4592,-2.4592,-2.4592,-2.4592,-2.4592,-2.4592,-2.4592,-2.4592,-2.4592,-2.4592,-2.4592,-2.4592,-2.4551,-2.4486,-2.4275,-2.4105,-2.4065,-2.6367,-2.8881,-3.1484,-3.3864,-3.6446,-3.8865,-3.8758,-3.8718,-3.8718,-3.8718,-3.8798,-3.8846,-3.8846,-3.8913,-3.9052,-3.9052,-3.9052,-3.9052,-3.9052,-3.8865,-3.8624,-3.8624,-3.8397,-3.8183,-3.8183,-3.8076,-3.7889,-3.7555,-3.6941,-3.634,-3.6046,-3.5885,-3.5752,-3.5578,-3.5444,-3.5364,-3.5364,-3.5271,-3.5137,-3.4963,-3.4989,-3.487,-3.4696,-3.467,-3.467,-3.467,-3.467,-3.467,-3.467,-3.467,-3.4736,-3.4923,-3.5204,-3.5364,-3.5364,-3.5645,-3.5147,-3.3654,-3.2968,-3.0783,-2.6988,-2.7561,-2.5843,-2.188,-2.2188,-2.2212,-2.2042,-2.2342,-2.2407,-2.2416,-2.3997,-2.5244,-2.6358,-2.9243,-3.1004,-3.2139,-3.4513,-3.5459,-3.5583,-3.654,-3.6885,-3.6885,-2.5656,-2.5632,-2.5632,-2.5632,-2.5485,-2.538,-2.538,-2.538,-2.525,-2.4933,-2.5014,-2.4998,-2.4657,-2.4592,-2.4592,-2.4592,-2.4592,-2.4592,-2.4592,-2.4592,-2.4592,-2.4592,-2.4592,-2.4592,-2.4592,-2.4592,-2.4592,-2.4592,-2.4592,-2.4511,-2.4356,-2.434,-2.4145,-2.3951,-2.6467,-2.907,-3.1717,-3.3958,-3.656,-3.906,-3.8806,-3.8758,-3.8758,-3.8758,-3.8886,-3.91,-3.9127,-3.9313,-3.9599,-3.9599,-3.9599,-3.9599,-3.9599,-3.9412,-3.914,-3.914,-3.8972,-3.8758,-3.8758,-3.8544,-3.8348,-3.8321,-3.7635,-3.6925,-3.662,-3.6313,-3.6099,-3.6072,-3.5859,-3.5658,-3.5631,-3.5418,-3.5231,-3.5204,-3.5191,-3.5204,-3.5231,-3.5231,-3.5244,-3.5271,-3.5271,-3.5271,-3.5271,-3.5271,-3.5271,-3.5271,-3.5525,-3.5618,-3.5618,-3.5723,-3.5828,-3.5828,-3.3781,-3.1491,-2.908,-2.7106,-2.4765,-2.2001,-2.2318,-2.2383,-2.2237,-2.2407,-2.253,-2.253,-2.253,-2.3762,-2.5778,-2.6016,-2.7372,-2.9618,-3.2015,-3.3116,-3.3552,-3.5793,-3.6733,-3.6885,-2.5461,-2.5355,-2.525,-2.525,-2.5161,-2.5145,-2.5145,-2.5145,-2.5169,-2.5104,-2.4998,-2.4892,-2.4828,-2.4681,-2.4592,-2.4592,-2.4592,-2.4592,-2.4592,-2.4592,-2.4592,-2.4592,-2.4592,-2.4592,-2.4592,-2.4592,-2.4592,-2.4592,-2.4592,-2.4576,-2.4527,-2.4397,-2.421,-2.413,-2.6512,-2.8921,-3.1359,-3.4146,-3.6761,-3.91,-3.902,-3.8993,-3.8993,-3.8993,-3.9033,-3.9127,-3.9412,-3.9559,-3.9599,-3.9599,-3.9599,-3.9599,-3.9599,-3.9559,-3.9493,-3.9493,-3.9247,-3.8993,-3.8993,-3.8838,-3.8584,-3.833,-3.8174,-3.7782,-3.7008,-3.662,-3.6353,-3.6126,-3.6019,-3.5912,-3.5672,-3.5525,-3.5458,-3.5231,-3.5191,-3.5271,-3.5498,-3.5538,-3.5618,-3.5859,-3.5885,-3.5885,-3.5885,-3.5885,-3.5885,-3.5885,-3.5939,-3.5979,-3.5979,-3.4464,-3.3604,-3.3604,-3.1712,-2.9502,-2.7055,-2.6759,-2.5243,-2.2553,-2.2489,-2.2513,-2.2594,-2.2513,-2.253,-2.253,-2.253,-2.2719,-2.3223,-2.5237,-2.6319,-2.6919,-2.9473,-3.1645,-3.334,-3.3887,-3.5305,-3.6885,-2.529,-2.5145,-2.508,-2.508,-2.5079,-2.5014,-2.5014,-2.5014,-2.4974,-2.4892,-2.4868,-2.4891,-2.4746,-2.4657,-2.4592,-2.4592,-2.4592,-2.4592,-2.4592,-2.4592,-2.4592,-2.4592,-2.4592,-2.4592,-2.4592,-2.4592,-2.4592,-2.4592,-2.4592,-2.4592,-2.4592,-2.4511,-2.4316,-2.4188,-2.6729,-2.849,-2.9782,-3.2491,-3.5215,-3.7665,-3.7491,-3.8223,-3.9313,-3.9313,-3.9393,-3.954,-3.9746,-3.9893,-4.0,-4.0,-4.0,-4.0,-4.0,-3.992,-3.9813,-3.9813,-3.9493,-3.91,-3.91,-3.8886,-3.8691,-3.8504,-3.837,-3.8116,-3.7489,-3.7128,-3.6874,-3.6727,-3.6473,-3.6233,-3.6072,-3.5939,-3.5792,-3.5631,-3.5618,-3.5672,-3.5819,-3.5845,-3.5845,-3.5859,-3.5992,-3.6072,-3.6072,-3.6072,-3.6072,-3.6072,-3.6206,-3.6273,-3.6273,-3.5333,-3.4862,-3.5057,-3.1795,-3.0015,-2.9958,-2.7723,-2.5878,-2.4444,-2.329,-2.2724,-2.2724,-2.2724,-2.2724,-2.2724,-2.2635,-2.2578,-2.2669,-2.3759,-2.4301,-2.4663,-2.6982,-2.9402,-3.1738,-3.1612,-3.3831,-3.6885,-2.5104,-2.5039,-2.4991,-2.4991,-2.4933,-2.4828,-2.4828,-2.4828,-2.4763,-2.4616,-2.4722,-2.4763,-2.4616,-2.4592,-2.4592,-2.4592,-2.4592,-2.4592,-2.4592,-2.4592,-2.4592,-2.4592,-2.4592,-2.4592,-2.4592,-2.4592,-2.4592,-2.4592,-2.4592,-2.4592,-2.4592,-2.4592,-2.4421,-2.4237,-2.6469,-2.7649,-2.8146,-3.023,-3.2801,-3.539,-3.514,-3.663,-3.8999,-3.8999,-3.9442,-4.0027,-4.0047,-4.0254,-4.0481,-4.0481,-4.0481,-4.0481,-4.0481,-4.0294,-4.0107,-4.0107,-3.9673,-3.9247,-3.9247,-3.8993,-3.8798,-3.8798,-3.8584,-3.8321,-3.8036,-3.7702,-3.7448,-3.7448,-3.7021,-3.6647,-3.6647,-3.6433,-3.6206,-3.6153,-3.6153,-3.6153,-3.6153,-3.6153,-3.6072,-3.5872,-3.6072,-3.6219,-3.6219,-3.6219,-3.6219,-3.6219,-3.6433,-3.658,-3.658,-3.646,-3.6712,-3.7382,-3.3072,-3.1784,-3.3799,-2.9407,-2.6932,-2.644,-2.4641,-2.3388,-2.2805,-2.3406,-2.343,-2.3041,-2.2846,-2.283,-2.2911,-2.2513,-2.2851,-2.3767,-2.5328,-2.7887,-3.0668,-3.0868,-3.3484,-3.6885,-2.508,-2.4892,-2.4681,-2.4681,-2.4657,-2.4633,-2.4633,-2.4633,-2.4616,-2.4592,-2.4616,-2.4616,-2.4592,-2.4592,-2.4592,-2.4592,-2.4592,-2.4592,-2.4592,-2.4592,-2.4592,-2.4592,-2.4592,-2.4592,-2.4592,-2.4592,-2.4592,-2.4592,-2.4592,-2.4592,-2.4592,-2.4592,-2.4486,-2.4292,-2.462,-2.5947,-2.7953,-2.8492,-3.026,-3.2611,-3.2578,-3.4163,-3.66,-3.66,-3.7978,-4.0067,-4.0334,-4.0441,-4.0481,-4.0481,-4.0481,-4.0481,-4.0481,-4.0441,-4.0401,-4.0401,-4.0187,-3.986,-3.986,-3.946,-3.9033,-3.9033,-3.8865,-3.8651,-3.8611,-3.8183,-3.7742,-3.7742,-3.7489,-3.7275,-3.7275,-3.7021,-3.6727,-3.65,-3.6433,-3.6433,-3.6433,-3.6433,-3.654,-3.6727,-3.6739,-3.6779,-3.6779,-3.6779,-3.6779,-3.6779,-3.6805,-3.6874,-3.6874,-3.5174,-3.5213,-3.7312,-3.5159,-3.3994,-3.3983,-3.1627,-2.9222,-2.6824,-2.6734,-2.5484,-2.329,-2.5323,-2.5182,-2.3271,-2.3041,-2.2895,-2.2765,-2.2846,-2.4108,-2.6045,-2.6497,-2.9386,-3.3476,-3.5283,-3.6331,-3.6885,-2.4844,-2.4698,-2.4592,-2.4592,-2.4592,-2.4592,-2.4592,-2.4592,-2.4592,-2.4592,-2.4592,-2.4592,-2.4592,-2.4592,-2.4592,-2.4592,-2.4592,-2.4592,-2.4592,-2.4592,-2.4592,-2.4592,-2.4592,-2.4592,-2.4592,-2.4592,-2.4592,-2.4592,-2.4592,-2.4592,-2.4592,-2.4592,-2.4551,-2.4486,-2.4486,-2.4973,-2.5833,-2.6104,-2.6895,-2.7884,-2.7884,-3.0411,-3.4097,-3.4097,-3.5723,-3.8257,-3.993,-4.0481,-4.0481,-4.0481,-4.0481,-4.0481,-4.0481,-4.0481,-4.0481,-4.0481,-4.0254,-3.9967,-3.9967,-3.9687,-3.9353,-3.9353,-3.914,-3.8913,-3.8913,-3.8593,-3.829,-3.8103,-3.7702,-3.7382,-3.7382,-3.7275,-3.7155,-3.7021,-3.7128,-3.7235,-3.7235,-3.7235,-3.7275,-3.7408,-3.7275,-3.7235,-3.7408,-3.7408,-3.7408,-3.7408,-3.7408,-3.7408,-3.7408,-3.6528,-3.6601,-3.7849,-3.5715,-3.5144,-3.6379,-3.4153,-3.2325,-3.0985,-3.2616,-3.0688,-2.5597,-2.6498,-2.7225,-2.7466,-2.4341,-2.3885,-2.5153,-2.3507,-2.3616,-2.4967,-2.6155,-2.8841,-3.2447,-3.6042,-3.5462,-3.3308]},{"header":{"parameterUnit":"m.s-1","parameterCategory":1,"la1":30.6,"la2":28.766,"lo1":-90.7593,"lo2":-88.6598,"dy":0.0162,"dx":0.0183,"nx":116,"ny":114,"refTime":"2024-06-13T18:00:00:Z","depth":0,"parameterNumber":3,"parameterNumberName":"V-component_of_WINDS"},"data":[0.0,0.0,0.0,0.0,0.0,0.0,0.0,0.0,0.0,0.0,0.0,0.0,0.0,0.0,0.0,0.0,0.0,0.0,0.0,0.0,0.0,0.0,0.0,0.0,0.0,0.0,0.0,0.0,0.0,0.0,0.0,0.0,0.0,0.0,0.0,0.0,0.0,0.0,0.0,0.0,0.0,0.0,0.0,0.0,0.0,0.0,0.0,0.0,0.0,0.0,0.0,0.0,0.0,0.0,0.0,0.0,0.0,0.0,0.0,0.0,0.0,0.0,0.0,0.0,0.0,0.0,0.0,0.0,0.0,0.0,0.0,0.0,0.0,0.0,0.0,0.0,0.0,0.0,0.0,0.0,0.0,0.0,0.0,0.0,0.0,0.0,0.0,0.0,0.0,0.0,0.0,0.0,0.0,0.0,0.0,0.0,0.0,0.0,0.0,0.0,0.0,0.0,0.0,0.0,0.0,0.0,0.0,0.0,0.0,0.0,0.0,0.0,0.0,0.0,0.0,0.0,0.0,0.0,0.0,0.0,0.0,0.0,0.0,0.0,0.0,0.0,0.0,0.0,0.0,0.0,0.0,0.0,0.0,0.0,0.0,0.0,0.0,0.0,0.0,0.0,0.0,0.0,0.0,0.0,0.0,0.0,0.0,0.0,0.0,0.0,0.0,0.0,0.0,0.0,0.0,0.0,0.0,0.0,0.0,0.0,0.0,0.0,0.0,0.0,0.0,0.0,0.0,0.0,0.0,0.0,0.0,0.0,0.0,0.0,0.0,0.0,0.0,0.0,0.0,0.0,0.0,0.0,0.0,0.0,0.0,0.0,0.0,0.0,0.0,0.0,0.0,0.0,0.0,0.0,0.0,0.0,0.0,0.0,0.0,0.0,0.0,0.0,0.0,0.0,0.0,0.0,0.0,0.0,0.0,0.0,0.0,0.0,0.0,0.0,0.0,0.0,0.0,0.0,0.0,0.0,0.0,0.0,0.0,0.0,0.0,0.0,0.0,0.0,0.0,0.0,0.0,0.0,0.0,0.0,0.0,0.0,0.0,0.0,0.0,0.0,0.0,0.0,0.0,0.0,0.0,0.0,0.0,0.0,0.0,0.0,0.0,0.0,0.0,0.0,0.0,0.0,0.0,0.0,0.0,0.0,0.0,0.0,0.0,0.0,0.0,0.0,0.0,0.0,0.0,0.0,0.0,0.0,0.0,0.0,0.0,0.0,0.0,0.0,0.0,0.0,0.0,0.0,0.0,0.0,0.0,0.0,0.0,0.0,0.0,0.0,0.0,0.0,0.0,0.0,0.0,0.0,0.0,0.0,0.0,0.0,0.0,0.0,0.0,0.0,0.0,0.0,0.0,0.0,0.0,0.0,0.0,0.0,0.0,0.0,0.0,0.0,0.0,0.0,0.0,0.0,0.0,0.0,0.0,0.0,0.0,0.0,0.0,0.0,0.0,0.0,0.0,0.0,0.0,0.0,0.0,0.0,0.0,0.0,0.0,0.0,0.0,0.0,0.0,0.0,0.0,0.0,0.0,0.0,0.0,0.0,0.0,0.0,0.0,0.0,0.0,0.0,0.0,0.0,0.0,0.0,0.0,0.0,0.0,0.0,0.0,0.0,0.0,0.0,0.0,0.0,0.0,0.0,0.0,0.0,0.0,0.0,0.0,0.0,0.0,0.0,0.0,0.0,0.0,0.0,0.0,0.0,0.0,0.0,0.0,0.0,0.0,0.0,0.0,0.0,0.0,0.0,0.0,0.0,0.0,0.0,0.0,0.0,0.0,0.0,0.0,0.0,0.0,0.0,0.0,0.0,0.0,0.0,0.0,0.0,0.0,0.0,0.0,0.0,0.0,0.0,0.0,0.0,0.0,0.0,0.0,0.0,0.0,0.0,0.0,0.0,0.0,0.0,0.0,0.0,0.0,0.0,0.0,0.0,0.0,0.0,0.0,0.0,0.0,0.0,0.0,0.0,0.0,0.0,0.0,0.0,0.0,0.0,0.0,0.0,0.0,0.0,0.0,0.0,0.0,0.0,0.0,0.0,0.0,0.0,0.0,0.0,0.0,0.0,0.0,0.0,0.0,0.0,0.0,0.0,0.0,0.0,0.0,0.0,0.0,0.0,0.0,0.0,0.0,0.0,0.0,0.0,0.0,0.0,0.0,0.0,0.0,0.0,0.0,0.0,0.0,0.0,0.0,0.0,0.0,0.0,0.0,0.0,0.0,0.0,0.0,0.0,0.0,0.0,0.0,0.0,0.0,0.0,0.0,0.0,0.0,0.0,0.0,0.0,0.0,0.0,0.0,0.0,0.0,0.0,0.0,0.0,0.0,0.0,0.0,0.0,0.0,0.0,0.0,0.0,0.0,0.0,0.0,0.0,0.0,0.0,0.0,0.0,0.0,0.0,0.0,0.0,0.0,0.0,0.0,0.0,0.0,0.0,0.0,0.0,0.0,0.0,0.0,0.0,0.0,0.0,0.0,0.0,0.0,0.0,0.0,0.0,0.0,0.0,0.0,0.0,0.0,0.0,0.0,0.0,0.0,0.0,0.0,0.0,0.0,0.0,0.0,0.0,0.0,0.0,0.0,0.0,0.0,0.0,0.0,0.0,0.0,0.0,0.0,0.0,0.0,0.0,0.0,0.0,0.0,0.0,0.0,0.0,0.0,0.0,0.0,0.0,0.0,0.0,0.0,0.0,0.0,0.0,0.0,0.0,0.0,0.0,0.0,0.0,0.0,0.0,0.0,0.0,0.0,0.0,0.0,0.0,0.0,0.0,0.0,0.0,0.0,0.0,0.0,0.0,0.0,0.0,0.0,0.0,0.0,0.0,0.0,0.0,0.0,0.0,0.0,0.0,0.0,0.0,0.0,0.0,0.0,0.0,0.0,0.0,0.0,0.0,0.0,0.0,0.0,0.0,0.0,0.0,0.0,0.0,0.0,0.0,0.0,0.0,0.0,0.0,0.0,0.0,0.0,0.0,0.0,0.0,0.0,0.0,0.0,0.0,0.0,0.0,0.0,0.0,0.0,0.0,0.0,0.0,0.0,0.0,0.0,0.0,0.0,0.0,0.0,0.0,0.0,0.0,0.0,0.0,0.0,0.0,0.0,0.0,0.0,0.0,0.0,0.0,0.0,0.0,0.0,0.0,0.0,0.0,0.0,0.0,0.0,0.0,0.0,0.0,0.0,0.0,0.0,0.0,0.0,0.0,0.0,0.0,0.0,0.0,0.0,0.0,0.0,0.0,0.0,0.0,0.0,0.0,0.0,0.0,0.0,0.0,0.0,0.0,0.0,0.0,0.0,0.0,0.0,0.0,0.0,0.0,0.0,0.0,0.0,0.0,0.0,0.0,0.0,0.0,0.0,0.0,0.0,0.0,0.0,0.0,0.0,0.0,0.0,0.0,0.0,0.0,0.0,0.0,0.0,0.0,0.0,0.0,0.0,0.0,0.0,0.0,0.0,0.0,0.0,0.0,0.0,0.0,0.0,0.0,0.0,0.0,0.0,0.0,0.0,0.0,0.0,0.0,0.0,0.0,0.0,0.0,0.0,0.0,0.0,0.0,0.0,0.0,0.0,0.0,0.0,0.0,0.0,0.0,0.0,0.0,0.0,0.0,0.0,0.0,0.0,0.0,0.0,0.0,0.0,0.0,0.0,0.0,0.0,0.0,0.0,0.0,0.0,0.0,0.0,0.0,0.0,0.0,0.0,0.0,0.0,0.0,0.0,0.0,0.0,0.0,0.0,0.0,0.0,0.0,0.0,0.0,0.0,0.0,0.0,0.0,0.0,0.0,0.0,0.0,0.0,0.0,0.0,0.0,0.0,0.0,0.0,0.0,0.0,0.0,0.0,0.0,0.0,0.0,0.0,0.0,0.0,0.0,0.0,0.0,0.0,0.0,0.0,0.0,0.0,0.0,0.0,0.0,0.0,0.0,0.0,0.0,0.0,0.0,0.0,0.0,0.0,0.0,0.0,0.0,0.0,0.0,0.0,0.0,0.0,0.0,0.0,0.0,0.0,0.0,0.0,0.0,0.0,0.0,0.0,0.0,0.0,0.0,0.0,0.0,0.0,0.0,0.0,0.0,0.0,0.0,0.0,0.0,0.0,0.0,0.0,0.0,0.0,0.0,0.0,0.0,0.0,0.0,0.0,0.0,0.0,0.0,0.0,0.0,0.0,0.0,0.0,0.0,0.0,0.0,0.0,0.0,0.0,0.0,0.0,0.0,0.0,0.0,0.0,0.0,0.0,0.0,0.0,0.0,0.0,0.0,0.0,0.0,0.0,0.0,0.0,0.0,0.0,0.0,0.0,0.0,0.0,0.0,0.0,0.0,0.0,0.0,0.0,0.0,0.0,0.0,0.0,0.0,0.0,0.0,0.0,0.0,0.0,0.0,0.0,0.0,0.0,0.0,0.0,0.0,0.0,0.0,0.0,0.0,0.0,0.0,0.0,0.0,0.0,0.0,0.0,0.0,0.0,0.0,0.0,0.0,0.0,0.0,0.0,0.0,0.0,0.0,0.0,0.0,0.0,0.0,0.0,0.0,0.0,0.0,0.0,0.0,0.0,0.0,0.0,0.0,0.0,0.0,0.0,0.0,0.0,0.0,0.0,0.0,0.0,0.0,0.0,0.0,0.0,0.0,0.0,0.0,0.0,0.0,0.0,0.0,0.0,0.0,0.0,0.0,0.0,0.0,0.0,0.0,0.0,0.0,0.0,0.0,0.0,0.0,0.0,0.0,0.0,0.0,0.0,0.0,0.0,0.0,0.0,0.0,0.0,0.0,0.0,0.0,0.0,0.0,0.0,0.0,0.0,0.0,0.0,0.0,0.0,0.0,0.0,0.0,0.0,0.0,0.0,0.0,0.0,0.0,0.0,0.0,0.0,0.0,0.0,0.0,0.0,0.0,0.0,0.0,0.0,0.0,0.0,0.0,0.0,0.0,0.0,0.0,0.0,0.0,0.0,0.0,0.0,0.0,0.0,0.0,0.0,0.0,0.0,0.0,0.0,0.0,0.0,0.0,0.0,0.0,0.0,0.0,0.0,0.0,0.0,0.0,0.0,0.0,0.0,0.0,0.0,0.0,0.0,0.0,0.0,0.0,0.0,0.0,0.0,0.0,0.0,0.0,0.0,0.0,0.0,0.0,0.0,0.0,0.0,0.0,0.0,0.0,0.0,0.0,0.0,0.0,0.0,0.0,0.0,0.0,0.0,0.0,0.0,0.0,0.0,0.0,0.0,0.0,0.0,0.0,0.0,0.0,0.0,0.0,0.0,0.0,0.0,0.0,0.0,0.0,0.0,0.0,0.0,0.0,0.0,0.0,0.0,0.0,0.0,0.0,0.0,0.0,0.0,0.0,0.0,0.0,0.0,0.0,0.0,0.0,0.0,0.0,0.0,0.0,0.0,0.0,0.0,0.0,0.0,0.0,0.0,0.0,0.0,0.0,0.0,0.0,0.0,0.0,0.0,0.0,0.0,0.0,0.0,0.0,0.0,0.0,0.0,0.0,0.0,0.0,0.0,0.0,0.0,0.0,0.0,0.0,0.0,0.0,0.0,0.0,0.0,0.0,0.0,0.0,0.0,0.0,0.0,0.0,0.0,0.0,0.0,0.0,0.0,0.0,0.0,0.0,0.0,0.0,0.0,0.0,0.0,0.0,0.0,0.0,0.0,0.0,0.0,0.0,0.0,0.0,0.0,0.0,0.0,0.0,0.0,0.0,0.0,0.0,0.0,0.0,0.0,0.0,0.0,0.0,0.0,0.0,0.0,0.0,0.0,0.0,0.0,0.0,0.0,0.0,0.0,0.0,0.0,0.0,0.0,0.0,0.0,0.0,0.0,0.0,0.0,0.0,0.0,0.0,0.0,0.0,0.0,0.0,0.0,0.0,0.0,0.0,0.0,0.0,0.0,0.0,0.0,0.0,0.0,0.0,0.0,0.0,0.0,0.0,0.0,0.0,0.0,0.0,0.0,0.0,0.0,0.0,0.0,0.0,0.0,0.0,0.0,0.0,0.0,0.0,0.0,0.0,0.0,0.0,0.0,0.0,0.0,0.0,0.0,0.0,0.0,0.0,0.0,0.0,0.0,0.0,0.0,0.0,4.0233,0.0,0.0,0.0,0.0,0.0,0.0,0.0,0.0,0.0,0.0,0.0,0.0,0.0,0.0,0.0,0.0,0.0,0.0,0.0,0.0,0.0,0.0,0.0,0.0,3.4713,3.5977,3.7248,3.7389,3.7532,3.7956,0.0,0.0,0.0,0.0,0.0,3.4119,3.4119,3.4503,3.5353,3.493,3.5161,3.5972,3.5537,3.3812,3.1169,0.0,0.0,0.0,0.0,0.0,0.0,0.0,0.0,0.0,0.0,0.0,0.0,0.0,0.0,0.0,0.0,0.0,0.0,0.0,0.0,0.0,0.0,0.0,0.0,0.0,0.0,0.0,0.0,0.0,0.0,0.0,0.0,0.0,0.0,0.0,0.0,0.0,0.0,0.0,0.0,0.0,0.0,0.0,0.0,0.0,0.0,0.0,0.0,0.0,0.0,0.0,0.0,0.0,0.0,0.0,0.0,0.0,0.0,0.0,0.0,0.0,0.0,0.0,0.0,0.0,0.0,0.0,0.0,0.0,0.0,0.0,4.4422,0.0,0.0,0.0,0.0,0.0,0.0,0.0,0.0,0.0,0.0,0.0,0.0,0.0,0.0,0.0,0.0,0.0,0.0,0.0,0.0,0.0,3.2611,3.4421,3.6287,3.7696,3.8584,3.8661,3.8661,3.8661,3.8507,0.0,0.0,3.8238,3.7815,3.6965,3.7081,3.7584,3.843,3.7888,3.8315,3.975,4.0554,3.838,3.3859,3.5379,0.0,0.0,0.0,0.0,0.0,0.0,0.0,0.0,0.0,0.0,0.0,0.0,0.0,0.0,0.0,0.0,0.0,0.0,0.0,0.0,0.0,0.0,0.0,0.0,0.0,0.0,0.0,0.0,0.0,0.0,0.0,0.0,0.0,0.0,0.0,0.0,0.0,0.0,0.0,0.0,0.0,0.0,0.0,0.0,0.0,0.0,0.0,0.0,0.0,0.0,0.0,0.0,0.0,0.0,0.0,0.0,0.0,0.0,0.0,0.0,0.0,0.0,0.0,5.6729,5.7577,5.8233,5.8965,5.9356,5.9202,5.3749,5.0666,4.9328,4.7465,0.0,0.0,0.0,0.0,0.0,0.0,0.0,0.0,0.0,0.0,0.0,0.0,0.0,0.0,0.0,0.0,0.0,0.0,0.0,3.3664,3.6122,3.855,4.0358,4.1235,4.1312,4.1312,4.1312,4.0589,3.9858,3.9165,3.9127,3.8703,3.7853,3.8588,3.9358,4.0169,4.0816,4.1251,4.147,4.2366,4.2394,4.158,3.8961,3.9241,4.1342,0.0,0.0,0.0,0.0,0.0,0.0,0.0,0.0,0.0,0.0,0.0,0.0,0.0,0.0,0.0,0.0,0.0,0.0,0.0,0.0,0.0,0.0,0.0,0.0,0.0,0.0,0.0,0.0,0.0,0.0,0.0,0.0,0.0,0.0,0.0,0.0,0.0,0.0,0.0,0.0,0.0,4.3325,4.3257,0.0,0.0,0.0,0.0,0.0,0.0,0.0,0.0,0.0,0.0,0.0,0.0,0.0,5.8011,5.723,6.0513,6.1439,6.0084,6.1709,6.2557,6.2673,6.2789,6.3252,6.3946,6.3708,0.0,5.3585,5.1146,0.0,0.0,0.0,0.0,0.0,0.0,0.0,0.0,0.0,0.0,0.0,0.0,0.0,0.0,0.0,0.0,0.0,0.0,0.0,0.0,0.0,3.9819,4.1243,4.3047,4.2777,4.2312,4.1812,4.1431,4.0854,4.0015,3.9977,4.0012,4.0119,4.0508,4.1585,4.3363,4.5667,4.6556,4.6108,4.6941,4.7142,4.6596,4.4657,4.3297,4.2247,3.8711,0.0,0.0,0.0,0.0,0.0,0.0,0.0,0.0,0.0,0.0,0.0,0.0,0.0,0.0,0.0,0.0,0.0,0.0,0.0,0.0,0.0,0.0,0.0,0.0,0.0,0.0,0.0,0.0,0.0,0.0,0.0,0.0,0.0,0.0,0.0,0.0,0.0,0.0,0.0,4.4681,4.6602,4.4619,4.651,4.7028,0.0,0.0,0.0,0.0,0.0,0.0,0.0,0.0,0.0,5.9452,6.1874,6.2997,6.2616,6.5504,6.6582,6.585,6.7083,6.7667,6.7667,6.7667,6.7628,6.7583,6.7904,6.5601,6.1345,5.79,5.4983,5.2526,0.0,0.0,0.0,0.0,5.2834,5.3373,0.0,0.0,0.0,0.0,0.0,0.0,0.0,0.0,0.0,0.0,0.0,0.0,4.0131,4.0704,4.1781,4.4085,4.3739,4.3316,4.312,4.2273,4.17,4.1474,4.1281,4.1474,4.2119,4.2966,4.447,4.6552,4.9553,5.0664,5.0048,5.0938,5.0976,5.0356,4.9504,4.7426,4.4311,4.1763,3.9682,3.7842,0.0,0.0,0.0,0.0,0.0,0.0,0.0,0.0,0.0,0.0,0.0,0.0,0.0,0.0,0.0,0.0,0.0,0.0,0.0,0.0,0.0,0.0,0.0,0.0,0.0,0.0,0.0,0.0,0.0,0.0,0.0,0.0,0.0,0.0,0.0,0.0,0.0,4.9028,5.0262,4.7011,5.0182,5.1053,0.0,0.0,0.0,0.0,0.0,0.0,6.0973,6.24,6.3709,6.4891,6.6596,6.7519,6.752,6.9629,7.0667,7.0667,7.1283,7.1591,7.1591,7.1591,7.1245,7.0667,7.0667,6.9667,6.775,6.3581,6.0596,5.8451,5.6141,5.5581,5.6242,5.7247,5.7786,5.8325,0.0,0.0,0.0,0.0,0.0,0.0,0.0,0.0,0.0,0.0,0.0,3.6773,4.0131,4.1239,4.2427,4.4162,4.4239,4.4932,4.6543,4.362,4.2504,4.4047,4.3393,4.3008,4.3047,4.6158,4.824,4.9202,5.0966,5.1808,5.1769,5.2659,5.3044,5.2967,5.2082,5.1621,5.1182,4.6239,4.4558,4.4836,4.0661,0.0,0.0,0.0,0.0,0.0,0.0,0.0,0.0,0.0,0.0,0.0,0.0,0.0,0.0,0.0,0.0,0.0,0.0,0.0,0.0,0.0,0.0,0.0,0.0,0.0,0.0,0.0,0.0,0.0,0.0,0.0,0.0,0.0,0.0,0.0,0.0,0.0,0.0,5.3054,5.5818,0.0,0.0,0.0,0.0,5.905,6.2935,6.5359,6.5557,6.7936,6.9283,6.9398,7.1021,7.1867,7.1867,7.2822,7.3315,7.3315,7.3353,7.3353,7.3353,7.3353,7.3353,7.3315,7.3315,7.2322,7.0398,6.6167,6.3858,6.282,6.1095,6.0441,6.0402,5.9665,5.9896,6.0633,0.0,0.0,0.0,0.0,0.0,3.0577,3.1157,3.2429,3.3894,3.5584,3.7507,3.9819,4.2628,4.3705,4.4932,4.6586,4.6274,4.6009,4.6052,4.3893,4.3855,4.6624,4.5966,4.6543,4.8735,5.0466,5.1818,5.2664,5.4357,5.5472,5.6044,5.6352,5.6165,5.5593,5.4741,5.4059,5.3277,4.8188,4.5843,4.5333,4.1655,3.9115,0.0,0.0,0.0,0.0,0.0,0.0,0.0,0.0,0.0,0.0,0.0,0.0,0.0,0.0,0.0,0.0,0.0,0.0,0.0,0.0,0.0,0.0,0.0,0.0,0.0,0.0,0.0,0.0,0.0,0.0,0.0,0.0,0.0,0.0,0.0,0.0,0.0,5.9094,6.1897,0.0,5.9967,6.182,6.3974,6.5936,6.7475,6.9283,7.1437,7.243,7.3168,7.3745,7.4868,7.5483,7.5483,7.6284,7.6707,7.6707,7.6707,7.6707,7.6707,7.6169,7.563,7.5091,7.4507,7.3623,7.2469,7.093,6.8853,6.6468,6.532,6.4865,6.4749,6.3935,6.4134,6.4788,0.0,0.0,0.0,0.0,2.9813,3.0692,3.158,3.3125,3.4818,3.6465,3.8661,4.1281,4.4397,4.4975,4.6052,4.8355,4.7543,4.712,4.7702,4.5624,4.5889,4.9236,4.862,4.9505,5.2274,5.3467,5.4472,5.5357,5.7011,5.8017,5.8313,5.8583,5.8242,5.7401,5.6819,5.628,5.5511,5.1535,4.8725,4.6633,4.3845,4.2541,4.2032,0.0,0.0,0.0,0.0,0.0,0.0,0.0,0.0,0.0,0.0,0.0,0.0,0.0,0.0,0.0,0.0,0.0,0.0,0.0,0.0,0.0,0.0,0.0,0.0,0.0,0.0,0.0,0.0,0.0,0.0,0.0,0.0,0.0,0.0,6.155,6.4397,6.3865,6.7019,6.8244,6.5699,6.7513,6.9552,7.1245,7.1937,7.3245,7.5476,7.5822,7.6245,7.6823,7.7407,7.7715,7.7715,7.8215,7.8484,7.8484,7.8484,7.8638,7.89,7.84,7.7823,7.7246,7.6669,7.5815,7.4745,7.4476,7.2853,7.0391,6.8936,6.8205,6.7859,6.7051,6.709,6.7513,0.0,0.0,0.0,2.8973,2.9813,3.0692,3.158,3.3163,3.4856,3.6504,3.8315,4.0973,4.5094,4.4898,4.574,4.9125,4.7889,4.8351,5.1654,4.8735,4.8428,5.1885,5.1318,5.1746,5.3428,5.5049,5.628,5.7159,5.8813,5.9198,5.8467,5.9242,5.9204,5.8429,5.8396,5.8352,5.8242,5.6511,5.34,4.9433,4.7697,4.7466,4.7735,0.0,0.0,0.0,0.0,0.0,0.0,0.0,0.0,0.0,0.0,0.0,0.0,0.0,0.0,0.0,0.0,0.0,0.0,0.0,0.0,0.0,0.0,0.0,0.0,0.0,0.0,0.0,0.0,0.0,0.0,0.0,0.0,0.0,6.1364,6.4634,6.7327,6.7327,7.1052,7.2661,7.0206,7.2892,7.4815,7.4853,7.6438,7.7407,7.7445,7.8215,7.8638,7.8677,7.8677,7.8677,7.8677,7.8677,7.8638,7.8638,7.8638,7.9054,7.9854,7.9854,7.9815,7.9815,7.9815,7.89,7.7292,7.6476,7.5592,7.4546,7.1975,7.0475,6.9667,6.8814,6.8507,6.8545,0.0,0.0,2.8857,2.905,2.9813,3.0885,3.2352,3.4042,3.5734,3.743,4.0239,4.2701,4.4474,4.6086,4.7702,4.924,4.8394,4.8702,5.0894,4.8432,4.9236,5.4434,5.5665,5.728,5.9594,5.9479,5.9825,6.071,6.1743,6.2121,6.1929,6.216,6.182,6.1018,6.0402,5.9742,5.9088,5.805,5.6203,5.3708,5.0822,4.9048,4.7928,0.0,0.0,0.0,0.0,0.0,0.0,0.0,0.0,0.0,0.0,0.0,0.0,0.0,0.0,0.0,0.0,0.0,0.0,0.0,0.0,0.0,0.0,0.0,0.0,0.0,0.0,0.0,0.0,0.0,0.0,0.0,6.3858,6.6898,6.5557,6.9052,7.1968,7.2552,7.4784,7.6207,7.6099,7.6899,7.7707,7.8354,7.8861,7.9631,8.0862,8.1131,8.1562,8.2178,8.2216,8.2216,8.2216,8.2216,8.187,8.1246,8.1246,8.1093,8.0746,8.0746,8.04,7.9854,8.0477,7.9746,7.8215,7.8592,7.79,7.6322,7.3783,7.2245,7.1475,7.1245,7.0398,6.9398,0.0,2.82,2.9204,2.9583,3.0388,3.1388,3.2699,3.4657,3.6465,3.7815,4.0969,4.3547,4.4705,4.6509,4.8082,4.9279,4.9279,4.963,5.063,5.0625,5.2125,5.5555,5.7703,5.9511,6.0979,6.1248,6.1749,6.2589,6.3435,6.366,6.3314,6.366,6.3397,6.2589,6.205,6.1589,6.1006,5.9858,5.8742,5.7594,5.4939,5.3049,5.1625,4.9736,4.9043,4.8783,4.6547,4.5509,4.5047,4.397,0.0,0.0,0.0,0.0,0.0,0.0,0.0,0.0,0.0,0.0,0.0,0.0,0.0,0.0,0.0,0.0,0.0,0.0,0.0,0.0,0.0,0.0,0.0,0.0,6.8975,7.1514,7.1405,7.3206,7.4976,7.6169,7.7515,7.8669,7.9515,7.96,7.9939,8.0785,8.0862,8.1439,8.2755,8.2832,8.3101,8.3563,8.3601,8.3601,8.3601,8.3601,8.337,8.2832,8.2832,8.2785,8.267,8.2324,8.1862,8.14,8.1554,8.0823,7.9631,8.0131,7.9554,0.0,0.0,0.0,0.0,0.0,7.1598,7.0706,0.0,2.8701,2.9509,3.0385,3.1195,3.2006,3.2891,3.5119,3.7004,3.7892,4.0969,4.3701,4.5282,4.6317,4.7543,4.9125,5.013,5.0861,5.1246,5.4054,5.5862,5.6247,5.8434,5.9781,6.0089,6.171,6.2903,6.3737,6.4512,6.4474,6.3737,6.4436,6.432,6.3583,6.3506,6.3468,6.3352,6.1743,6.0979,6.0671,5.9165,5.7896,5.6516,5.3467,5.3544,5.478,5.101,4.9163,4.8197,4.6047,0.0,0.0,0.0,0.0,0.0,0.0,0.0,0.0,0.0,0.0,0.0,0.0,0.0,0.0,0.0,0.0,0.0,0.0,0.0,0.0,0.0,0.0,0.0,0.0,7.4553,7.6592,7.7438,7.7015,7.7092,7.8484,7.94,8.0277,8.1131,8.1246,8.1554,8.2401,8.2439,8.2832,8.3717,8.3755,0.0,0.0,0.0,8.387,8.387,8.387,8.3832,8.3755,8.3755,8.4093,8.4747,8.3939,8.3601,8.3563,8.2901,8.2093,8.1246,8.1323,8.0823,7.9669,7.7015,7.5476,7.4507,7.2937,7.229,7.2098,0.0,2.9544,3.0426,3.1311,3.158,3.2199,3.3702,3.5507,3.7004,3.7892,4.0969,4.347,4.4436,4.597,4.7274,4.8274,4.9784,5.1861,5.4554,5.5324,5.694,5.971,6.0287,6.1512,6.3589,6.4628,6.5557,6.6365,6.6519,6.6519,6.6365,6.5859,6.5551,6.5359,6.4666,6.4359,6.4282,6.3237,6.205,6.0781,6.0441,5.855,5.5862,5.5203,5.401,5.2544,5.1697,5.1313,5.1197,5.139,5.0125,4.8471,4.886,4.659,0.0,0.0,0.0,0.0,0.0,0.0,0.0,0.0,0.0,0.0,0.0,0.0,0.0,0.0,0.0,0.0,0.0,0.0,0.0,7.2899,7.5938,7.8323,7.9208,7.9785,7.9977,7.9592,8.0323,8.117,8.1977,8.2054,8.2401,8.3293,8.337,8.3717,8.4593,8.467,8.4939,8.5593,8.5632,8.5632,8.5632,8.5632,8.5286,8.467,8.467,0.0,8.387,8.3678,8.3601,8.364,8.417,8.3516,8.2131,8.2832,8.2208,8.0516,7.7284,7.5476,7.4584,7.3623,7.2783,7.2175,3.0232,3.0746,3.1311,3.216,3.266,3.324,3.4087,3.6007,3.7661,3.855,4.1585,4.3855,4.4239,4.5855,4.7043,4.7466,4.9476,5.2323,5.6088,5.6742,5.8127,6.071,6.2012,6.3281,6.4589,6.5436,6.6096,6.6519,6.6519,6.6519,6.6481,6.6096,6.609,6.6481,6.6051,6.609,6.6436,6.5128,6.3858,6.2627,6.1787,5.9902,5.7511,5.667,5.5555,5.4357,5.351,5.3197,5.3121,5.2697,5.1697,5.0664,5.0707,4.8937,4.6932,0.0,0.0,0.0,0.0,0.0,0.0,0.0,0.0,0.0,0.0,0.0,0.0,0.0,0.0,6.7289,6.9821,0.0,7.4822,7.6931,7.8323,7.9438,8.0323,8.0823,8.0939,8.0516,8.1208,8.1862,8.2247,8.267,8.3324,8.417,8.4247,8.4824,8.6094,8.617,8.6555,8.7363,8.7401,8.7401,8.7401,8.7401,8.6978,8.617,8.617,8.5709,8.4824,8.4439,8.4247,8.4247,8.4247,8.3516,8.2285,8.2324,8.2093,8.1477,7.9361,7.7746,7.6399,7.47,7.3815,7.3322,3.1653,3.2081,3.2397,3.3048,3.3856,3.451,3.4664,3.6703,3.8507,3.9204,4.1935,4.3816,4.3816,4.5235,4.6504,4.7312,4.9125,5.2202,5.6929,5.8044,5.9358,6.1204,6.3589,6.4859,6.4859,6.5705,6.6134,6.6134,6.6134,6.6134,6.6134,6.5981,6.6327,6.7096,6.7096,6.7475,6.8045,6.6705,6.5551,6.4474,6.2941,6.1396,5.9781,5.7978,5.7132,5.6786,5.5093,5.4703,5.4703,5.2774,5.239,5.2467,5.1471,5.0822,5.0394,5.0394,5.0279,0.0,0.0,0.0,0.0,0.0,0.0,0.0,0.0,6.2204,6.4711,6.7904,7.0475,7.3206,7.6676,7.7715,7.8746,8.0977,8.09,8.0708,8.1246,8.1323,8.1285,8.1131,8.1823,8.2362,8.2554,8.3332,8.4209,8.5055,8.5286,8.5978,8.7325,8.7555,8.7979,8.8679,8.8718,8.8718,8.8718,8.8718,8.8256,8.7401,8.7401,8.694,8.6094,8.5431,8.5124,8.5085,8.4209,8.337,8.2516,8.1862,8.1977,8.2477,8.1631,8.0592,7.9177,7.6438,7.5245,7.4745,0.0,3.3474,3.393,3.4055,3.4776,3.5619,3.6311,3.7969,3.9204,3.9281,4.0931,4.2081,4.2081,4.2927,4.5047,4.8779,4.8663,5.1159,5.7736,5.8896,6.0467,6.2891,6.4782,6.5743,6.5743,6.6558,6.6981,6.6981,6.6981,6.6981,6.6942,6.6244,6.6327,6.7096,6.7096,6.7135,6.725,6.7058,6.6051,6.4512,6.3545,6.2627,6.1556,5.9088,5.7665,5.6786,5.5093,5.5478,5.6324,5.3895,5.4049,5.5011,5.3433,5.3395,5.3933,5.3933,5.3395,5.3428,5.6352,5.7973,5.955,6.2704,6.2627,6.3749,0.0,7.1283,7.0667,7.3322,7.5322,7.6714,7.7215,7.9131,8.1016,8.2016,8.2716,8.2947,8.2247,8.217,8.19,8.117,8.1823,8.2593,8.337,8.4247,8.5085,8.5901,8.6671,8.7209,8.7401,8.8141,8.8603,8.8718,8.8718,8.8718,8.8718,8.8718,8.8256,8.7401,8.7401,8.694,8.6094,8.6017,8.5978,8.594,8.5132,8.4247,8.3447,8.337,8.337,8.337,8.2516,8.2516,8.2639,7.9292,7.713,7.5822,0.0,3.3729,3.4429,3.4857,3.5636,3.6308,3.6657,3.8161,3.9473,3.9938,4.147,4.2547,4.2547,4.3316,4.4932,4.7702,4.8509,5.1125,5.6434,5.8473,6.0621,6.3198,6.4974,6.5904,6.5904,6.625,6.6404,6.6404,6.6404,6.6404,6.6404,6.6051,6.6327,6.7096,6.7096,6.7359,6.7821,6.7327,6.6442,6.5243,6.3852,6.2512,6.1056,5.8517,5.6709,5.5516,5.5285,5.5362,0.0,5.3741,5.401,5.4703,5.2967,5.3044,5.3933,5.4895,5.6324,5.8404,6.2323,6.4014,6.5006,6.6429,6.8129,7.0244,7.3315,7.3937,7.4437,7.6476,7.79,7.9054,8.0015,8.1093,8.2054,8.2909,8.337,8.3293,8.2401,8.2285,8.2016,8.1208,8.1823,8.2631,8.3524,8.4401,8.5431,8.6748,8.7171,8.7825,8.8786,8.921,8.9633,9.0133,9.0133,9.0133,9.0133,9.0133,8.971,8.8863,8.8863,8.8171,8.6863,8.6863,8.6863,8.6786,8.5478,8.4709,8.4286,8.3247,8.3139,8.3563,8.3216,8.3593,8.3862,7.9946,7.8061,7.733,0.0,3.3945,3.4928,3.5753,3.6562,3.7067,3.7046,3.8507,3.9935,4.0743,4.1743,4.2393,4.2393,4.2897,4.4047,4.6004,4.7932,5.0625,5.4395,5.7703,6.0435,6.2506,6.4474,6.5743,6.6211,6.6019,6.6019,6.6244,6.6019,6.5904,6.5904,6.5904,6.6211,6.6789,6.7019,6.7321,6.7667,6.7282,6.6519,6.5397,6.3891,6.232,6.0517,5.7709,5.589,5.4797,5.4682,5.4413,5.3913,5.2551,5.3271,5.4424,5.2502,5.3117,5.4924,5.684,6.0257,6.3859,6.5773,6.7972,6.971,6.9507,7.2283,7.5014,7.4892,7.6015,7.7476,7.8907,7.9708,8.0592,8.2054,8.2516,8.2939,8.3824,8.4115,8.3876,8.2824,8.2615,8.2223,8.1208,8.1593,8.2285,8.3178,8.4247,8.5593,8.7286,8.7632,8.8402,8.9816,9.0124,9.0547,9.1171,9.121,9.121,9.121,9.121,9.074,8.9893,8.9893,8.9171,8.7748,8.7517,8.7286,8.6978,8.5747,8.5132,8.4777,8.3285,8.3024,8.3601,8.3601,8.4132,8.4478,8.1139,7.9446,7.8638,0.0,0.0,3.5813,3.6702,3.7524,3.8057,3.798,3.9396,4.0781,4.1658,4.1089,4.0593,4.0593,4.0593,4.1627,4.4162,4.6663,4.9236,5.1846,5.6698,5.9896,6.0825,6.3281,6.5397,6.7019,6.6288,6.6288,6.7058,6.6288,6.5904,6.5904,6.5904,6.5904,6.5981,6.675,6.6673,6.6019,6.6789,6.6167,6.4551,6.366,6.232,6.0441,5.7016,5.5671,5.5237,5.2817,5.2433,5.2735,5.0192,5.2045,5.5031,5.2587,5.4626,5.8418,6.0885,6.5793,6.9526,6.5651,6.8782,7.2998,7.2269,7.4053,7.6361,7.7984,7.9054,7.9931,8.0823,8.1054,8.1323,8.2131,8.2986,8.387,8.4709,8.5441,8.5386,8.3777,8.3443,8.2803,8.1277,8.1131,8.1439,8.2247,8.3901,8.5593,8.7286,8.8179,8.9017,8.9855,9.0701,9.1171,9.121,9.121,9.121,9.121,9.121,9.074,8.9893,8.9893,8.9479,8.8641,8.7786,8.694,8.6132,8.6094,8.5632,8.4824,8.3939,8.3563,8.3601,8.3601,8.4132,8.4786,8.3793,8.1862,7.9515,0.0,0.0,0.0,3.7596,3.8431,3.8949,3.8943,3.9875,4.0658,4.09,4.12,0.0,0.0,0.0,0.0,0.0,4.7312,4.9428,5.2544,5.5395,5.7857,5.9858,6.1864,6.348,6.4551,6.4897,6.5436,6.6288,6.6019,6.5904,6.5904,6.5904,6.5904,6.5904,6.6173,6.6134,6.5859,6.5551,6.5436,6.5205,6.205,6.1127,6.1281,5.7812,5.544,5.3805,0.0,5.2417,5.1919,4.9908,5.0894,5.2806,5.1382,5.3069,5.6508,6.1202,6.5245,6.8347,6.9122,7.2073,7.4965,7.5303,7.6885,7.8612,7.9772,8.0232,8.0386,8.0079,7.9618,7.9319,7.9596,8.0326,8.1354,8.2813,8.472,8.5603,8.4417,8.5202,8.4865,8.2028,8.2232,8.2504,8.2243,8.2792,8.4362,8.7171,8.7671,8.8671,9.0671,9.1047,9.1479,9.2056,9.1673,9.1893,9.2864,9.1941,9.1519,9.1624,9.01,8.9112,8.8671,8.7444,8.6887,8.694,8.6363,8.594,8.5632,8.4786,8.4478,8.4478,8.4478,8.4978,8.5517,8.4132,8.3062,8.2016,0.0,0.0,0.0,0.0,0.0,0.0,0.0,0.0,0.0,0.0,0.0,0.0,0.0,0.0,0.0,0.0,0.0,4.8735,5.1197,5.3818,5.6126,5.805,6.0089,6.171,6.2858,6.3128,6.3974,6.5436,6.4512,6.4557,6.5436,6.4826,6.4711,6.4974,6.4673,6.4557,6.448,6.3628,6.3743,6.4243,6.0834,6.0136,6.0746,5.7294,5.5103,0.0,5.212,5.1802,5.1786,4.9488,5.0063,5.1627,5.108,5.4291,5.8878,6.2046,6.6283,7.0371,7.2231,7.4599,7.6755,7.767,7.8943,8.0102,8.0677,8.0562,7.9996,7.8845,7.7963,7.7204,7.6599,7.7128,7.847,8.0801,8.3051,8.4662,8.4972,8.5987,8.5728,8.3238,8.3444,8.3632,8.3103,8.2919,8.4075,8.7162,8.794,8.9133,9.1095,9.1518,9.1902,9.2479,9.2411,9.2795,9.3672,9.2526,9.1951,9.2018,9.057,8.9467,8.8671,8.7761,8.7203,8.6901,8.6324,8.598,8.5781,8.4975,8.4503,8.4393,8.453,8.4937,8.53,8.4698,8.4324,8.3593,0.0,0.0,0.0,0.0,0.0,0.0,0.0,0.0,0.0,0.0,0.0,0.0,0.0,0.0,0.0,0.0,0.0,0.0,4.8043,5.201,5.4664,5.5555,5.7973,6.0127,6.1864,6.1133,6.1935,6.4397,6.1973,6.205,6.4359,6.2787,6.2441,6.3121,6.2364,6.2018,6.1979,6.1095,6.1243,6.1858,5.9985,5.9264,5.9022,5.5688,5.4824,5.4885,5.0828,5.0826,5.227,4.9169,4.9895,5.2111,5.2111,5.823,6.5108,6.3648,6.9005,7.5297,7.4694,7.6327,7.8441,7.9331,8.0162,8.0775,8.0745,8.0094,7.899,7.7265,7.6221,7.5071,7.3323,7.3775,7.5493,7.8726,8.0859,8.2947,8.5454,8.5896,8.5647,8.4755,8.4726,8.4687,8.462,8.419,8.4917,8.7351,8.8888,9.0178,9.1166,9.2012,9.2521,9.2615,9.3337,9.3722,9.374,9.2903,9.2056,9.121,9.1183,9.0308,8.8718,8.8654,8.7731,8.6094,8.6094,8.5858,8.5436,8.4547,8.3953,8.3637,8.4015,8.4174,8.4327,8.5569,8.5535,8.4305,0.0,0.0,0.0,0.0,0.0,0.0,0.0,0.0,0.0,0.0,0.0,0.0,0.0,0.0,0.0,0.0,0.0,0.0,4.8082,5.0356,5.2323,5.378,5.5665,5.7473,5.9242,5.9627,6.0473,6.1781,6.1127,6.1133,6.1743,6.1325,6.1248,6.1435,6.121,6.1133,6.1056,6.0204,6.0296,6.0792,5.7778,5.766,5.907,5.6925,5.5822,5.5242,5.3459,5.2435,5.1964,5.2346,5.5403,5.9033,5.9033,6.1975,6.5681,6.7171,7.0877,7.4775,7.5833,7.7944,7.9941,8.0188,8.0427,8.0436,7.9824,7.9518,7.8677,7.6343,7.4469,7.257,7.0604,7.221,7.4267,7.5626,8.0841,8.5016,8.5844,8.7961,8.8464,8.5877,8.6203,8.6105,8.4877,8.5817,8.725,8.8911,8.8042,8.857,9.1157,9.2062,9.2988,9.409,9.4011,9.4119,9.4513,9.3174,9.2056,9.1201,9.08,8.9928,8.8709,8.8289,8.7349,8.6094,8.6094,8.6389,8.6803,8.5958,8.5896,8.6296,8.5408,8.5063,8.5071,8.5048,8.4925,8.442,0.0,0.0,0.0,0.0,0.0,0.0,0.0,0.0,0.0,0.0,0.0,0.0,0.0,0.0,0.0,0.0,0.0,0.0,0.0,4.9163,5.0707,5.2049,5.3703,5.5049,5.6044,5.6896,5.7896,5.9132,5.8748,5.9127,6.0204,5.9479,5.9325,5.9704,5.9286,5.9132,5.9056,5.8175,5.851,0.0,0.0,5.6839,5.8591,5.6792,5.5842,5.5345,5.4428,5.5174,5.6581,5.6816,5.9224,6.2319,6.3045,6.5528,6.8508,7.0342,7.3514,7.6647,7.7611,7.913,8.0506,8.0506,8.0248,7.9636,7.8452,7.7611,7.6076,7.2624,7.0782,6.8809,6.5471,6.751,7.0337,7.2271,7.7892,8.3064,8.6073,8.8033,8.8922,8.8172,8.8234,8.8212,8.7894,8.8357,8.9134,9.0269,8.9532,8.9973,9.2117,9.3022,9.385,9.4733,9.4484,9.406,9.3445,9.2793,9.1806,9.0485,9.0664,8.9774,8.7999,8.7939,8.7032,8.5475,8.5475,8.5634,8.5842,8.5717,8.5755,8.5842,8.5664,8.554,8.5397,8.5337,8.5317,8.5095,0.0,0.0,0.0,0.0,0.0,0.0,0.0,0.0,0.0,0.0,0.0,0.0,0.0,0.0,0.0,0.0,0.0,0.0,0.0,0.0,4.9784,5.0668,5.2202,5.3082,5.3197,5.3933,5.5054,5.6516,5.5747,5.6511,5.8627,5.717,5.6901,5.7588,5.694,5.667,5.6632,5.5912,5.6483,5.778,5.6068,5.6338,5.7569,0.0,5.5396,5.5282,5.4524,5.7695,6.2044,6.095,6.2204,6.4451,6.5681,6.889,7.2414,7.3361,7.6426,7.9484,7.9598,8.0133,8.0659,8.0659,7.9827,7.8528,7.6914,7.4966,7.2321,6.8028,6.6692,6.4843,6.0166,6.2501,6.6218,6.9645,7.4488,8.0021,8.6312,8.7482,8.8441,9.0436,9.0234,9.0357,9.1496,9.0721,9.0498,9.138,9.1903,9.2435,9.3136,9.3977,9.4473,9.4536,9.4431,9.3427,9.1544,9.1882,9.1191,8.9526,9.0475,8.9613,8.7239,8.7596,8.6698,8.4863,8.4749,8.4501,8.4215,8.4916,8.4803,8.4253,8.5359,8.5466,8.5085,8.5542,8.5644,8.5406,0.0,0.0,0.0,0.0,0.0,0.0,0.0,0.0,0.0,0.0,4.5788,4.5196,0.0,0.0,0.0,0.0,0.0,0.0,0.0,0.0,0.0,5.0668,5.1625,5.2467,5.3197,5.3351,5.3587,5.3857,5.3703,5.3857,5.4274,5.401,5.3933,5.4121,5.4664,5.4939,5.4972,5.5413,5.5746,5.5969,5.5572,5.5587,5.5817,5.5524,0.0,0.0,5.5244,5.674,5.9033,6.079,6.5796,7.1068,6.9914,7.1985,7.5127,7.6685,7.8634,8.043,8.1156,8.1461,8.1576,8.1576,7.9321,7.6914,7.593,7.2788,6.9344,6.6821,6.5127,6.309,5.9886,6.3717,6.8213,7.0901,7.6601,8.2298,8.6862,8.9112,9.0068,8.9474,9.0374,9.0892,9.0595,9.0389,9.0817,9.22,9.2373,9.2265,9.1919,9.2697,9.3101,9.3056,9.2375,9.157,9.0651,9.0007,8.9528,8.9199,8.9377,8.8934,8.7902,8.733,8.6583,8.5647,8.4976,0.0,8.5553,8.5706,8.568,8.5517,8.5323,8.438,8.3188,8.3578,8.3294,8.2757,0.0,0.0,0.0,0.0,0.0,0.0,0.0,4.546,4.715,4.8868,5.0245,5.004,4.7366,4.6968,0.0,0.0,0.0,0.0,0.0,0.0,0.0,5.0014,5.0818,5.1664,5.2505,5.2967,5.3433,5.3895,0.0,5.428,5.3895,5.3895,5.3626,5.3236,5.4126,5.4511,5.4549,5.5297,5.556,5.5564,5.5461,5.5433,5.5409,5.5409,0.0,0.0,5.5396,5.7046,5.93,6.0064,6.5329,7.1565,7.1183,7.3093,7.6083,7.9092,7.9933,8.0362,8.2493,8.2149,8.1117,8.1117,7.8596,7.5624,7.3904,7.0236,6.6397,6.3415,6.2317,6.0955,5.7882,6.1665,6.5926,6.8017,7.2489,7.7928,8.4288,8.624,8.7851,9.0137,9.1291,9.1955,9.2053,9.1769,9.1891,9.2617,9.2316,9.2284,9.2679,9.3123,9.3148,9.266,9.1877,9.098,8.993,8.9391,8.8815,8.8279,8.8829,8.8428,8.7148,8.6609,8.5875,8.4925,8.4114,8.4018,8.451,8.4934,8.5256,8.5462,8.5217,8.4793,8.4317,8.409,8.3736,8.3434,0.0,0.0,0.0,0.0,0.0,0.0,0.0,4.6935,4.8593,5.1153,5.4259,5.4764,5.0751,4.9647,4.8985,0.0,0.0,0.0,0.0,0.0,0.0,0.0,0.0,5.1241,5.1885,0.0,0.0,0.0,5.4857,0.0,0.0,0.0,0.0,0.0,5.4126,5.4511,5.4549,5.5297,5.5615,0.0,0.0,5.5449,0.0,0.0,0.0,0.0,0.0,5.7084,5.9269,5.8949,6.3037,6.8432,6.951,7.2682,7.6656,7.978,8.0277,8.0401,8.3066,8.2302,8.0773,8.0773,7.784,7.4401,7.2185,6.7867,6.3421,6.0194,5.9702,5.8978,5.6045,5.9375,6.3343,6.58,6.8919,7.3838,8.1872,8.4014,8.6265,9.0392,9.2,9.2922,9.3257,9.2847,9.2606,9.2606,9.2108,9.2247,9.3239,9.3402,9.305,9.2196,9.1482,9.0497,8.9222,8.882,8.8249,8.7398,8.8264,8.7899,8.6504,8.5929,8.5179,8.425,8.3296,8.2994,8.321,8.4072,8.4626,8.4959,8.4959,8.5091,8.5247,8.4618,8.4278,8.4066,0.0,0.0,0.0,0.0,0.0,0.0,0.0,4.8066,5.047,5.3019,5.5536,5.6057,5.334,5.292,5.1886,0.0,0.0,0.0,0.0,0.0,0.0,0.0,0.0,0.0,0.0,0.0,0.0,0.0,0.0,0.0,0.0,0.0,0.0,0.0,0.0,0.0,5.4549,5.5297,0.0,0.0,0.0,0.0,0.0,0.0,0.0,0.0,0.0,5.5587,5.6084,5.7504,5.9491,6.16,6.3197,7.0181,7.7678,7.7296,7.9245,8.1652,8.1958,8.1843,8.169,8.169,7.7411,7.2941,7.1917,6.6071,6.0452,5.8995,5.8408,5.7599,5.581,5.8896,6.3278,6.8076,7.121,7.5386,8.2161,8.6561,8.8985,8.8568,9.1519,9.3143,9.2071,9.1912,9.1875,9.1875,9.184,9.1876,9.1983,9.2001,9.1633,9.0824,9.0014,8.9187,8.8326,8.7568,8.7129,8.7029,8.7129,8.7214,8.7154,8.5619,8.4926,8.4944,8.351,8.2919,0.0,8.3975,8.4451,8.4458,8.4458,8.4056,8.343,8.3355,8.2886,8.235,0.0,0.0,0.0,0.0,0.0,0.0,4.6972,4.8464,5.0716,5.5278,5.7648,5.8058,5.5921,5.5643,5.4164,0.0,0.0,0.0,0.0,0.0,0.0,0.0,0.0,0.0,0.0,0.0,0.0,0.0,0.0,0.0,0.0,0.0,0.0,0.0,0.0,0.0,0.0,5.5335,0.0,0.0,0.0,0.0,0.0,0.0,0.0,0.0,0.0,0.0,5.5511,5.6167,5.8192,6.0415,6.0561,6.5834,7.2559,7.5768,7.7678,7.9398,8.2455,8.2187,8.0888,8.0439,7.6618,7.2529,7.0618,6.5115,6.0113,5.9114,5.8384,5.7857,5.7696,5.9614,6.2457,6.6199,6.7566,7.0177,7.5911,7.97,8.2728,8.5022,8.8499,9.1578,9.3805,9.2684,9.1803,9.1803,9.1803,9.1803,9.1803,9.1803,9.1657,9.1326,9.006,8.9253,8.8923,8.7638,8.6978,8.6978,8.6978,8.7029,8.7061,8.5922,8.525,8.4862,8.3799,8.3118,0.0,8.3305,8.3825,8.4286,8.4376,8.4198,8.3938,8.3938,8.3418,8.2786,0.0,0.0,0.0,0.0,0.0,4.3033,4.7674,4.8729,5.0887,5.6077,5.7985,5.8358,5.7069,5.6648,5.5228,5.2144,0.0,0.0,0.0,0.0,0.0,0.0,0.0,0.0,0.0,0.0,0.0,5.6472,0.0,0.0,0.0,0.0,0.0,0.0,0.0,0.0,0.0,0.0,0.0,0.0,0.0,0.0,0.0,0.0,0.0,0.0,0.0,0.0,0.0,0.0,0.0,5.9154,5.8536,6.1745,6.6835,7.275,7.5386,7.7182,8.1003,8.1117,7.9904,7.8796,7.5739,7.2261,6.9464,6.4848,6.0752,5.937,5.8644,5.8421,5.8988,6.0137,6.1844,6.4431,6.5662,6.7776,7.1913,7.5803,7.9481,8.289,8.6458,9.0026,9.3634,9.2665,9.1803,9.1803,9.1803,9.1803,9.1803,9.1803,9.1803,9.1803,9.0244,8.94,8.94,8.7785,8.6978,8.6978,8.6978,8.6978,8.6978,8.6151,8.5411,8.4719,8.3921,8.3208,0.0,8.2767,8.3473,8.4451,8.436,8.4606,8.5014,8.454,8.4049,8.3529,0.0,0.0,0.0,0.0,0.0,0.0,4.707,4.897,5.1246,5.4766,5.5801,5.6236,5.621,5.5312,5.4714,5.4675,0.0,0.0,0.0,0.0,0.0,0.0,0.0,0.0,0.0,0.0,5.6549,5.828,5.7401,5.744,0.0,0.0,0.0,0.0,0.0,0.0,0.0,0.0,0.0,0.0,0.0,0.0,0.0,0.0,0.0,0.0,0.0,0.0,0.0,0.0,0.0,0.0,0.0,5.839,6.1638,6.7553,7.2261,7.57,7.6532,7.8031,7.891,7.7144,7.4851,7.21,6.8707,6.5299,6.2159,5.9637,5.9102,5.9102,5.9102,6.0144,6.1673,6.3663,6.7268,7.0485,7.2272,7.7823,8.206,8.2886,8.6183,8.8941,9.0249,9.122,9.1803,9.1803,9.1803,9.1803,9.1803,9.1803,9.1803,9.1803,9.0244,8.94,8.94,8.7785,8.6978,8.6978,8.6978,8.6978,8.6978,8.6151,8.5343,8.4552,8.3872,8.3144,0.0,8.2618,8.3656,8.5002,8.4361,8.5127,8.6402,8.494,8.4369,8.4257,0.0,0.0,0.0,0.0,0.0,0.0,0.0,4.6873,4.917,5.137,5.3402,5.4812,5.5278,5.5024,5.5056,5.553,0.0,0.0,0.0,0.0,0.0,0.0,0.0,0.0,0.0,0.0,5.717,5.8313,5.8588,5.8858,5.9088,5.828,0.0,0.0,0.0,0.0,0.0,0.0,0.0,0.0,0.0,0.0,0.0,0.0,0.0,0.0,0.0,0.0,0.0,0.0,0.0,0.0,0.0,0.0,0.0,6.1402,6.6522,7.1374,7.2176,7.3667,7.4439,7.2138,7.0533,6.8784,6.5994,6.3618,6.1631,6.0255,5.9529,5.9293,5.9873,6.033,6.2048,6.6608,6.8982,7.0895,7.2776,7.7732,8.1202,8.1288,8.8382,9.2744,9.1443,9.3143,9.3639,9.1913,9.1803,9.1803,9.1803,9.1803,9.1803,9.1803,9.0776,8.995,8.94,8.8353,8.7545,8.6978,8.6978,8.6978,8.6978,8.6738,8.6187,8.538,8.4602,8.3847,8.3039,8.2665,8.3113,8.4124,8.4595,8.4832,8.4904,8.5025,8.4464,8.3529,0.0,0.0,0.0,0.0,0.0,0.0,0.0,4.5859,4.7811,4.9829,5.1456,5.2932,5.43,5.4439,5.4855,5.5904,0.0,0.0,0.0,0.0,0.0,0.0,0.0,0.0,0.0,5.6247,5.7555,5.9742,5.9896,6.0473,6.1396,6.0583,5.9204,5.7478,0.0,0.0,0.0,0.0,0.0,0.0,0.0,0.0,0.0,0.0,0.0,0.0,0.0,0.0,0.0,0.0,0.0,0.0,0.0,0.0,0.0,0.0,6.1593,6.5834,6.7935,6.9999,7.1107,6.9196,6.805,6.6865,6.4695,6.3121,6.1784,6.0644,5.995,5.9759,6.03,6.0912,6.2337,6.5433,6.8457,7.0941,7.2465,7.7403,8.1527,8.3331,8.9469,9.3028,9.181,9.3143,9.3455,9.1913,9.1803,9.1803,9.1803,9.1803,9.1803,9.1803,9.1033,9.0207,8.94,8.861,8.7802,8.6978,8.6978,8.6978,8.6978,8.6978,8.6554,8.5747,8.4939,8.4132,0.0,8.2945,8.3268,8.4093,8.5083,8.5212,8.4886,8.5187,8.4503,8.3424,0.0,0.0,0.0,0.0,0.0,0.0,0.0,0.0,4.707,4.9492,4.9873,5.0771,5.3073,5.3488,5.4216,5.5676,0.0,0.0,0.0,0.0,0.0,0.0,0.0,0.0,5.567,5.5824,5.7901,6.2018,6.1364,6.232,6.4666,6.3852,6.1737,5.855,5.8434,0.0,0.0,0.0,0.0,0.0,0.0,0.0,0.0,0.0,0.0,0.0,0.0,0.0,0.0,0.0,0.0,0.0,0.0,0.0,0.0,0.0,0.0,0.0,0.0,6.6636,6.8356,6.7408,6.6713,6.5796,6.4122,6.3274,0.0,6.0644,6.0377,6.0453,6.0721,6.1822,6.259,6.2117,6.6907,7.1049,7.2203,7.7489,8.3161,8.8275,8.979,9.072,9.1527,9.1717,9.1803,9.1803,9.1803,9.1803,9.1803,9.1803,9.1803,9.1803,9.1069,9.028,8.9473,8.8683,8.7876,8.7088,8.7014,8.6978,8.6978,8.6978,8.6554,0.0,8.4939,8.4132,8.3381,8.3344,8.3821,8.4699,8.5638,8.6036,8.6032,8.5311,8.4564,8.3783,0.0,0.0,0.0,0.0,0.0,0.0,0.0,0.0,0.0,0.0,4.7929,4.932,4.9765,5.2107,5.3772,0.0,0.0,0.0,0.0,0.0,0.0,0.0,0.0,0.0,5.567,5.7011,5.8819,6.1095,6.2858,6.4359,6.559,6.5397,6.382,6.1133,5.9819,5.828,0.0,0.0,0.0,0.0,0.0,0.0,0.0,0.0,0.0,0.0,0.0,5.5575,0.0,0.0,0.0,0.0,0.0,0.0,0.0,0.0,5.6396,5.739,5.839,0.0,6.2096,6.0599,6.1065,6.1447,0.0,6.0676,6.144,5.9752,5.995,6.1179,6.3732,6.2433,6.3482,7.1075,7.2878,7.4778,7.902,8.3213,8.7338,9.1332,9.1606,9.1732,9.2439,9.2066,9.1803,9.1803,9.1803,9.1803,9.1803,9.1803,9.1803,9.1803,9.162,9.1143,9.0317,8.951,8.8702,8.7912,8.7271,8.6978,8.6978,8.6978,8.6554,8.5747,8.4939,8.4132,8.3344,8.2737,8.3324,8.4609,8.4879,8.5421,8.6016,8.5165,8.4452,8.3804,0.0,0.0,0.0,0.0,0.0,0.0,0.0,0.0,0.0,0.0,0.0,0.0,0.0,0.0,0.0,0.0,0.0,0.0,0.0,0.0,0.0,0.0,0.0,5.4895,5.567,5.7011,5.9088,6.1935,6.3743,6.5628,6.7628,6.7244,6.5474,6.2512,5.9627,5.7863,0.0,0.0,0.0,0.0,0.0,0.0,0.0,0.0,0.0,0.0,5.5671,5.5615,0.0,5.6369,5.6346,5.6053,0.0,0.0,0.0,0.0,5.5708,5.6052,5.6052,5.8727,6.144,6.0912,6.1485,6.1982,6.144,6.0867,6.0325,5.9797,5.9759,6.0714,6.3694,6.3732,6.5108,7.0731,7.3424,7.6893,8.2945,8.6468,8.948,9.2401,9.2451,9.2264,9.2333,9.2019,9.1803,9.1803,9.1803,9.1803,9.1803,9.1803,9.1803,9.1803,9.1803,9.1253,9.006,8.9987,8.9179,8.7655,8.7582,8.7362,8.6978,8.6978,8.6775,8.6297,8.5123,8.4572,8.4425,8.3251,8.3691,8.5159,8.5159,8.5484,8.5899,8.5441,8.4588,8.3692,0.0,0.0,0.0,0.0,0.0,0.0,0.0,0.0,0.0,0.0,0.0,0.0,0.0,0.0,0.0,0.0,0.0,0.0,0.0,0.0,0.0,0.0,0.0,5.5126,5.6088,5.6824,5.9132,6.3121,6.4359,6.6513,6.9475,6.9122,6.6968,6.3121,5.944,5.7561,0.0,0.0,0.0,0.0,0.0,0.0,0.0,0.0,0.0,0.0,0.0,0.0,0.0,5.724,5.7256,5.6799,5.7353,0.0,0.0,0.0,0.0,0.0,5.616,5.9752,6.3197,6.2937,6.351,6.4198,6.4267,6.1898,5.9866,6.0453,5.9988,6.0325,6.3159,6.5222,6.6827,6.7897,7.2928,7.8931,8.5342,8.823,9.045,9.2475,9.2686,9.2471,9.2001,9.1876,9.1803,9.1803,9.1803,9.1803,9.1803,9.1803,9.1803,9.1803,9.1693,9.0922,8.94,9.0207,8.9454,8.7215,8.7876,8.7766,8.6978,8.6978,8.6904,8.6738,8.527,0.0,8.549,8.3875,8.4168,8.56,8.56,8.569,8.58,8.58,8.4939,8.3855,0.0,0.0,0.0,0.0,0.0,0.0,0.0,0.0,0.0,0.0,0.0,0.0,0.0,0.0,0.0,0.0,0.0,0.0,0.0,0.0,0.0,5.5714,5.5593,5.6242,5.7857,5.805,5.9473,6.2287,6.525,6.7359,6.8622,7.0667,6.8629,6.3237,6.1903,6.0133,5.8165,0.0,0.0,0.0,0.0,0.0,0.0,0.0,0.0,0.0,0.0,0.0,0.0,5.5911,5.6296,5.6581,5.5989,0.0,0.0,0.0,0.0,0.0,5.9682,6.2777,6.3694,5.8154,6.053,6.3281,5.9835,6.0745,6.2159,6.1554,6.1325,6.2433,6.6407,6.6292,6.7477,7.3217,7.8653,8.3599,8.7673,8.9369,9.0854,9.2579,9.2281,9.2143,9.2623,9.2143,9.1803,9.1803,9.1803,9.1803,9.1803,9.1803,9.1803,9.1803,9.1143,9.0317,8.94,9.0207,8.9748,8.8023,8.8133,8.7766,8.6978,8.6978,8.6628,8.593,0.0,8.4682,8.4646,8.303,8.3324,8.4792,8.4792,8.5196,8.58,8.58,8.5637,8.5267,0.0,0.0,0.0,0.0,0.0,0.0,0.0,0.0,0.0,0.0,0.0,0.0,0.0,0.0,0.0,0.0,0.0,0.0,0.0,0.0,0.0,5.7093,5.7511,5.7934,5.8275,5.9665,6.1826,6.4788,6.7282,6.9398,7.1122,6.9975,6.7019,6.2589,6.1281,5.9781,5.8352,5.9165,0.0,0.0,0.0,0.0,0.0,0.0,0.0,0.0,0.0,0.0,0.0,0.0,5.6842,5.7364,5.6409,0.0,0.0,0.0,0.0,0.0,5.7727,6.1096,6.2892,5.7963,6.2204,6.7171,6.5689,6.4076,6.3572,6.5864,6.4573,6.416,6.7905,6.9464,7.2215,7.8528,8.1602,8.4436,8.8015,8.9638,9.0873,9.1971,9.2538,9.2666,9.2299,9.1983,9.1803,9.1803,9.1803,9.1803,9.1803,9.1803,9.1803,9.1803,9.1033,9.0427,9.006,8.9987,8.9143,8.7582,8.7986,8.7766,8.6978,8.6978,8.6794,8.6371,8.5159,8.4866,8.5086,8.303,8.3141,8.4572,8.4132,8.4719,8.58,8.58,8.6077,8.6241,0.0,0.0,0.0,0.0,0.0,0.0,0.0,0.0,0.0,0.0,0.0,0.0,0.0,0.0,0.0,0.0,0.0,0.0,0.0,0.0,5.7397,5.7978,5.9183,5.9837,5.9781,6.171,6.4249,6.7398,6.9321,7.1398,7.343,6.9706,6.6096,6.2633,6.1089,5.9737,5.866,5.9665,6.0358,0.0,0.0,0.0,0.0,0.0,0.0,0.0,0.0,0.0,0.0,0.0,0.0,0.0,0.0,0.0,0.0,5.6397,5.5562,5.5403,5.6772,5.9522,6.1624,6.0064,6.4496,6.9464,7.0342,6.7018,6.5177,6.999,6.8165,6.6453,6.9005,7.2711,7.7182,8.2693,8.4032,8.5399,8.83,8.9785,9.0788,9.1461,9.2692,9.3035,9.1893,9.1803,9.1803,9.1803,9.1803,9.1803,9.1803,9.1803,9.1803,9.1803,9.0849,9.0317,9.0317,8.9326,8.8299,8.7271,8.7912,8.7766,8.6978,8.6978,8.6904,8.6628,8.5233,8.4939,8.5343,8.3104,8.303,8.4278,8.3638,8.4389,8.582,8.6004,8.6481,8.6794,0.0,0.0,0.0,0.0,0.0,0.0,0.0,0.0,0.0,0.0,0.0,0.0,0.0,0.0,0.0,0.0,0.0,0.0,0.0,0.0,5.7214,5.711,5.9528,6.1922,6.4095,6.432,6.5705,6.8314,7.0783,7.2514,7.3469,7.1514,6.8398,6.4397,6.3429,6.166,5.9511,6.121,6.1479,6.0864,0.0,0.0,0.0,0.0,0.0,0.0,0.0,0.0,0.0,0.0,0.0,0.0,0.0,0.0,5.7992,5.7832,5.6104,5.5403,6.086,6.0898,6.0248,6.3923,6.5299,6.5987,6.6865,6.6751,6.763,7.1909,7.1298,7.0029,7.0258,7.5042,8.0324,8.4632,8.7039,8.8675,8.9489,9.009,9.0711,9.1497,9.2368,9.2569,9.1894,9.1803,9.1803,9.1803,9.1803,9.1803,9.1803,9.1803,9.1803,9.1803,9.028,8.9473,8.9473,8.7932,8.7509,8.8096,8.8169,8.7766,8.6978,8.6978,8.6591,8.582,8.4976,8.4646,8.4572,8.2884,8.27,8.3491,8.3418,8.4389,8.5894,8.6628,8.6941,8.6867,0.0,0.0,0.0,0.0,0.0,0.0,0.0,0.0,0.0,0.0,0.0,0.0,0.0,0.0,0.0,0.0,0.0,0.0,0.0,5.6441,5.7414,5.7791,6.0294,6.2111,6.3018,6.5628,6.8468,7.1584,7.3046,7.3668,7.343,7.0661,6.766,6.4551,6.3166,6.1704,6.0396,6.1595,6.221,6.2358,6.2172,0.0,0.0,0.0,0.0,0.0,0.0,0.0,0.0,0.0,5.6879,5.762,5.6817,5.763,5.8585,5.7513,5.6454,5.6129,5.8383,6.0217,6.1585,6.2166,6.5413,6.889,7.0304,7.019,7.145,7.7258,7.6265,7.4469,7.5033,7.8672,8.212,8.3677,8.6985,8.9616,9.0347,9.1061,9.1727,9.2268,9.2949,9.296,9.1893,9.1803,9.1803,9.1803,9.1803,9.1803,9.1803,9.1803,9.1583,9.1069,8.9987,8.94,8.94,8.7785,8.7399,8.8206,8.7692,8.7271,8.6978,8.6481,8.6077,8.571,8.4425,8.3858,8.3801,8.3197,8.2847,8.2737,8.3765,8.4535,8.5196,8.6518,8.6978,8.6941,0.0,0.0,0.0,0.0,0.0,0.0,0.0,0.0,0.0,0.0,0.0,0.0,0.0,0.0,0.0,0.0,0.0,0.0,5.4602,5.6029,5.7125,5.7868,6.0129,6.1863,6.2864,6.6244,6.9391,7.2315,7.3892,7.4007,7.2622,7.0007,6.7737,6.5705,6.3743,6.271,6.2403,6.248,6.2666,6.2897,6.2595,6.1281,0.0,0.0,0.0,0.0,0.0,0.0,0.0,0.0,5.6703,5.7385,5.6961,5.7775,5.8738,5.7813,5.766,5.7855,5.8122,6.0102,6.2166,6.2357,6.5834,6.9952,7.275,7.3934,7.6006,8.1461,7.9665,7.7526,7.8939,8.127,8.3267,8.4059,8.7523,9.0332,9.1095,9.1758,9.2334,9.2692,9.329,9.3208,9.1912,9.1803,9.1803,9.1803,9.1803,9.1803,9.1803,9.1546,9.1179,9.0629,8.9546,8.9033,8.9033,8.7675,8.7288,8.7802,8.7234,8.6978,8.6978,8.6444,8.604,8.5764,8.4646,8.3858,8.3381,8.3381,8.292,8.237,8.3985,8.4609,8.4756,8.6114,8.6775,8.6941,0.0,0.0,0.0,0.0,0.0,0.0,0.0,0.0,0.0,0.0,0.0,0.0,0.0,0.0,0.0,0.0,0.0,0.0,5.4645,5.5486,5.6293,5.6956,5.8771,6.1281,6.4474,6.6205,6.7943,6.9706,7.3046,7.336,7.086,7.0052,6.9199,6.8276,6.5743,6.5089,6.5743,6.4045,6.2858,6.2172,6.2974,6.1775,0.0,0.0,0.0,0.0,0.0,0.0,0.0,0.0,5.6401,5.617,5.8665,5.8886,5.8284,5.9051,5.9804,6.0568,6.1325,6.0981,6.1409,6.5643,6.6743,6.8118,7.3123,7.7526,8.127,8.383,8.1003,7.8863,8.1385,8.2493,8.3878,8.638,8.9094,9.1121,9.1713,9.2024,9.2252,9.2466,9.3183,9.3171,9.1893,9.1785,9.1803,9.1767,9.1767,9.1803,9.1767,9.1033,9.0592,9.0592,8.9014,8.8206,8.8206,8.7399,8.6978,8.6978,8.6978,8.6978,8.6978,8.6978,8.6554,8.5783,8.58,8.4866,8.3381,8.3381,8.292,8.237,8.3985,8.4609,8.4682,8.549,8.6297,8.6867,0.0,0.0,0.0,0.0,0.0,0.0,0.0,0.0,0.0,0.0,0.0,0.0,0.0,0.0,0.0,0.0,0.0,0.0,5.3717,5.459,5.5125,5.5257,5.8044,5.9777,6.0165,6.3589,6.7359,7.1482,7.1283,7.0821,7.0052,6.9161,6.8013,6.6628,6.6436,6.5513,6.4045,6.3506,6.3506,6.382,6.3429,6.2512,0.0,0.0,0.0,0.0,0.0,0.0,0.0,0.0,0.0,0.0,5.7517,5.9575,6.1032,5.7606,5.8458,5.9879,5.7066,5.8727,6.1822,6.4313,6.9846,7.5501,7.8787,8.0964,8.3649,8.8568,8.6237,8.3524,8.425,8.5588,8.6237,8.5206,8.8333,9.0932,9.095,9.1137,9.1559,9.2199,9.2123,9.1672,9.0811,9.0857,9.0739,9.0134,9.0629,9.0702,9.0134,8.9877,8.951,8.894,8.8463,8.7949,8.7362,8.7124,8.6978,8.6978,8.6978,8.6978,8.6978,8.6407,8.571,8.4903,8.4352,8.3508,8.2553,8.2553,8.2737,8.3124,8.4205,8.4609,8.4682,8.549,8.593,8.604,0.0,0.0,0.0,0.0,0.0,0.0,0.0,0.0,0.0,0.0,5.2104,5.2953,0.0,0.0,0.0,0.0,0.0,0.0,0.0,5.4339,5.4868,5.5483,5.744,5.905,6.0275,6.3474,6.6628,6.9712,6.9013,6.8513,6.8205,6.8706,6.8398,6.7436,6.8244,6.7398,6.5276,6.4237,6.3929,6.4045,6.3506,6.282,6.1979,0.0,0.0,0.0,0.0,0.0,0.0,0.0,0.0,0.0,5.6907,5.8241,5.9406,5.7957,5.8924,6.0313,5.9359,6.1554,6.484,6.7905,7.2873,7.8366,8.3601,8.5167,8.6619,9.0517,8.7957,8.5015,8.5015,8.5893,8.6314,8.5435,8.8107,9.0342,9.0589,9.0965,9.1347,9.1647,9.148,9.1035,9.0361,9.0205,8.9913,8.9436,8.984,8.9913,8.9436,8.9106,8.872,8.8206,8.7876,8.7509,8.6978,8.6978,8.6978,8.6978,8.6978,8.6978,8.6978,8.6151,8.5527,8.5013,8.3895,8.3124,8.2663,8.2333,8.2663,8.3454,8.3931,8.4315,8.4609,8.4792,8.5233,8.5673,0.0,0.0,0.0,0.0,0.0,0.0,0.0,0.0,0.0,0.0,5.2079,5.288,0.0,0.0,0.0,0.0,0.0,0.0,0.0,0.0,5.5222,5.683,5.7247,5.9286,6.3198,6.4859,6.5634,6.5551,6.6365,6.6404,6.5827,6.8398,6.9552,6.9513,7.0398,6.9744,6.7776,6.532,6.3737,6.2968,6.3045,6.2589,6.1787,6.1056,0.0,0.0,0.0,0.0,0.0,0.0,0.0,0.0,5.6709,5.6055,5.5648,5.9037,6.0386,6.1493,6.4863,6.6759,6.8975,7.3904,7.5777,7.8643,8.7154,8.9256,8.9714,9.0735,8.7575,8.4671,8.4747,8.4709,8.5129,8.6686,8.8329,8.9714,9.0468,9.1243,9.15,9.0949,9.0979,9.0825,9.0217,8.9612,8.9253,8.9179,8.9253,8.9253,8.9179,8.85,8.8096,8.8096,8.7399,8.6978,8.6978,8.6978,8.6978,8.6978,8.6978,8.6978,8.6978,8.6224,8.5857,8.571,8.4095,8.3381,8.3344,8.2517,8.2627,8.3308,8.3381,8.3858,8.4425,8.3748,8.4425,8.56,0.0,0.0,0.0,0.0,0.0,0.0,0.0,0.0,0.0,0.0,0.0,0.0,0.0,0.0,0.0,0.0,0.0,0.0,0.0,0.0,5.4949,5.5939,5.9209,6.171,6.3275,6.366,6.3551,6.2903,6.3705,6.4397,6.4936,6.7468,6.8321,6.775,6.9283,6.7891,6.4275,6.2397,6.1127,6.0396,6.105,6.0819,6.0127,6.0594,5.9325,0.0,0.0,0.0,0.0,0.0,0.0,0.0,5.6709,5.8127,5.8944,5.6466,5.8973,6.2009,5.9523,6.282,6.7859,7.1573,7.7984,8.4059,8.6724,8.8863,9.0926,9.3142,9.0211,8.746,8.811,8.7689,8.7384,8.7766,8.9218,9.0392,9.0583,9.0735,9.0818,9.0672,8.9868,8.9273,8.9131,8.8729,8.8206,8.7565,8.8096,8.8206,8.7528,8.7344,8.7234,8.7234,8.7088,8.6978,8.6978,8.6978,8.6978,8.6978,8.6978,8.6978,8.6978,8.6794,8.6407,8.571,8.4095,8.3381,8.3344,8.2517,8.2296,8.2517,8.3161,8.3491,8.3711,8.4168,8.4572,8.4829,0.0,0.0,0.0,0.0,0.0,0.0,0.0,0.0,0.0,0.0,0.0,0.0,0.0,0.0,0.0,0.0,0.0,0.0,0.0,5.4883,5.5658,5.6896,6.0248,6.2095,6.2089,6.2089,6.1897,6.1479,6.1473,6.2545,6.4666,6.7622,6.8975,6.8981,6.986,6.8129,6.4397,6.232,6.0941,6.0127,6.0165,6.0165,6.0089,5.9742,5.8517,5.6945,5.6516,0.0,0.0,0.0,0.0,0.0,0.0,0.0,5.7115,5.6861,5.8088,5.9645,6.0193,6.3774,6.8594,7.3989,8.0162,8.5053,8.5511,8.6925,8.852,8.9857,8.9065,8.811,8.811,8.7766,8.7613,8.8033,8.9179,9.0124,9.0544,9.0583,9.0583,9.0583,8.9787,8.9141,8.8818,8.8332,8.7774,8.7049,8.7399,8.7435,8.7014,8.6978,8.6978,8.6978,8.6978,8.6978,8.6978,8.6978,8.6978,8.6978,8.6978,8.6978,8.6978,8.6591,8.6004,8.5159,8.4352,8.3748,8.3381,8.2957,8.2774,8.281,8.3234,8.3381,8.3491,8.4315,8.4609,8.4646,0.0,0.0,0.0,0.0,0.0,0.0,0.0,0.0,0.0,0.0,0.0,0.0,0.0,0.0,0.0,0.0,0.0,0.0,0.0,5.5443,5.668,5.8242,6.0441,6.1364,6.0825,6.0666,6.0666,6.0787,6.0089,6.1781,6.5743,6.8282,6.9975,7.0898,7.0744,6.8744,6.5282,6.2749,6.0979,5.9858,5.9281,5.9396,5.9787,5.855,5.7511,5.667,5.5978,5.5708,5.5708,5.5708,0.0,0.0,0.0,0.0,5.4302,5.7745,5.7568,5.7303,6.2128,6.5992,7.0316,7.7323,8.17,8.4327,8.448,8.5129,8.5731,8.5731,8.6734,8.7422,8.6724,8.6686,8.7068,8.7957,8.8797,8.96,9.0468,9.0583,9.0583,9.0583,9.006,8.9453,8.8845,8.8227,8.7699,8.718,8.7046,8.7098,8.7315,8.7115,8.7046,8.7166,8.7046,8.6978,8.6978,8.6978,8.6978,8.6978,8.6978,8.6978,8.6978,8.6151,8.5416,8.4792,8.4646,8.4132,8.3381,8.3234,8.3197,8.3197,8.3344,8.3381,8.3491,8.4462,8.4792,8.4903,0.0,0.0,0.0,0.0,0.0,0.0,0.0,0.0,0.0,0.0,5.3293,5.3451,5.2751,5.1789,0.0,0.0,0.0,0.0,5.44,0.0,0.0,5.8275,5.9281,6.0165,6.0787,6.005,6.005,6.0787,6.0671,6.3858,7.0052,6.9045,6.9391,7.086,7.0167,6.7545,6.3468,6.0935,5.8511,5.6439,5.7093,5.694,5.6439,5.6978,5.6632,5.5862,5.5747,5.5708,5.5708,5.5708,5.5708,0.0,0.0,0.0,5.5472,5.6038,5.7493,5.9054,5.9842,6.5559,7.2412,7.7009,8.127,8.448,8.5167,8.5998,8.6648,8.6648,8.6189,8.5817,8.5702,8.6304,8.7068,8.7957,8.8797,8.96,9.0468,9.0583,9.0583,9.0583,9.006,8.9453,8.8845,8.8227,8.7889,8.7794,8.7298,8.746,8.8492,8.7591,8.7231,8.7778,8.7281,8.6978,8.6978,8.6978,8.6978,8.6978,8.6978,8.6978,8.6978,8.6151,8.5764,8.56,8.4903,8.4132,8.3344,8.2663,8.237,8.2443,8.3124,8.3381,8.3564,8.5086,8.5637,8.5654,0.0,0.0,0.0,0.0,0.0,0.0,0.0,0.0,0.0,0.0,0.0,5.3683,5.3238,5.2253,0.0,0.0,0.0,0.0,5.3703,5.5324,0.0,5.6819,5.8127,5.8781,5.8671,5.8286,5.8517,5.9396,5.8902,6.2864,7.0898,7.0167,7.2245,7.6476,7.3745,7.0391,6.659,6.2127,5.905,5.7088,5.6516,5.8055,6.0358,5.7401,5.7819,5.9588,5.6703,5.5708,5.5708,5.5708,5.5708,5.5708,5.5708,0.0,0.0,0.0,5.5797,5.7674,6.2349,6.6234,7.0576,7.7085,7.9398,8.0621,8.2913,8.3372,8.3524,8.448,8.4021,8.3868,8.5244,8.5807,8.6342,8.7231,8.8071,8.8759,8.9141,8.96,8.9714,8.9256,8.8653,8.8066,8.7455,8.6899,8.6561,8.6493,8.6725,8.7042,8.7518,8.7534,8.7477,8.7394,8.7149,8.6978,8.6978,8.6978,8.6978,8.6978,8.6978,8.6978,8.6978,8.6151,8.58,8.58,8.5416,8.4572,8.3454,8.3985,8.3691,8.2994,8.4242,8.4462,8.4278,8.5894,8.5894,8.5196,0.0,0.0,0.0,0.0,0.0,0.0,0.0,0.0,0.0,0.0,0.0,0.0,5.3315,0.0,0.0,0.0,0.0,0.0,5.2813,0.0,0.0,0.0,0.0,5.7319,5.667,5.667,5.7093,5.7973,5.7747,6.2403,7.1591,7.2014,7.5938,8.2516,7.8015,7.3661,6.9398,6.4474,6.132,5.9467,5.8396,6.0512,6.3935,6.0742,6.1935,6.4545,5.9473,5.7627,0.0,0.0,0.0,0.0,0.0,5.4972,0.0,0.0,0.0,5.5671,6.249,6.5106,6.7569,7.4673,7.6568,7.7514,8.0477,8.0812,8.0926,8.2378,8.2225,8.2416,8.448,8.5053,8.554,8.6648,8.7345,8.7842,8.8071,8.8606,8.8759,8.8148,8.771,8.7127,8.6379,8.6064,8.586,8.5633,8.6229,8.6712,8.6963,8.7362,8.7355,8.6832,8.6742,8.6701,8.6701,8.6904,8.6904,8.6701,8.6904,8.6867,8.6664,8.6077,8.5563,8.5196,8.5196,8.4389,8.3197,8.4609,8.4352,8.3234,8.4866,8.5013,8.4462,8.5894,8.5637,8.4646,0.0,0.0,0.0,0.0,0.0,0.0,0.0,0.0,0.0,0.0,0.0,0.0,5.2299,5.2082,5.1655,5.0794,0.0,0.0,0.0,0.0,0.0,0.0,0.0,0.0,5.5785,5.5785,5.6209,5.7055,5.8588,6.4166,7.3392,7.4976,7.9785,8.6863,8.1785,7.5853,6.959,6.7596,6.532,6.3083,6.3858,6.382,6.3852,6.8398,7.0283,6.986,6.4737,0.0,0.0,0.0,0.0,0.0,0.0,5.4511,5.4357,0.0,0.0,0.0,5.6652,6.0347,6.4216,6.7714,7.2734,7.7241,7.9043,7.998,8.0773,8.169,8.1843,8.2073,8.2961,8.3802,8.49,8.6533,8.6839,8.7154,8.7957,8.8148,8.8158,8.812,8.8061,8.7573,8.6419,8.6808,8.687,8.6312,8.6282,8.6832,8.7964,8.7152,8.6565,8.6353,8.6032,8.5857,8.5857,8.6628,8.6628,8.5857,8.6628,8.6591,8.5857,8.582,8.4976,8.3528,8.3528,8.3014,8.2333,8.3177,8.303,8.2406,8.4022,8.4168,8.3564,8.4425,8.4682,8.4499,0.0,0.0,0.0,0.0,0.0,0.0,0.0,0.0,0.0,0.0,0.0,0.0,0.0,5.2847,5.2222,5.0827,5.1164,0.0,0.0,0.0,0.0,0.0,0.0,0.0,5.5708,5.5708,5.6132,5.6983,5.7055,6.1281,6.9436,7.1168,7.4553,7.9246,7.9054,7.7323,7.4207,6.8674,6.5782,6.4936,6.4705,6.6705,6.9814,6.943,7.1975,7.4976,0.0,0.0,0.0,0.0,0.0,0.0,5.4087,5.3664,5.3395,5.201,5.2356,5.399,5.753,5.9216,6.1352,6.7331,7.118,7.4397,7.7726,7.9933,8.1576,8.2378,8.169,8.1232,8.2073,8.3372,8.4671,8.5769,8.6456,8.6724,8.6467,8.6925,8.7078,8.6505,8.6142,8.5747,8.5307,8.5173,8.5147,8.5259,8.5787,8.6286,8.6673,8.7001,8.6978,8.6504,8.6061,8.58,8.58,8.6077,8.6334,8.6591,8.6885,8.6831,8.6554,8.604,8.549,8.4903,8.4389,8.3434,8.2333,8.4168,8.4462,8.3838,8.4939,8.5527,8.573,8.6023,8.549,8.4572,0.0,0.0,0.0,0.0,0.0,0.0,0.0,0.0,0.0,5.3388,0.0,0.0,0.0,0.0,5.3087,5.1669,5.2043,5.2351,5.2351,0.0,0.0,0.0,0.0,0.0,5.6132,5.6132,5.6401,5.6983,5.6709,5.9896,6.6288,6.8013,7.0937,7.47,7.4668,7.5637,7.6945,7.1552,0.0,6.8513,0.0,0.0,7.4353,7.4661,7.7207,7.9823,0.0,0.0,0.0,0.0,0.0,0.0,0.0,5.3869,5.2505,5.1092,5.1664,5.3413,5.6454,5.7495,5.9287,6.5961,6.8426,7.0681,7.6312,7.8213,7.9474,8.17,8.105,8.043,8.1576,8.2722,8.383,8.4938,8.5807,8.6151,8.5578,8.5998,8.6151,8.5578,8.5179,8.4892,8.4734,8.4533,8.4498,8.47,8.5667,8.624,8.6217,8.7033,8.7022,8.5958,8.532,8.4976,8.4976,8.5527,8.6077,8.6591,8.6867,8.6885,8.6591,8.6334,8.5894,8.538,8.5416,8.4499,8.3141,8.5029,8.5306,8.4682,8.549,8.5967,8.617,8.617,8.5527,8.4609,0.0,0.0,0.0,0.0,0.0,0.0,0.0,0.0,5.3442,5.3516,0.0,0.0,0.0,0.0,0.0,5.3395,5.3351,5.3313,5.3274,5.4087,0.0,0.0,0.0,0.0,5.7055,5.7055,5.7055,5.7055,5.7857,6.0396,6.4474,6.6134,6.959,7.4238,6.9321,7.0828,7.6984,7.6015,7.4861,7.3892,0.0,7.7407,7.6976,0.0,0.0,0.0,7.9315,7.6354,0.0,6.7958,0.0,0.0,0.0,5.533,5.1851,5.101,5.139,5.2216,0.0,0.0,0.0,6.2867,6.4178,6.6383,7.4448,7.4545,7.4278,7.9207,7.9636,7.9636,8.1385,8.1729,8.2302,8.3945,8.49,8.5435,8.5463,8.5463,8.5473,8.5501,8.5501,8.5301,8.478,8.5179,8.5301,8.4806,8.6028,8.68,8.6839,8.7273,8.6623,8.4676,8.3875,8.3454,8.3454,8.5013,8.58,8.582,8.6628,8.6591,8.5857,8.6628,8.6151,8.4756,8.6317,8.6097,8.4719,8.549,8.5343,8.4719,8.549,8.5343,8.4682,8.4682,8.4646,8.4646,0.0,0.0,0.0,0.0,0.0,5.6853,5.6744,5.5347,5.4752,0.0,0.0,0.0,5.5088,5.5785,5.6209,5.5978,5.6511,5.6357,5.5088,5.5241,5.5362,5.5362,5.6401,5.7286,5.7934,5.7934,5.7934,5.7934,5.7555,5.8594,6.0935,6.2018,6.4589,6.8321,6.8129,6.909,7.0667,6.7968,0.0,7.5938,7.2552,7.4938,0.0,0.0,0.0,0.0,0.0,8.0698,7.7535,0.0,6.9716,6.5979,0.0,0.0,5.4346,5.2882,5.3903,5.527,5.4254,0.0,0.0,0.0,0.0,0.0,6.6178,6.8547,7.0992,7.3599,7.4478,7.5615,7.8519,8.0047,8.1232,8.2302,8.3181,8.3907,8.4556,8.4632,8.4862,8.5435,8.5501,8.5423,8.5301,8.5393,8.5691,8.6178,8.6587,8.7068,8.7727,8.7588,8.6826,8.529,8.5185,8.4866,8.4278,8.527,8.6077,8.6664,8.6867,8.6867,8.6701,8.6904,8.6757,8.6354,8.6794,8.6757,8.6334,8.593,8.5673,8.549,8.571,8.6004,8.6334,8.6334,8.5967,8.5453,0.0,0.0,0.0,0.0,0.0,6.0096,5.9882,5.8964,5.8492,0.0,0.0,0.0,5.8896,5.9979,6.0287,5.9215,5.9248,5.8627,5.6896,5.6439,5.6093,5.5708,5.7209,5.828,5.8781,5.9511,5.9704,5.9358,5.8478,5.8357,5.9011,5.9858,6.132,6.3243,6.3891,6.516,6.6583,6.2814,0.0,0.0,7.5309,0.0,0.0,8.3649,8.5542,0.0,0.0,0.0,8.1227,7.8454,7.3605,0.0,0.0,6.0852,5.7837,5.5762,5.6939,0.0,0.0,0.0,0.0,6.0554,0.0,0.0,6.6216,6.7362,6.8585,7.2024,7.3437,7.463,7.6609,7.8634,8.0171,8.0659,8.1423,8.2388,8.3611,8.3763,8.3945,8.4403,8.4785,8.5015,8.5015,8.532,8.5845,8.6724,8.7144,8.776,8.8711,8.8228,8.7326,8.6049,8.5794,8.5476,8.5086,8.5563,8.6187,8.6978,8.6978,8.6978,8.6978,8.6978,8.6978,8.6978,8.6978,8.6978,8.6941,8.6481,8.6297,8.6297,8.6297,8.6591,8.6978,8.6978,8.6701,8.6297,0.0,0.0,6.1825,6.1784,6.3068,6.4024,6.3922,6.3794,6.3512,0.0,6.2864,6.3403,6.4583,6.5743,6.5596,6.3403,6.2095,6.0627,5.8858,5.7747,5.6747,5.5862,5.8204,5.955,5.9627,6.1364,6.1749,6.0787,6.0012,5.9242,5.8434,5.9088,5.9358,5.9358,5.8627,6.0396,6.3705,6.0704,0.0,7.064,8.032,8.3436,0.0,0.0,9.0339,8.9267,8.7753,8.6269,8.4726,8.3044,7.7075,0.0,0.0,6.5975,6.2354,5.9403,6.0622,0.0,6.1499,6.1409,0.0,0.0,6.3305,0.0,6.9502,6.8126,6.6636,7.1519,7.3361,7.4248,7.4707,7.6885,7.8643,7.8719,7.956,8.0888,8.2884,8.3152,8.319,8.3267,8.3954,8.4403,8.4289,8.4938,8.5769,8.6724,8.7689,8.8618,8.947,8.8853,8.7939,8.6795,8.602,8.5688,8.5882,8.5908,8.6297,8.6978,8.6978,8.6978,8.6978,8.6978,8.6978,8.6978,8.6978,8.6978,8.6978,8.6978,8.6978,8.6978,8.6978,8.6978,8.6978,8.6978,8.6978,8.6978,0.0,6.1911,6.3134,6.5186,6.5603,6.6074,6.7382,6.6874,6.6551,6.709,6.7782,6.9552,7.3129,7.136,7.0014,7.0213,6.6981,6.3903,6.1518,5.9281,5.7665,5.6786,5.8511,5.9819,6.0512,6.2204,6.232,6.0787,6.0633,6.0127,5.9281,5.8775,5.8544,5.8544,5.8352,5.8775,5.9813,6.4468,0.0,7.0703,7.214,0.0,8.3239,8.3966,8.597,8.8421,8.8237,8.7819,8.7263,8.6241,8.2118,7.6807,0.0,0.0,6.8892,6.3601,0.0,6.9214,6.6285,6.6996,6.7913,6.5345,0.0,0.0,6.095,6.2211,6.3969,6.2388,6.3801,6.6407,6.9807,7.2529,7.4431,7.508,7.7067,7.978,8.3524,8.4069,8.4289,8.4938,8.5167,8.5015,8.4365,8.4441,8.5167,8.6686,8.8224,8.887,8.8443,8.8421,8.8,8.7134,8.6633,8.6447,8.6539,8.6659,8.6831,8.6978,8.6978,8.6978,8.6978,8.6978,8.6978,8.6978,8.6978,8.6978,8.6978,8.6978,8.6978,8.6978,8.6978,8.6978,8.6978,8.6978,8.6978,8.6978,0.0,6.3424,6.5145,6.7227,6.8186,6.9171,7.0785,7.0632,7.0744,7.2007,7.4053,7.5707,7.6553,7.5476,7.4207,7.2976,6.9744,6.6705,6.4172,6.1595,5.9594,5.8286,5.9473,6.0742,6.2012,6.3314,6.3743,6.3326,6.2474,6.1396,6.0127,5.9742,6.0181,6.1292,6.0071,6.1411,6.4558,6.5071,6.6929,7.0081,7.5932,0.0,8.5981,8.7707,8.9092,9.0136,8.9797,8.8842,8.7478,8.5497,8.2754,0.0,0.0,7.5063,7.4571,0.0,7.0964,7.3594,0.0,7.0457,7.0801,6.9502,0.0,0.0,0.0,6.416,6.4313,6.4642,6.4413,6.5184,6.8585,7.0572,7.2138,7.3399,7.573,7.8404,8.1394,8.1423,8.1461,8.2302,8.276,8.3028,8.3066,8.341,8.4365,8.6036,8.7335,8.8071,8.812,8.8575,8.8532,8.7831,8.7997,8.8012,8.7763,8.754,8.7444,8.7444,8.7129,8.6978,8.6978,8.6978,8.6978,8.6978,8.6978,8.6978,8.6978,8.6978,8.6978,8.6978,8.6978,8.6978,8.6978,8.6978,8.6978,8.6978,0.0,6.4733,6.6752,6.8318,7.0142,7.1863,7.3273,7.3776,7.4776,7.6938,8.0208,8.1516,7.9485,7.9831,7.9177,7.6661,7.336,7.0514,6.8481,6.5327,6.2787,6.105,6.132,6.2166,6.3506,6.4397,6.4936,6.5173,6.3891,6.2551,6.1056,6.1056,6.2168,6.4142,6.2656,6.5109,7.0057,6.5795,0.0,7.1825,0.0,8.5906,8.603,9.0612,9.1775,9.0927,9.0588,8.9322,8.7339,8.4568,8.2582,8.0727,7.7852,7.8224,0.0,0.0,0.0,0.0,0.0,0.0,0.0,0.0,0.0,7.0694,0.0,0.0,0.0,6.85,6.7056,6.6025,6.8088,6.9158,7.019,7.1756,7.4125,7.615,7.742,7.7258,7.7602,7.9101,8.0286,8.1079,8.1308,8.1471,8.2541,8.4824,8.5081,8.5779,8.7269,8.8148,8.8428,8.8112,8.8803,8.9049,8.8743,8.8168,8.7883,8.7883,8.7298,8.6978,8.6978,8.6978,8.6978,8.7014,8.7178,8.7234,8.7234,8.7381,8.7381,8.7215,8.7051,8.6978,8.6978,8.6978,8.6978,8.6978,6.35,6.4985,6.6655,6.8302,7.0521,7.2395,7.336,7.4745,7.713,8.1054,8.4555,8.6555,8.6286,0.0,0.0,0.0,0.0,0.0,7.7099,0.0,6.8052,6.6327,6.4897,6.4243,6.4436,6.532,6.4673,6.2518,6.3051,6.2858,6.1941,6.1941,6.2474,6.3526,6.5423,6.7196,6.8756,0.0,7.4504,0.0,8.2149,8.0008,0.0,8.2616,8.5613,8.6814,8.8474,8.8845,8.846,0.0,8.4832,8.2196,0.0,8.0515,8.0672,0.0,0.0,0.0,0.0,0.0,0.0,0.0,7.7755,0.0,0.0,0.0,6.951,6.4718,0.0,0.0,0.0,0.0,0.0,6.8325,0.0,0.0,7.148,7.2673,7.5004,7.8834,8.1318,8.1891,7.9789,7.7611,7.8299,8.2923,8.0621,8.0697,8.4518,8.5473,8.6245,8.6958,8.7319,8.7771,8.8442,8.8074,8.7883,8.7883,8.7298,8.6978,8.6978,8.6978,8.6978,8.7014,8.7766,8.8059,8.8133,8.8812,8.8702,8.7986,8.7288,8.6978,8.6978,8.6978,8.6978,8.6978,6.3692,6.451,0.0,6.8093,6.974,7.136,7.3238,7.8707,8.3247,8.5016,8.9103,9.1441,0.0,0.0,0.0,0.0,0.0,8.1439,0.0,0.0,0.0,6.725,6.7398,6.709,6.6051,6.6404,6.6058,6.498,6.3858,6.3121,6.2781,6.2326,6.4103,6.7657,6.7739,7.0942,7.6109,0.0,7.4648,0.0,0.0,0.0,0.0,8.6537,9.0374,9.0415,8.8948,8.8467,8.7958,0.0,8.3275,0.0,0.0,0.0,0.0,0.0,0.0,0.0,0.0,0.0,0.0,0.0,0.0,0.0,7.1248,0.0,6.8508,0.0,0.0,0.0,0.0,0.0,0.0,0.0,6.9204,0.0,0.0,7.0419,7.2711,7.5959,0.0,7.7191,7.7114,7.7,7.8022,8.0668,7.9092,7.9627,8.3343,8.4785,8.5654,8.6036,8.7159,8.8129,8.8918,8.8432,8.8274,8.8405,8.7826,8.7348,8.6978,8.6978,8.7252,8.7729,8.8059,8.8463,8.8923,8.9253,8.9216,8.8849,8.8519,8.8115,8.7766,8.8225,8.8372,8.8335,6.4287,0.0,0.0,6.7699,6.936,7.1475,7.4738,8.1554,8.6786,8.794,9.2133,0.0,9.3326,9.421,0.0,0.0,9.0094,8.7094,0.0,0.0,7.5745,7.1136,7.0821,0.0,0.0,6.7936,6.7475,6.7475,6.5128,6.4237,6.466,6.3397,6.5558,7.0486,7.0628,7.4543,8.0763,0.0,7.7263,8.0387,8.0581,8.1253,8.289,8.9906,9.3062,9.3285,8.9795,8.8683,8.815,8.3688,8.2575,0.0,8.1131,0.0,0.0,0.0,0.0,0.0,8.0279,0.0,0.0,0.0,0.0,0.0,0.0,0.0,0.0,0.0,0.0,0.0,0.0,0.0,0.0,0.0,0.0,6.8814,0.0,6.8623,0.0,0.0,0.0,0.0,7.5356,7.5348,7.6265,7.8757,7.7296,7.8137,8.2416,8.4021,8.4938,8.5167,8.6849,8.8148,8.895,8.8596,8.8633,8.9023,8.8279,8.7667,8.7248,8.7301,8.7655,8.8206,8.8683,8.9197,8.9767,8.995,8.9913,8.9767,8.995,8.9546,8.8904,8.9253,8.94,8.9326,6.569,6.6487,0.0,0.0,6.9905,7.3822,7.8823,8.1939,8.517,8.9278,0.0,0.0,0.0,0.0,0.0,0.0,0.0,9.6019,9.3364,0.0,8.4209,8.0785,0.0,7.3353,0.0,0.0,6.8353,6.8353,6.6667,6.6667,6.8199,6.5705,6.6397,6.9923,7.462,7.7396,7.8743,8.2385,8.5914,8.8963,8.7663,9.0223,9.4319,0.0,8.9435,9.2794,9.0262,0.0,0.0,8.637,8.4363,0.0,0.0,0.0,0.0,0.0,0.0,0.0,0.0,0.0,0.0,7.3711,0.0,0.0,0.0,0.0,7.4095,0.0,0.0,0.0,0.0,0.0,0.0,0.0,0.0,0.0,0.0,0.0,0.0,0.0,0.0,0.0,0.0,7.1077,7.0962,7.7564,7.424,7.4821,8.1499,8.2607,8.3458,8.4289,8.596,8.7269,8.811,8.833,8.8818,8.9665,8.8463,8.7883,8.7873,8.8092,8.8169,8.828,8.9858,9.0555,9.0629,9.14,9.1253,9.0629,9.1436,9.1216,9.0445,8.9693,8.94,8.94,0.0,0.0,0.0,0.0,0.0,7.363,8.0439,8.5555,9.0133,0.0,0.0,0.0,0.0,10.2604,10.3006,0.0,0.0,9.8065,9.3908,8.9912,0.0,0.0,0.0,7.8754,0.0,0.0,7.3476,7.1776,7.0052,6.9244,6.9237,6.7776,6.8314,7.0661,7.4436,7.7862,0.0,0.0,0.0,0.0,0.0,9.2592,9.7244,0.0,9.2131,9.3565,9.1088,9.0354,0.0,8.8616,8.6303,8.4382,8.5561,8.4219,8.2564,8.4354,8.4949,0.0,0.0,0.0,8.3387,7.6974,0.0,0.0,0.0,0.0,0.0,0.0,0.0,0.0,0.0,0.0,0.0,0.0,0.0,0.0,0.0,0.0,0.0,0.0,0.0,0.0,0.0,0.0,7.2444,7.5271,7.5195,7.6723,8.0735,8.3295,8.4289,8.3458,8.5053,8.6658,8.8071,8.776,8.83,8.969,8.8463,8.7883,8.7904,8.8092,8.85,8.9033,9.0152,9.0922,9.1436,9.1693,9.1657,9.1436,9.1693,9.162,9.1363,9.1106,9.0996,9.0996,7.0706,0.0,0.0,0.0,0.0,7.6399,8.1908,8.8021,0.0,0.0,9.9653,0.0,10.4882,0.0,10.5183,0.0,10.2976,10.038,9.4849,9.2939,0.0,8.6562,8.5117,0.0,0.0,0.0,7.7808,7.5233,7.3538,7.2283,7.1437,6.9968,7.0154,7.1926,7.5464,7.9054,8.2582,8.5685,8.9102,0.0,0.0,9.581,0.0,0.0,9.4703,9.4777,0.0,9.1253,9.1326,9.0207,8.8262,8.6427,8.7215,8.582,8.4068,8.4875,8.5097,8.4784,8.3245,8.3551,0.0,7.8474,7.7125,0.0,7.1234,0.0,0.0,0.0,0.0,0.0,0.0,0.0,0.0,0.0,0.0,0.0,0.0,6.3236,0.0,0.0,0.0,0.0,0.0,0.0,7.1833,7.4469,7.5119,7.6761,0.0,8.2684,8.383,8.3037,8.4365,8.6046,8.8071,8.7699,8.825,8.9702,8.8692,8.8114,8.7904,8.8387,8.8923,8.9473,9.0555,9.1326,9.1803,9.1803,9.1803,9.1803,9.1803,9.1803,9.1803,9.1803,9.1803,9.1803,0.0,0.0,0.0,0.0,7.7476,0.0,0.0,0.0,9.484,0.0,10.0993,10.3912,10.7291,10.7598,10.6918,10.5179,10.5695,0.0,9.698,9.781,0.0,0.0,8.9238,8.8261,8.7542,0.0,0.0,0.0,7.7047,7.5738,7.4815,7.2276,7.1888,7.3537,7.7618,0.0,8.3476,8.9287,9.4263,9.8427,10.0216,9.976,9.7787,9.6906,9.6612,9.6282,9.2978,9.2317,9.2794,9.1216,9.0097,8.9326,8.8573,8.7729,8.6757,8.5233,8.4756,8.4205,8.1929,8.2957,8.3476,7.8351,7.9399,0.0,0.0,0.0,7.7072,0.0,0.0,0.0,0.0,0.0,0.0,0.0,0.0,0.0,0.0,0.0,0.0,0.0,0.0,0.0,0.0,6.8118,6.9158,7.4821,7.3943,7.4936,0.0,8.0926,8.2187,8.3037,8.3983,8.5702,8.8196,8.8242,8.8771,8.9816,8.9114,8.8529,8.8025,8.9061,8.9488,8.96,9.116,9.184,9.1803,9.1803,9.1803,9.1803,9.1803,9.1803,9.1803,9.1803,9.1803,9.1803,7.5945,7.9208,8.2285,0.0,8.217,8.2516,0.0,0.0,0.0,0.0,10.4106,10.7081,10.9881,10.9006,10.7998,10.7591,10.6985,0.0,0.0,0.0,0.0,9.8817,9.5059,9.3184,9.3573,8.9066,0.0,8.4067,0.0,7.8269,7.7385,7.4849,7.3844,7.4336,7.719,8.0193,8.3457,8.8675,9.3527,9.7651,9.7674,9.7801,9.7696,0.0,9.5658,9.6282,9.2978,9.195,9.206,9.1657,9.0959,9.0244,9.0041,8.9014,8.7802,8.7399,8.6848,8.6244,8.562,8.5913,8.5764,8.3215,8.1865,8.0364,0.0,0.0,0.0,0.0,0.0,0.0,0.0,0.0,0.0,0.0,0.0,0.0,0.0,0.0,0.0,6.6483,0.0,0.0,0.0,6.7477,6.9425,7.1565,7.3667,7.6426,8.0018,8.1194,8.2455,8.3916,8.6008,8.8033,8.9944,9.0091,9.0656,9.1546,8.9692,8.9058,8.9567,9.0423,9.0907,9.1091,9.2111,9.2247,9.1803,9.1803,9.1803,9.1803,9.1803,9.1803,9.1803,9.1803,9.1803,9.1803,7.9438,0.0,0.0,8.994,0.0,0.0,9.11,9.3303,0.0,10.069,10.381,0.0,10.8608,10.8885,10.8887,10.8997,10.8102,0.0,10.4909,0.0,0.0,10.1514,9.8714,9.7271,9.7369,9.2807,0.0,8.6966,0.0,0.0,7.7721,7.5572,7.4305,7.4026,7.7254,8.031,8.3506,9.047,9.5143,9.797,9.8372,9.8485,0.0,9.6502,9.5988,9.5878,9.3675,9.2868,9.2831,9.2501,9.206,9.1583,9.0849,8.9968,8.9124,8.8426,8.7876,8.7472,8.7088,8.6978,8.6757,8.5894,8.4646,8.2986,8.0542,8.0911,8.0937,0.0,7.9367,8.0066,0.0,0.0,0.0,0.0,0.0,0.0,0.0,0.0,0.0,0.0,6.6606,0.0,0.0,6.5918,6.7637,6.9196,7.1756,0.0,0.0,7.9742,8.2378,8.3687,8.5817,8.8683,9.2225,9.0524,9.0404,9.1767,9.0404,8.9731,8.9757,9.1182,9.1896,9.202,9.2561,9.2736,9.2582,9.2055,9.1965,9.2194,9.1893,9.1803,9.1803,9.1803,9.1803,9.1803,0.0,0.0,0.0,0.0,0.0,0.0,0.0,9.6576,0.0,10.0601,0.0,10.5687,10.7105,10.8899,10.9987,10.9911,0.0,10.7404,10.4276,10.539,10.4881,10.1889,10.1415,10.0795,9.9928,9.5697,0.0,0.0,0.0,0.0,7.6933,7.5285,7.4026,7.3409,7.7305,0.0,0.0,9.2771,9.7125,9.8411,9.9855,9.9778,9.8704,9.8007,9.6869,9.5584,9.485,9.4483,9.4189,9.3492,9.3198,9.2868,9.14,9.0776,9.0335,8.8904,8.8426,8.8206,8.7491,8.7234,8.7178,8.7178,8.7088,8.606,8.259,8.1986,8.1412,7.8777,7.8279,7.8729,0.0,0.0,0.0,0.0,0.0,0.0,0.0,0.0,0.0,0.0,0.0,0.0,0.0,0.0,0.0,0.0,0.0,0.0,0.0,0.0,8.1805,8.3611,8.5091,8.853,9.4174,9.0478,8.9543,9.1414,9.1143,9.0518,8.9652,9.177,9.2749,9.2786,9.2956,9.3308,9.3597,9.2519,9.2351,9.272,9.2072,9.1803,9.1803,9.1913,9.195,9.195,0.0,0.0,0.0,0.0,0.0,10.5087,10.6007,10.6009,10.6387,10.7703,11.1188,11.3698,11.4004,11.3099,11.2283,11.1608,11.1392,0.0,0.0,0.0,0.0,10.7009,10.5621,10.4119,10.2603,9.7684,9.3228,0.0,0.0,0.0,7.6888,7.5212,7.4273,7.4113,7.6215,0.0,8.7485,9.1516,0.0,9.6559,9.6505,9.6763,9.7126,9.6942,9.6722,9.6465,9.6318,9.5437,9.4263,9.4153,9.3639,9.3051,9.2758,9.173,9.0555,9.0262,8.9693,8.9143,8.9033,8.8482,8.7986,8.7986,8.7509,8.6794,8.6097,8.5484,8.4726,8.3561,8.281,8.136,7.8144,0.0,0.0,0.0,0.0,0.0,0.0,0.0,0.0,0.0,0.0,0.0,0.0,0.0,0.0,0.0,0.0,0.0,0.0,0.0,7.9866,0.0,8.7498,8.9485,0.0,0.0,9.1465,9.2026,9.1777,9.1631,9.1708,9.3333,9.4158,9.4309,9.4354,9.4132,9.3693,9.347,9.313,9.272,9.2072,9.1803,9.1877,9.2611,9.2868,9.2758,0.0,0.0,0.0,0.0,0.0,0.0,0.0,11.2296,11.1698,10.87,11.0002,11.1188,11.1188,11.2398,11.3009,11.2716,11.2601,11.2105,11.0806,11.0309,10.9697,10.8895,10.6794,0.0,10.4501,9.9496,9.5506,9.2665,0.0,0.0,7.8103,7.5961,7.4214,7.3055,0.0,8.1861,0.0,0.0,0.0,9.5667,9.5906,9.6253,9.6685,9.6685,9.6685,9.6685,9.6685,9.6208,9.5474,9.507,9.4666,9.4189,9.3382,9.2537,9.173,9.0849,9.0317,8.9913,8.951,8.9106,8.8702,8.8316,8.7912,8.7509,8.7088,8.6701,8.6077,8.4866,8.4278,8.2729,7.8506,7.5546,0.0,0.0,0.0,0.0,0.0,0.0,0.0,0.0,0.0,0.0,0.0,0.0,0.0,0.0,0.0,0.0,7.3246,7.5577,7.9283,0.0,0.0,0.0,9.4338,0.0,9.1091,9.3505,9.2817,9.2375,9.2253,9.4163,9.5093,9.5153,9.4845,9.4692,9.4629,9.3982,9.3807,9.3849,9.2858,9.2939,9.3611,9.3695,9.3712,9.3602,0.0,10.5105,0.0,0.0,11.1683,0.0,11.421,11.6006,11.5303,10.9696,10.8905,10.8905,10.8905,11.1812,11.3709,11.3518,11.3518,11.3098,11.2296,11.1608,11.0806,11.0003,10.7902,10.6603,10.6208,10.1394,9.7815,0.0,0.0,0.0,0.0,7.7153,7.4974,0.0,0.0,0.0,0.0,0.0,9.2577,9.524,9.5939,9.64,9.6685,9.6685,9.6685,9.6685,9.6685,9.6685,9.6612,9.5969,9.5639,9.5272,9.4006,9.3492,9.3051,9.1583,9.1143,9.0959,9.0134,8.9803,8.951,8.8867,8.8463,8.8023,8.7399,8.7124,8.6537,8.4939,8.4058,8.2443,7.8736,7.5873,0.0,0.0,0.0,0.0,0.0,0.0,0.0,0.0,0.0,0.0,0.0,0.0,0.0,0.0,0.0,0.0,6.9922,7.4584,7.8702,8.2061,0.0,8.8641,9.4025,0.0,9.0574,9.3818,9.332,9.2851,9.2451,9.4639,9.5598,9.5576,9.5117,9.5279,9.5799,9.4619,9.4692,9.5328,9.4054,9.4272,9.5223,9.4743,9.4556,9.452,0.0,0.0,0.0,0.0,0.0,11.5103,11.3712,11.621,11.7391,11.5213,11.4907,11.4907,11.4907,11.52,11.52,11.4397,11.441,11.4015,11.3085,11.3022,11.2601,11.1799,11.0806,10.9506,10.8016,10.3687,9.961,0.0,0.0,8.5932,8.0353,7.8596,0.0,0.0,0.0,0.0,0.0,9.055,9.2893,9.5229,9.5479,9.6045,9.6685,9.6685,9.6685,9.6685,9.6685,9.6685,9.6685,9.6612,9.6098,9.5455,9.5308,9.4777,9.4006,9.3125,9.2868,9.2684,9.1803,9.1033,9.0464,9.0408,8.9271,8.8169,8.8096,8.7509,8.6537,8.4939,8.226,7.9449,7.6827,7.7855,7.8148,0.0,0.0,0.0,0.0,0.0,0.0,0.0,0.0,0.0,0.0,6.553,0.0,0.0,6.6584,0.0,7.2367,7.3858,7.7274,8.3144,8.6271,8.8286,8.9149,9.0678,9.1298,9.0988,9.2406,9.3055,9.3088,9.4812,9.5598,9.5598,9.5554,9.5985,9.67,9.5996,9.6205,9.6869,9.5582,9.5166,9.5298,9.5369,9.5382,9.5455,0.0,0.0,0.0,0.0,0.0,0.0,0.0,11.6615,11.6499,11.5811,11.5696,11.5696,11.5696,11.5696,11.5582,11.52,11.52,11.4894,11.4015,11.4015,11.3595,11.2792,11.1914,11.0882,10.9697,10.7099,10.3622,0.0,0.0,9.0555,8.425,8.3056,8.3066,0.0,0.0,8.8268,9.1582,9.2535,9.3874,9.5442,9.5991,9.6428,9.6685,9.6685,9.6685,9.6685,9.6685,9.6685,9.6685,9.6685,9.6502,9.6135,9.5639,9.5272,9.485,9.4042,9.3822,9.3639,9.2794,9.2354,9.1877,9.0849,9.0115,8.9381,8.8426,8.7949,8.7142,8.5049,8.2406,8.0057,7.8605,7.7524,7.7084,7.7708,0.0,0.0,0.0,0.0,0.0,0.0,0.0,0.0,0.0,0.0,0.0,0.0,0.0,0.0,7.2327,7.2647,7.4644,7.8862,0.0,8.6473,8.6343,8.9991,9.216,9.2875,9.3038,9.3382,9.3917,9.5064,9.5598,9.5598,9.5598,9.6095,9.6864,9.6198,9.6933,9.8376,9.7125,9.6901,9.7306,9.6955,9.6548,9.6282,11.3401,0.0,11.2497,0.0,11.4809,11.412,11.7099,11.6499,11.5696,11.5696,11.5696,11.5696,11.5696,11.5696,11.5696,11.5696,11.5696,11.5505,11.4894,11.4894,11.4512,11.3595,11.2983,0.0,11.1493,10.9506,10.6985,10.3813,10.0107,0.0,8.9742,8.787,8.7651,0.0,8.9514,9.1493,9.4362,9.4563,9.5226,9.6179,9.656,9.6685,9.6685,9.6685,9.6685,9.6685,9.6685,9.6685,9.6685,9.6685,9.6685,9.6612,9.6025,9.5859,9.5675,9.4887,9.4666,9.4483,9.3675,9.3272,9.2831,9.162,9.0959,9.0262,8.8867,8.839,8.7509,8.5086,8.27,8.0828,8.0241,7.7855,7.668,7.8736,0.0,0.0,0.0,0.0,0.0,0.0,0.0,6.6179,6.5875,0.0,0.0,0.0,0.0,0.0,0.0,7.317,0.0,0.0,0.0,0.0,8.6059,9.0638,9.3038,9.3257,9.3153,9.3421,9.4059,9.5102,9.5598,9.5598,9.5866,9.636,9.696,9.6944,9.7807,9.9112,9.8212,9.8083,9.83,9.7654,9.7101,9.6685,11.2014,11.2104,11.2909,11.5303,11.5696,11.5696,11.5696,11.5696,11.5696,11.5696,11.5696,11.5696,11.5696,11.5696,11.5696,11.5696,11.5696,11.5696,11.5696,11.5696,11.5314,0.0,0.0,11.4091,11.32,11.0678,10.901,10.8093,0.0,0.0,9.6706,9.2493,9.0544,9.0638,9.2513,9.4288,9.5901,9.6292,9.6926,9.7599,9.6971,9.6685,9.6685,9.6685,9.6685,9.6685,9.6685,9.6685,9.6685,9.6685,9.6685,9.6685,9.6685,9.6685,9.6539,9.5712,9.5492,9.5308,9.4483,9.3712,9.3088,9.3088,9.184,9.0391,8.9583,8.8776,8.7509,8.5086,8.27,8.1012,8.1012,7.9653,7.8295,7.7472,0.0,0.0,0.0,0.0,0.0,0.0,6.8508,6.493,6.6969,6.6075,0.0,0.0,0.0,0.0,0.0,0.0,0.0,8.3556,8.9751,0.0,8.878,9.3295,9.3917,9.0659,9.2312,9.3115,9.3153,9.4834,9.5598,9.5637,9.6515,9.6951,9.722,9.8711,9.911,9.8695,9.8679,9.8268,9.7636,9.6971,9.6685,9.6685,11.4692,11.4616,11.4794,11.5582,11.6193,11.6613,11.6613,11.6613,11.6613,11.6613,11.6117,11.5696,11.5696,11.5696,11.5696,0.0,11.5696,11.5696,0.0,11.5696,11.5582,11.5314,11.5314,11.4894,11.4091,11.2716,11.0984,10.8997,0.0,0.0,0.0,9.6886,9.6313,9.7448,9.8187,9.8843,9.9397,9.8503,9.8018,9.7764,9.702,9.6685,9.6685,9.6685,9.6685,9.6685,9.6685,9.6685,9.6685,9.6685,9.6685,9.6685,9.6685,9.6685,9.6649,9.6392,9.6318,9.6135,9.5364,9.4923,9.4483,9.3382,9.2721,9.195,9.0537,8.8739,8.6848,8.4976,8.3544,8.228,8.1179,8.0131,7.9507,7.98,7.8405,0.0,0.0,0.0,0.0,0.0,0.0,6.8856,0.0,6.8735,0.0,0.0,0.0,0.0,0.0,0.0,0.0,0.0,8.5931,0.0,8.611,9.1274,9.3344,9.2312,9.2847,9.3688,9.4834,9.5981,9.6172,9.5675,9.7089,9.7484,9.7168,9.8274,9.8695,9.8717,9.8717,9.8306,9.7652,9.7443,9.7082,9.6685,11.5887,11.5696,11.5696,11.5696,11.6193,11.6499,11.6499,11.6499,11.6499,11.6499,11.6002,11.5696,11.5696,11.5696,0.0,11.5696,11.5696,11.5696,11.5696,11.5696,11.5696,11.5696,11.5696,11.5505,11.5008,11.4091,0.0,11.0793,10.8513,10.5686,10.2514,10.1089,10.0909,10.1585,10.1687,10.1705,10.1408,10.0182,9.9341,9.8668,9.7902,9.7419,9.7163,9.7163,9.6942,9.6685,9.6685,9.6685,9.6685,9.6685,9.6685,9.6685,9.6685,9.6685,9.6685,9.6685,9.6685,9.6575,9.6098,9.5712,9.5235,9.4263,9.3565,9.2648,9.0996,8.8739,8.6721,8.571,8.4372,8.3087,8.2096,8.0755,7.9963,8.0461,7.8038,7.646,7.7524,0.0,0.0,0.0,0.0,0.0,0.0,7.095,7.1963,0.0,0.0,0.0,0.0,0.0,7.9173,8.0643,8.6718,8.9169,8.7537,9.1227,9.2924,9.2618,9.3004,9.4197,9.6084,9.6118,9.6159,9.6215,9.7351,9.7464,9.6913,9.8064,9.829,9.7976,9.824,9.7908,9.7319,9.7319,9.7045,9.6685,11.5887,11.5887,11.5887,11.5887,11.5887,11.5887,11.5887,11.5887,11.5887,11.5811,11.5696,11.5696,11.5696,11.5696,11.5696,11.5696,0.0,0.0,11.5696,11.5696,11.5696,11.5696,11.5696,11.5696,11.5696,11.4894,11.4091,11.32,11.0003,10.7596,10.5991,10.5112,10.431,10.3508,10.351,10.3007,10.2185,10.1511,10.0782,10.0108,9.9363,9.8668,9.799,9.799,9.7493,9.6795,9.6795,9.6759,9.6685,9.6685,9.6685,9.6685,9.6685,9.6685,9.6685,9.6685,9.6685,9.6685,9.6685,9.6171,9.5565,9.5492,9.4281,9.2684,9.1069,8.8849,8.7124,8.7014,8.5106,8.3454,8.3344,8.1379,7.9779,7.9743,7.7635,7.6056,7.6093,0.0,0.0,0.0,0.0,0.0,6.9472,7.2701,7.4331,0.0,0.0,0.0,0.0,0.0,8.1495,8.7131,9.0915,9.2577,9.2001,9.2691,9.2656,9.2007,9.3029,9.4738,9.6864,9.5623,9.5814,9.7128,9.7394,9.7072,9.6517,9.7996,9.7857,9.6762,9.7391,9.7229,9.6685,9.6685,9.6685,9.6685,11.7697,11.7697,11.7697,11.7697,11.818,11.8409,11.7798,11.7697,11.7416,11.6804,11.6117,11.5696,11.5696,11.5696,11.5696,11.5696,11.5696,11.5696,11.5696,11.5696,11.5696,11.5696,11.5696,11.5696,11.5696,11.4894,11.4091,11.32,11.1111,10.9889,10.9506,10.8016,10.7214,10.701,10.6417,10.5503,10.4107,10.2799,10.1518,10.019,9.9407,9.8998,9.8814,9.8814,9.83,9.7603,9.7603,9.7199,9.6685,9.6685,9.6685,9.6685,9.6685,9.6685,9.6685,9.6685,9.6685,9.6685,9.6685,9.6575,9.6282,9.5639,9.4281,9.2831,9.1803,9.0152,8.8482,8.7234,8.5563,8.3948,8.27,8.1028,7.9596,7.8993,7.679,7.538,7.6019,7.4918,0.0,0.0,7.4808,7.4588,7.3582,7.4353,7.5154,0.0,0.0,7.8965,8.2663,8.2292,8.305,8.5352,8.8521,9.0453,9.0944,9.1713,9.2656,9.3792,9.4647,9.5715,9.6875,9.6679,9.6769,9.7166,9.8011,9.7649,9.6483,9.7522,9.7462,9.6705,9.6858,9.6857,9.6685,9.6685,9.6685,9.6685,11.8308,11.8308,11.8308,11.8308,11.869,11.8791,11.8423,11.8308,11.8103,11.7683,11.6804,11.6308,11.6308,11.5887,11.5696,11.5696,11.5696,11.5696,11.5696,11.5696,11.5696,11.5696,11.5696,11.5696,11.5696,11.5314,11.4588,11.3786,11.2105,11.1111,11.0704,10.9392,10.8411,10.7689,10.7279,10.6092,10.4314,10.3497,10.2313,10.0796,10.0393,9.9989,9.9659,9.9659,9.9145,9.8411,9.8007,9.786,9.7676,9.6942,9.6942,9.7163,9.6832,9.6685,9.6685,9.6685,9.6685,9.6685,9.6685,9.6685,9.6502,9.5675,9.4831,9.3896,9.2721,9.1473,9.0078,8.8445,8.6794,8.5233,8.3581,8.1672,7.9947,7.8772,7.7488,7.6497,7.6166,7.6041,7.6004,7.6004,7.6754,7.7084,7.6644,7.7913,7.8787,7.8721,8.0507,0.0,8.3942,8.6047,8.717,8.7079,8.8891,9.0277,9.1128,9.2055,9.3351,9.4938,9.487,9.5802,9.7577,9.6756,9.6721,9.7395,9.7649,9.7307,9.6564,9.7026,9.7008,9.6685,9.6685,9.6685,9.6685,9.6685,9.6685,9.6685,11.869,11.869,11.869,11.869,11.869,11.86,11.8499,11.8499,11.8423,11.8103,11.7492,11.6905,11.6791,11.6117,11.5696,11.5696,11.5696,11.5696,11.5696,11.5696,11.5696,11.5696,11.5696,11.5696,11.5696,11.5696,11.5391,11.4703,11.3098,11.199,11.1315,11.0309,10.9094,10.7796,10.7595,10.6412,10.4497,10.4113,10.3184,10.1804,10.1591,10.111,10.0503,10.0503,9.9989,9.9181,9.8521,9.8631,9.8888,9.753,9.753,9.797,9.7273,9.7052,9.7052,9.7052,9.7052,9.7016,9.6759,9.6685,9.6539,9.5859,9.5565,9.5125,9.3786,9.2648,9.1473,9.0078,8.8299,8.65,8.4903,8.2627,8.0498,7.9029,7.8662,7.8148,7.6827,0.0,7.7729,7.7839,7.85,7.9066,7.9286,8.1709,8.2794,8.1819,8.59,8.7462,8.5261,8.9297,9.1219,9.0246,9.0483,9.1054,9.1902,9.2922,9.4187,9.5627,9.4737,9.5741,9.8327,9.648,9.6381,9.7671,9.7008,9.6685,9.6685,9.6685,9.6685,9.6685,9.6685,9.6685,9.6685,9.6685,9.6685,9.6685,12.0396,12.0396,12.0396,12.0396,12.0396,12.0205,11.9403,11.9288,11.8791,11.7416,11.711,11.6676,11.6002,11.5811,11.5696,11.5696,11.5696,11.5696,11.5696,11.5696,11.5696,11.5696,11.5696,11.5696,11.5696,11.5696,11.562,11.5505,11.4588,11.3977,11.3914,11.2296,11.1493,11.1196,10.9809,10.8599,10.7614,10.5604,10.4319,10.3298,10.1997,10.1384,10.1274,10.1274,10.0796,10.0099,9.9952,9.9585,9.9052,9.8814,9.8814,9.8888,9.8778,9.8741,9.8741,9.8741,9.8741,9.8447,9.7089,9.6685,9.6685,9.6539,9.6025,9.5418,9.5161,9.3418,9.1767,9.1565,8.9124,8.65,8.4903,8.2627,8.0718,7.9779,7.9029,7.8736,7.9192,0.0,7.9653,8.0351,8.0571,8.1158,8.25,8.248,8.3141,8.4903,8.5002,8.6279,8.9262,8.9313,9.0131,9.2016,9.1294,9.1332,9.2377,9.3243,9.4376,9.5857,9.5807,9.6695,9.834,9.6905,9.6787,9.7671,9.7008,9.6685,9.6685,9.6685,9.6685,9.6685,9.6685,9.6685,9.6685,9.6685,9.6685,9.6685,12.0816,12.0816,12.0816,12.0816,12.0816,12.0702,12.032,12.0205,11.9785,11.8485,11.7989,11.7416,11.6499,11.6002,11.5696,11.5696,11.5696,11.5696,11.5696,11.5696,11.5696,11.5696,11.5696,11.5696,11.5696,11.5696,11.5696,11.5696,11.4894,11.4487,11.4487,11.2792,11.1794,11.1401,11.0087,10.8701,10.7085,10.61,10.4688,10.308,10.2389,10.1898,10.1514,10.1514,10.1294,10.0907,10.0503,10.0319,10.0283,9.9402,9.9402,9.9659,9.9255,9.9108,9.9108,9.9108,9.8778,9.83,9.753,9.7016,9.6685,9.6685,9.6428,9.6025,9.5602,9.463,9.3418,9.2115,9.0629,8.883,8.6371,8.4278,8.2957,8.301,8.1269,0.0,8.2753,8.1909,8.1525,8.281,8.2957,8.3398,8.4572,8.4756,8.527,8.6371,8.6381,8.7189,8.9122,8.9442,9.0134,9.1437,9.2082,9.265,9.313,9.4058,9.526,9.6686,9.6444,9.709,9.852,9.7545,9.7334,9.7671,9.7008,9.6685,9.6685,9.6685,9.6685,9.6685,9.6685,9.6685,9.6685,9.6685,9.6685,9.6759,12.0816,12.0816,12.0816,12.0816,12.0816,12.0816,12.0816,12.0587,12.0281,11.9594,11.8791,11.7989,11.7416,11.6499,11.6002,11.6002,11.5811,11.5696,11.5696,11.5696,11.5696,11.5696,11.5696,11.5696,11.5696,11.5696,11.5696,11.5696,11.5085,11.4779,11.4703,11.3098,11.1993,11.139,11.0288,10.8799,10.6988,10.6603,10.5282,10.3503,10.3117,10.2595,10.2101,10.2101,10.1898,10.1677,10.109,10.109,10.1274,10.0099,10.0099,10.0503,9.9842,9.9659,9.9659,9.9659,9.9071,9.8374,9.8007,9.7309,9.6685,9.6685,9.6685,9.6539,9.5914,9.5639,9.4941,9.3051,9.2354,9.1216,8.8335,8.6518,8.5527,8.5747,0.0,8.2847,8.4939,8.4132,8.3691,8.4756,8.5196,8.5747,8.6554,8.7215,8.7565,8.7565,8.8133,8.8573,8.8757,8.9955,9.0912,9.1454,9.2806,9.365,9.3837,9.4938,9.6162,9.7425,9.7146,9.767,9.8877,9.8092,9.7772,9.7891,9.7267,9.7094,9.7209,9.7239,9.7273,9.7273,9.7273,9.7273,9.7273,9.7273,9.7273,9.7346,12.0816,12.0816,12.0816,12.0816,12.0816,12.0816,12.0816,12.009,11.9594,11.9517,11.8791,11.8308,11.8194,11.7416,11.6919,11.6919,11.6193,11.5696,11.5696,11.5696,11.5696,11.5696,11.5696,11.5696,11.5696,11.5696,11.5696,11.5696,11.562,11.562,11.5582,11.39,11.311,11.2994,11.1314,11.0101,10.9296,10.7794,10.6703,10.5802,10.439,10.3806,10.3696,10.3696,10.3293,10.2595,10.2501,10.2081,10.1514,10.1404,10.1404,10.1404,10.131,10.1274,10.1274,10.1274,10.0816,9.9805,9.83,9.7309,9.6685,9.6685,9.6685,9.6685,9.6649,9.6061,9.5455,9.5272,9.4042,9.2464,9.0665,8.9014,8.7472,8.604,0.0,0.0,8.3748,8.5326,8.6407,8.5783,8.7031,8.8243,8.9069,8.9179,8.9216,8.9216,8.929,8.962,9.0372,9.1234,9.2409,9.3969,9.3456,9.3511,9.4246,9.5686,9.6775,9.7493,9.8182,9.8915,9.9587,9.8268,9.8043,9.8614,9.806,9.8133,9.8736,9.8867,9.8924,9.8924,9.8924,9.8924,9.8924,9.8924,9.8924,9.8905,12.0816,12.0816,12.0816,12.0816,12.0816,12.0816,12.0816,12.0511,12.009,11.9594,11.9211,11.86,11.7607,11.7186,11.6804,11.6193,11.5887,11.5696,11.5696,11.5696,11.5696,11.5696,11.5696,11.5696,11.5696,11.5696,11.5696,11.5696,11.5696,11.5696,11.5696,11.4015,11.32,11.3085,11.1417,10.9989,10.8915,10.8297,10.7104,10.5489,10.4885,10.432,10.388,10.388,10.3696,10.3403,10.3403,10.3219,10.2999,10.2999,10.2999,10.2999,10.2999,10.2999,10.2889,10.2412,10.131,10.0209,9.9548,9.8447,9.7419,9.7419,9.7052,9.6685,9.6685,9.6465,9.6098,9.5602,9.5015,9.4116,9.2464,9.1216,9.0555,9.0996,0.0,8.7031,8.8463,8.7729,8.7068,8.7252,8.828,8.9069,8.9363,8.94,8.962,9.0097,9.0629,9.1289,9.2097,9.2905,9.3859,9.5034,9.474,9.4945,9.5655,9.6731,9.7558,9.8282,9.9477,10.0194,10.0403,10.0516,10.0616,10.0801,9.9733,9.9388,9.9622,9.9254,9.9108,9.9108,9.9108,9.9108,9.9108,9.9108,9.9108,9.9125,12.0816,12.0816,12.0816,12.0816,12.0816,12.0816,12.0816,12.0587,12.0205,11.9594,11.9288,11.8715,11.7492,11.7186,11.6804,11.6193,11.5887,11.5696,11.5696,11.5696,11.5696,11.5696,11.5696,11.5696,11.5696,11.5696,11.5696,11.5696,11.5696,11.5582,11.5314,11.39,11.3098,11.2792,11.1302,10.99,10.848,10.848,10.7293,10.5495,10.5495,10.5201,10.4687,10.4687,10.4504,10.4284,10.4284,10.41,10.388,10.388,10.388,10.388,10.388,10.388,10.3806,10.3219,10.2301,10.1384,10.1384,10.0302,9.8888,9.8411,9.7676,9.7089,9.7089,9.6869,9.6539,9.5988,9.5859,9.5474,9.4116,9.3345,9.3161,9.3822,9.1106,8.9601,9.1601,9.0152,8.9124,8.9674,9.0445,9.0941,9.0941,9.0941,9.1179,9.173,9.2317,9.2978,9.3822,9.463,9.5327,9.5859,9.6135,9.6676,9.7578,9.81,9.8707,9.9411,10.0909,10.1595,10.1595,10.1977,10.2308,10.2492,10.1303,10.0802,10.0808,10.0389,10.0078,9.9842,9.9842,9.9842,9.9842,9.9842,9.9842,9.9916,12.0816,12.0816,12.0816,12.0816,12.0816,12.0816,12.0816,12.009,11.9517,11.9517,11.8791,11.8308,11.8308,11.7492,11.6995,11.6995,11.6193,11.5696,11.5696,11.5696,11.5696,11.5696,11.5696,11.5696,11.5696,11.5696,11.5696,11.5696,11.5696,11.5314,11.4487,11.3595,11.2792,11.199,11.1111,10.99,10.848,10.8517,10.7703,10.6376,10.6376,10.6376,10.6376,10.6376,10.5899,10.5107,10.5107,10.4614,10.388,10.388,10.388,10.388,10.388,10.388,10.388,10.388,10.388,10.388,10.388,10.2705,10.109,9.9512,9.8521,9.7916,9.7916,9.7273,9.6722,9.6685,9.6685,9.6465,9.5639,9.5492,9.4978,9.3382,9.3125,9.2831,9.195,9.2574,9.3125,9.3125,9.3822,9.4299,9.4299,9.4299,9.4299,9.4299,9.4299,9.4666,9.5455,9.6282,9.6722,9.6722,9.7512,9.8539,9.9881,9.9896,10.018,10.0885,10.2512,10.3214,10.319,10.2507,10.2598,10.3192,10.2606,10.2413,10.2295,10.2522,10.2202,10.1514,10.1514,10.1514,10.1514,10.1514,10.1514,10.1514,12.0816,12.0816,12.0816,12.0816,12.0816,12.0816,12.0816,12.0587,12.0396,12.0396,11.9708,11.8906,11.8423,11.7492,11.6804,11.6117,11.5887,11.5696,11.5696,11.5696,11.5696,11.5696,11.5696,11.5696,11.5696,11.5696,11.5696,11.5696,11.5696,11.5582,11.5314,11.39,11.3098,11.2818,11.081,10.9409,10.8483,10.792,10.7189,10.6376,10.6376,10.6376,10.6376,10.6376,10.6192,10.6009,10.6009,10.5899,10.5699,10.5699,10.5699,10.5699,10.5699,10.5201,10.4703,10.4703,10.432,10.388,10.388,10.3513,10.2779,10.12,9.9732,9.8594,9.8007,9.7713,9.7383,9.6832,9.6685,9.6649,9.6392,9.6355,9.5988,9.4941,9.4758,9.452,9.3675,9.3786,9.3932,9.3932,9.4153,9.4299,9.4299,9.4299,9.452,9.5107,9.5658,9.6098,9.6318,9.7089,9.778,9.8241,9.9037,10.009,10.1499,10.0993,10.1307,10.2486,10.3588,10.3699,10.3202,10.4188,10.4392,10.4006,10.3998,10.3918,10.3791,10.3009,10.2482,10.2202,10.1697,10.1514,10.1514,10.1514,10.1514,10.1514,12.0816,12.0816,12.0816,12.0816,12.0511,12.032,12.032,12.032,12.0014,11.9403,11.9097,11.86,11.7377,11.6804,11.6308,11.5696,11.5696,11.5696,11.5696,11.5696,11.5696,11.5696,11.5696,11.5696,11.5696,11.5696,11.5696,11.5696,11.5696,11.5505,11.52,11.4206,11.3404,11.2613,11.0893,10.9699,10.8899,10.7814,10.7175,10.678,10.6486,10.6376,10.6376,10.6376,10.6596,10.6911,10.6911,10.7095,10.7294,10.7294,10.7294,10.7294,10.7294,10.678,10.6119,10.6119,10.5495,10.4908,10.4908,10.4614,10.41,10.3182,10.1494,9.9842,9.9035,9.8594,9.8227,9.775,9.7383,9.7163,9.7163,9.6906,9.6539,9.6061,9.5969,9.5804,9.5327,9.5254,9.5254,9.5254,9.5254,9.5254,9.5254,9.5254,9.5437,9.5951,9.6722,9.7163,9.7163,9.7933,9.8569,9.8965,9.9978,10.108,10.228,10.2411,10.2696,10.3214,10.4386,10.4501,10.3699,10.5112,10.5418,10.4897,10.4987,10.4896,10.45,10.3689,10.3217,10.291,10.2221,10.1897,10.1895,10.1597,10.1514,10.1514,12.0702,12.0587,12.0587,12.0587,11.9899,11.9403,11.9403,11.9403,11.8791,11.7301,11.7683,11.7607,11.6002,11.5696,11.5696,11.5696,11.5696,11.5696,11.5696,11.5696,11.5696,11.5696,11.5696,11.5696,11.5696,11.5696,11.5696,11.5696,11.5696,11.5314,11.4588,11.4512,11.3595,11.2079,11.1311,11.0417,10.9482,10.8112,10.7508,10.7498,10.6801,10.6486,10.6486,10.6486,10.7021,10.7609,10.7682,10.8196,10.8799,10.8799,10.8799,10.8799,10.8799,10.8285,10.7719,10.7719,10.7073,10.6486,10.6486,10.5899,10.518,10.5107,10.3403,10.1624,10.0613,9.9769,9.9181,9.9108,9.8521,9.797,9.7897,9.7309,9.6795,9.6722,9.6685,9.6722,9.6795,9.6795,9.6832,9.6906,9.6906,9.6906,9.6906,9.6906,9.6906,9.6906,9.7603,9.8026,9.8026,9.8819,9.9279,9.9279,10.0778,10.2007,10.268,10.4107,10.4408,10.3508,10.4998,10.5303,10.4616,10.5418,10.5711,10.5711,10.5711,10.5281,10.4605,10.4586,10.4199,10.3502,10.2908,10.2682,10.25,10.178,10.1611,10.1514,11.9785,11.9288,11.8791,11.8791,11.869,11.8614,11.8614,11.8614,11.8409,11.8103,11.7607,11.711,11.6804,11.6117,11.5696,11.5696,11.5696,11.5696,11.5696,11.5696,11.5696,11.5696,11.5696,11.5696,11.5696,11.5696,11.5696,11.5696,11.5696,11.562,11.5391,11.4779,11.39,11.2919,11.1501,11.0093,10.8691,10.8504,10.81,10.7609,10.7388,10.7315,10.7315,10.7315,10.7425,10.7682,10.8285,10.8688,10.8799,10.8799,10.8799,10.8799,10.8799,10.8688,10.8505,10.8505,10.8012,10.7315,10.7315,10.6706,10.6009,10.5311,10.4703,10.3806,10.1677,10.0613,9.9879,9.9255,9.8961,9.8668,9.8007,9.7769,9.7419,9.6795,9.6685,9.6906,9.753,9.764,9.786,9.8521,9.8594,9.8594,9.8594,9.8594,9.8594,9.8594,9.8741,9.8851,9.8851,10.0092,10.0796,10.0796,10.292,10.4388,10.5088,10.6091,10.6422,10.6106,10.58,10.5915,10.6297,10.5915,10.5711,10.5711,10.5711,10.5191,10.4481,10.4616,10.4107,10.3389,10.3421,10.3104,10.261,10.2389,10.1992,10.1514,11.8982,11.8614,11.8308,11.8308,11.7989,11.7683,11.7683,11.7683,11.7492,11.711,11.6995,11.6791,11.6422,11.6002,11.5696,11.5696,11.5696,11.5696,11.5696,11.5696,11.5696,11.5696,11.5696,11.5696,11.5696,11.5696,11.5696,11.5696,11.5696,11.5696,11.5696,11.5314,11.4397,11.3186,11.2413,11.1415,11.0186,10.9907,10.9599,10.9194,10.8882,10.8503,10.8196,10.8196,10.8416,10.882,10.9202,10.9606,10.99,10.99,10.99,10.99,10.99,10.9679,10.9386,10.9386,10.8505,10.7609,10.7609,10.7021,10.6302,10.5789,10.5422,10.4724,10.2999,10.2008,10.131,10.0907,10.0209,9.9548,9.9108,9.8741,9.8337,9.7897,9.786,9.8007,9.8411,9.8484,9.8484,9.8521,9.8888,9.9108,9.9108,9.9108,9.9108,9.9108,9.9475,9.9659,9.9659,10.0824,10.1607,10.1995,10.3794,10.4891,10.4908,10.6005,10.651,10.6408,10.6706,10.6908,10.6908,10.6908,10.6908,10.6908,10.6488,10.622,10.6081,10.5001,10.4998,10.5515,10.4099,10.3604,10.3607,10.3196,10.2408,10.1514,11.8423,11.8117,11.7888,11.7888,11.7301,11.6804,11.6804,11.6804,11.6499,11.5811,11.6308,11.6499,11.5811,11.5696,11.5696,11.5696,11.5696,11.5696,11.5696,11.5696,11.5696,11.5696,11.5696,11.5696,11.5696,11.5696,11.5696,11.5696,11.5696,11.5696,11.5696,11.5696,11.4894,11.3416,11.3517,11.2994,11.2106,11.1603,11.1404,11.1183,11.0607,10.9875,10.9181,10.9181,10.9479,10.9973,11.0215,11.0597,11.1221,11.1221,11.1221,11.1221,11.1221,11.0707,11.0193,11.0193,10.9187,10.8012,10.8012,10.7315,10.6596,10.6596,10.6009,10.5107,10.4504,10.3586,10.2889,10.2889,10.1714,10.0686,10.0686,10.0099,9.9475,9.9328,9.9328,9.9328,9.9328,9.9328,9.9108,9.8557,9.9108,9.9512,9.9512,9.9512,9.9512,9.9512,10.0099,10.0503,10.0503,10.1377,10.2075,10.2705,10.4296,10.4777,10.4022,10.5591,10.6289,10.6292,10.7805,10.8004,10.729,10.7801,10.8195,10.8398,10.7481,10.7405,10.7787,10.5915,10.6082,10.7482,10.4996,10.4305,10.458,10.3584,10.2481,10.1514,11.8308,11.711,11.6117,11.6117,11.6002,11.5887,11.5887,11.5887,11.5811,11.5696,11.5811,11.5811,11.5696,11.5696,11.5696,11.5696,11.5696,11.5696,11.5696,11.5696,11.5696,11.5696,11.5696,11.5696,11.5696,11.5696,11.5696,11.5696,11.5696,11.5696,11.5696,11.5696,11.52,11.4283,11.4292,11.3517,11.2114,11.2704,11.2687,11.2111,11.1998,11.1525,11.079,11.079,11.0491,11.0083,11.0817,11.1111,11.1221,11.1221,11.1221,11.1221,11.1221,11.1111,11.1001,11.1001,11.0414,10.9701,10.9701,10.86,10.7425,10.7425,10.678,10.6192,10.6082,10.4908,10.3696,10.3696,10.2999,10.2412,10.2412,10.1714,10.0907,10.0283,10.0099,10.0099,10.0099,10.0099,10.0393,10.0907,10.111,10.122,10.122,10.122,10.122,10.122,10.1294,10.131,10.131,10.2698,10.318,10.2689,10.4889,10.5601,10.4783,10.6985,10.8112,10.8088,10.8996,10.9295,10.8984,10.7808,10.8001,10.9188,10.8398,10.7711,10.7099,10.7481,10.7085,10.6188,10.6519,10.5515,10.3798,10.2289,10.1714,10.1514,11.6881,11.6193,11.5696,11.5696,11.5696,11.5696,11.5696,11.5696,11.5696,11.5696,11.5696,11.5696,11.5696,11.5696,11.5696,11.5696,11.5696,11.5696,11.5696,11.5696,11.5696,11.5696,11.5696,11.5696,11.5696,11.5696,11.5696,11.5696,11.5696,11.5696,11.5696,11.5696,11.5505,11.52,11.52,11.4415,11.3303,11.4203,11.4501,11.4224,11.4224,11.3496,11.2403,11.2403,11.202,11.1304,11.1213,11.1221,11.1221,11.1221,11.1221,11.1221,11.1221,11.1221,11.1221,11.1221,11.0597,10.9995,10.9995,10.9224,10.8306,10.8306,10.7719,10.7095,10.7095,10.6213,10.5201,10.4687,10.3586,10.2705,10.2705,10.2412,10.2081,10.1714,10.2008,10.2301,10.2301,10.2301,10.2412,10.2779,10.2412,10.2301,10.2779,10.2779,10.2779,10.2779,10.2779,10.2779,10.2779,10.3509,10.3898,10.399,10.5402,10.58,10.5092,10.6493,10.6981,10.6522,10.6892,10.7909,10.9509,10.8289,10.8189,10.8894,10.8394,10.8296,10.8409,10.7699,10.7915,10.8412,10.6885,10.5787,10.4901,10.339,10.2806,10.2702]}]]